     2              OBSERVATION DATA    GPS                 RINEX VERSION / TYPE
teqc 1999Jul19 20000201 02:03:23UTC                         PGM / RUN BY / DATE
                                                            COMMENT
L2: 1 -> 1; 5 -> 5; 60 -> 9                                 COMMENT
L2: 1 -> 1; 5 -> 5; 60 -> 9                                 COMMENT
L2: 1 -> 1; 5 -> 5; 60 -> 9                                 COMMENT
L2: 1 -> 1; 5 -> 5; 60 -> 9                                 COMMENT
L2: 1 -> 1; 5 -> 5; 60 -> 9                                 COMMENT
Original Marker Name: 0017                                  COMMENT
Campaign Name: Imperial Valley Leveling                     COMMENT
4-Character Station Name: 0017                              COMMENT
6-Character Antenna Code: TRMSST                            COMMENT
Vertical Measurement Point: BPA                             COMMENT
Vertical Offset to Rinex Ref. Point: 0.0000                 COMMENT
Radial Measurement Point: RRP                               COMMENT
Radial Offset to Rinex Ref. Point: 0.0000                   COMMENT
Antenna Height from Field Measurement: 2.2150 m             COMMENT
Additional Antenna Identification Info.:                    COMMENT
Model 14532.00                                              COMMENT
Original XYZ: -2318314.1646 -4839890.5398 3435291.5452      COMMENT
New XYZ position is based on association with SCEC monument COMMENT
E1C8W0P8+0011. Position of that monument is believed to be  COMMENT
valid to within 1 m horizontally; vertical accuracy         COMMENT
should be no worse than 3-times this value.                 COMMENT
                                                            COMMENT
Revised Rinex header created by UCSD GPS archive for        COMMENT
GSAC on 17-Jul-2000 (2000:199) 21:29:23 GMT                 COMMENT
For assistance contact dagnew@ucsd.edu                      COMMENT
or anderson@python.ucsd.edu                                 COMMENT
                                                            COMMENT
E 1223 1971                                                 MARKER NAME
0017                                                        MARKER NUMBER
-Unknown- CALIF DEPT TRANSPORTATION                         OBSERVER / AGENCY
1552 TRIMBLE 4000 SSE NP 5.71; SP 1.26                      REC # / TYPE / VERS
S/N UNKNOWN TR 4000SST L1/L2 GEO                            ANT # / TYPE
 -2318324.9856 -4839899.1208  3435294.5662                  APPROX POSITION XYZ
        2.2150        0.0000        0.0000                  ANTENNA: DELTA H/E/N
     1     1     0                                          WAVELENGTH FACT L1/2
     7    C1    L1    L2    P1    P2    S1    S2            # / TYPES OF OBSERV
     0                                                      INTERVAL
  1995     4    24    14    54   15.000000                  TIME OF FIRST OBS
  1995     4    24    22     0   15.000000                  TIME OF LAST OBS
                                                            END OF HEADER
 95  4 24 14 54 15.0000000  0  8G14G18G19G22G27G28G29G31
                     38601.31115     30078.55615  23331495.281    23331497.086
         9.500           9.000
                    -23856.22117    -18589.15216  20587283.906    20587282.945
        23.750          20.500
                    -26039.39716    -20291.17316  21674594.055    21674594.234
        16.500          17.500
                     34571.23116     26939.18916  23430418.273    23430418.973
        12.000          12.000
                    -39642.69813    -30890.57415  24400316.211    24400317.203
         5.750           7.500
                    -24991.30415    -19473.28615  23608946.680    23608946.457
        11.250           9.750
                     -3076.14016     -2397.74716  20648400.266    20648399.910
        19.750          20.750
                    -44914.30615    -34998.21015  23741860.242    23741860.840
         7.500           8.250
 95  4 24 14 54 30.0000000  0  8G14G18G19G22G27G28G29G31
                     83167.496 5     64805.433 5  23339976.422    23339977.523
         9.500           8.500
                    -51312.780 7    -39983.855 6  20582059.016    20582058.074
        23.750          20.500
                    -56060.241 6    -43684.012 6  21668881.109    21668881.309
        16.250          17.500
                     74505.772 6     58057.014 5  23438017.656    23438018.297
        12.000          11.500
                    -85387.722 3    -66536.017 5  24391611.250    24391612.203
         6.000           7.000
                    -53747.737 5    -41880.879 5  23603474.414    23603474.020
        11.000           9.750
                     -6549.052 7     -5103.898 6  20647739.547    20647739.078
        20.250          20.750
                    -96726.899 5    -75371.611 5  23732000.180    23732001.289
         7.500           8.250
 95  4 24 14 54 45.0000000  0  8G14G18G19G22G27G28G29G31
                    127767.254 5     99558.473 5  23348464.016    23348464.699
         9.750           8.500
                    -78674.487 7    -61304.652 6  20576852.414    20576851.496
        23.750          20.500
                    -86029.685 6    -67036.803 6  21663178.133    21663178.359
        16.250          17.500
                    114497.413 6     89219.344 5  23445627.813    23445628.090
        12.250          11.000
                   -131111.700 4   -102165.054 5  24382910.180    24382911.363
         6.250           6.750
                    -82399.873 5    -64207.201 5  23598021.984    23598021.844
        10.750           9.750
                     -9924.069 7     -7733.773 6  20647097.547    20647097.000
        20.500          20.750
                   -148502.144 5   -115715.917 5  23722147.406    23722148.766
         7.750           8.250
 95  4 24 14 55  0.0000000  0  8G14G18G19G22G27G28G29G31
                    172414.787 5    134348.736 5  23356959.766    23356961.543
         9.500           8.750
                   -105926.288 7    -82539.808 6  20571666.594    20571665.543
        23.750          20.250
                   -115932.509 6    -90337.682 6  21657487.813    21657488.090
        16.500          17.500
                    154559.454 6    120436.539 5  23453251.438    23453251.469
        12.000          10.750
                   -176800.292 4   -137766.521 5  24374215.977    24374216.902
         6.500           6.500
                   -110933.175 5    -86440.927 5  23592592.391    23592592.055
        10.750           9.750
                    -13185.269 7    -10274.961 6  20646476.828    20646476.215
        20.500          21.000
                   -200226.739 5   -156020.772 5  23712304.336    23712305.594
         8.000           8.000
 95  4 24 14 55 15.0000000  0  8G14G18G19G22G27G28G29G31
                    217118.303 5    169182.614 5  23365466.547    23365468.773
         9.500           8.750
                   -133063.915 7   -103685.998 6  20566502.547    20566501.270
        23.500          20.250
                   -145763.581 6   -113582.652 6  21651811.156    21651811.441
        16.750          17.750
                    194697.072 6    151712.623 5  23460889.445    23460889.414
        12.000          11.000
                   -222442.621 4   -173331.942 5  24365530.398    24365531.254
         6.750           6.250
                   -139341.086 5   -108576.945 5  23587186.438    23587186.375
        10.750           9.750
                    -16325.266 7    -12721.704 6  20645879.250    20645878.816
        20.250          21.500
                   -251896.390 5   -196282.800 5  23702472.734    23702472.984
         8.250           7.500
 95  4 24 14 55 30.0000000  0  8G14G18G19G22G27G28G29G31
                    261877.748 5    204060.089 5  23373983.953    23373986.047
         9.250           8.750
                   -160088.361 7   -124743.995 6  20561359.766    20561358.617
        22.750          19.750
                   -175522.463 6   -136771.372 6  21646148.305    21646148.496
        17.000          17.750
                    234908.076 5    183045.890 5  23468541.172    23468541.547
        11.250          11.000
                   -268036.293 4   -208859.460 5  24356854.242    24356854.781
         6.750           6.250
                   -167623.969 5   -130615.545 5  23581804.320    23581804.230
        10.750           9.750
                    -19344.525 6    -15074.364 6  20645304.602    20645304.273
        19.750          21.500
                   -303511.379 5   -236502.229 5  23692651.016    23692650.871
         8.500           7.500
 95  4 24 14 55 45.0000000  0  8G14G18G19G22G27G28G29G31
                    306694.562 5    238982.248 5  23382512.711    23382514.594
         9.500           9.250
                   -186992.866 7   -145708.532 6  20556240.141    20556239.277
        22.500          20.250
                   -205203.222 6   -159899.219 6  21640500.328    21640500.469
        17.750          18.250
                    275199.603 5    214441.880 5  23476207.969    23476209.023
        10.750          11.500
                   -313577.040 4   -244345.746 5  24348188.281    24348189.270
         7.000           6.500
                   -195775.940 5   -152552.129 5  23576447.172    23576447.309
        11.000           9.750
                    -22237.850 6    -17328.899 6  20644754.047    20644753.859
        19.750          22.000
                   -355067.426 5   -276675.748 5  23682839.820    23682840.121
         8.500           7.250
 95  4 24 14 56  0.0000000  0  8G14G18G19G22G27G28G29G31
                    351556.276 5    273939.400 5  23391049.711    23391050.512
         9.250           8.500
                   -213785.702 7   -166586.054 6  20551141.531    20551140.766
        22.250          20.250
                   -234817.351 6   -182975.147 6  21634864.906    21634865.066
        18.000          18.250
                    315561.787 5    245892.928 5  23483888.891    23483889.707
        10.750          11.500
                   -359074.263 4   -279798.126 5  24339530.063    24339531.117
         7.000           6.500
                   -223806.758 5   -174394.310 5  23571112.945    23571113.160
        11.000           9.750
                    -25018.835 6    -19495.886 6  20644224.523    20644224.734
        19.250          22.500
                   -406573.940 5   -316810.672 5  23673037.945    23673038.719
         8.250           7.500
 95  4 24 14 56 15.0000000  0  8G14G18G19G22G27G28G29G31
                    396462.370 5    308931.141 5  23399594.438    23399595.992
         9.000           8.250
                   -240461.549 7   -187372.414 6  20546065.250    20546064.605
        22.250          20.250
                   -264362.094 6   -205997.006 6  21629242.922    21629242.934
        18.000          18.000
                    355996.668 5    277400.623 5  23491583.648    23491583.977
        11.500          11.750
                   -404523.188 4   -315212.863 5  24330881.734    24330882.418
         7.000           6.500
                   -251712.301 5   -196138.864 5  23565802.539    23565802.777
        10.750           9.750
                    -27681.644 6    -21570.788 6  20643717.891    20643718.258
        19.000          22.500
                   -458027.540 5   -356904.365 5  23663246.844    23663247.172
         8.250           7.500
 95  4 24 14 56 30.0000000  0  8G14G18G19G22G27G28G29G31
                    441419.572 5    343962.693 5  23408148.883    23408151.336
         8.500           8.500
                   -267011.769 7   -208060.886 6  20541012.742    20541012.199
        21.750          20.250
                   -293827.997 6   -228957.437 6  21623635.703    21623635.566
        17.750          17.750
                    396514.227 6    308972.740 5  23499294.242    23499294.215
        12.250          11.750
                   -449913.504 4   -350581.939 5  24322244.125    24322245.352
         7.000           6.750
                   -279481.933 5   -217777.520 5  23560518.133    23560517.883
        10.500           9.500
                    -30215.691 6    -23545.357 6  20643235.523    20643235.809
        18.750          22.250
                   -509420.435 5   -396950.747 5  23653466.406    23653467.070
         7.750           7.500
 95  4 24 14 56 45.0000000  0  8G14G18G19G22G27G28G29G31
                    486427.816 5    379034.016 5  23416713.063    23416716.371
         8.000           8.500
                   -293439.810 7   -228654.151 6  20535983.672    20535982.961
        21.750          20.250
                   -323222.008 6   -251861.844 6  21618042.195    21618042.063
        17.500          17.750
                    437109.021 6    340605.049 5  23507019.055    23507019.016
        12.750          11.750
                   -495248.242 4   -385907.694 5  24313617.133    24313618.598
         6.500           7.250
                   -307119.178 5   -239313.017 5  23555258.773    23555258.773
        10.250           9.500
                    -32622.605 6    -25420.856 6  20642777.719    20642777.707
        19.250          22.250
                   -560758.554 4   -436954.442 5  23643696.953    23643697.656
         7.250           7.750
 95  4 24 14 57  0.0000000  0  8G14G18G19G22G27G28G29G31
                    531473.689 5    414134.649 5  23425285.875    23425288.309
         8.250           8.250
                   -319762.988 7   -249165.707 6  20530974.797    20530973.945
        21.750          20.500
                   -352567.401 6   -274728.370 6  21612457.789    21612457.848
        17.000          17.500
                    477758.897 6    372280.270 5  23514754.367    23514754.359
        12.500          11.500
                   -540546.702 4   -421205.179 5  24304997.594    24304998.594
         6.750           7.250
                   -334641.784 5   -260759.189 5  23550021.188    23550021.621
        10.000           9.750
                    -34917.344 6    -27208.955 6  20642341.273    20642340.883
        19.750          22.000
                   -612062.235 4   -476931.299 5  23633934.211    23633934.918
         7.250           7.750
 95  4 24 14 57 15.0000000  0  8G14G18G19G22G27G28G29G31
                    576555.546 5    449263.341 5  23433865.313    23433866.715
         8.500           8.250
                   -345987.342 7   -269600.256 6  20525984.617    20525983.750
        22.250          20.500
                   -381869.874 6   -297561.446 6  21606881.555    21606881.793
        16.750          17.500
                    518459.129 6    403994.728 5  23522499.570    23522499.633
        12.250          11.250
                   -585813.981 4   -456478.366 5  24296383.469    24296384.348
         6.750           7.500
                   -362052.552 5   -282118.218 5  23544805.352    23544805.801
         9.750          10.250
                    -37099.542 7    -28909.363 6  20641926.008    20641925.410
        20.000          21.500
                   -663335.244 5   -516884.256 5  23624177.922    23624178.074
         7.500           8.000
 95  4 24 14 57 30.0000000  0  8G14G18G19G22G27G28G29G31
                    621663.707 5    484412.526 5  23442449.414    23442450.520
         8.750           8.000
                   -372118.485 7   -289962.174 6  20521011.898    20521011.074
        22.250          20.750
                   -411137.641 6   -320367.483 6  21601312.148    21601312.465
        16.750          17.500
                    559203.136 5    435743.303 5  23530252.914    23530252.867
        11.750          10.250
                   -631059.159 4   -491734.324 5  24287773.422    24287774.531
         6.750           7.500
                   -389357.518 5   -303394.800 5  23539609.406    23539609.910
        10.000          10.500
                    -39176.592 7    -30527.839 6  20641530.688    20641530.117
        20.250          21.250
                   -714583.313 5   -556817.776 5  23614425.922    23614426.176
         8.000           8.000
 95  4 24 14 57 45.0000000  0  8G14G18G19G22G27G28G29G31
                    666794.686 5    519579.493 5  23451038.031    23451039.305
         9.250           8.250
                   -398160.000 7   -310254.252 6  20516056.344    20516055.660
        22.500          20.750
                   -440372.280 6   -343147.706 6  21595749.070    21595749.387
        17.000          17.500
                    599990.718 5    467525.836 5  23538014.180    23538014.184
        10.750           9.750
                   -676287.661 4   -526977.292 5  24279166.734    24279168.254
         6.750           7.750
                   -416558.254 5   -324590.166 5  23534433.180    23534434.008
        10.250          11.000
                    -41149.756 7    -32065.365 6  20641155.180    20641154.703
        20.250          21.000
                   -765805.702 5   -596731.288 5  23604678.352    23604679.246
         7.750           8.250
 95  4 24 14 58  0.0000000  0  8G14G18G19G22G27G28G29G31
                    711942.708 5    554759.742 5  23459628.852    23459630.883
         9.000           8.250
                   -424121.545 7   -330484.017 6  20511116.031    20511115.332
        22.750          21.000
                   -469581.122 6   -365907.827 6  21590190.922    21590191.164
        17.250          17.500
                    640815.421 5    499337.291 5  23545782.516    23545782.801
         9.750           9.750
                   -721507.795 4   -562213.733 5  24270561.797    24270562.703
         7.000           7.500
                   -443660.667 5   -345708.920 5  23529275.734    23529276.730
        10.000          11.250
                    -43026.638 7    -33527.868 6  20640798.258    20640797.707
        20.250          21.000
                   -817008.906 5   -636629.862 5  23594933.055    23594936.070
         7.500           8.000
 95  4 24 14 58 15.0000000  0  8G14G18G19G22G27G28G29G31
                    757108.983 5    589954.201 5  23468223.125    23468225.848
         8.750           8.250
                   -450006.136 7   -350653.817 6  20506190.469    20506189.715
        23.000          21.000
                   -498764.066 6   -388647.771 6  21584637.625    21584637.840
        17.250          17.250
                    681674.014 5    531175.142 5  23553557.766    23553557.934
         9.500           9.750
                   -766721.361 4   -597445.055 5  24261957.805    24261958.699
         7.250           7.250
                   -470664.542 5   -366750.882 5  23524137.258    23524138.230
        10.250          11.500
                    -44804.428 7    -34913.155 6  20640459.820    20640459.352
        20.000          21.000
                   -868190.887 5   -676511.920 5  23585193.234    23585196.246
         7.500           7.500
 95  4 24 14 58 30.0000000  0  8G14G18G19G22G27G28G29G31
                    802290.131 5    625160.266 5  23476821.391    23476822.109
         9.000           7.500
                   -475821.283 7   -370769.512 6  20501277.945    20501277.203
        23.000          21.000
                   -527923.965 6   -411369.757 6  21579088.695    21579088.934
        17.500          17.500
                    722560.938 5    563035.075 5  23561338.813    23561338.590
        10.250          10.250
                   -811936.474 5   -632677.590 5  24253353.930    24253354.715
         7.500           7.000
                   -497573.409 5   -387718.821 5  23519016.422    23519017.648
        10.250          11.750
                    -46485.858 6    -36223.358 6  20640139.766    20640139.352
        19.750          21.000
                   -919354.542 5   -716379.689 5  23575458.953    23575459.762
         8.250           7.000
 95  4 24 14 58 45.0000000  0  8G14G18G19G22G27G28G29G31
                    847490.193 5    660381.073 5  23485422.547    23485423.473
         9.000           7.750
                   -501569.076 7   -390832.711 6  20496378.313    20496377.605
        23.250          21.250
                   -557058.739 6   -434072.166 6  21573544.266    21573544.676
        17.500          17.750
                    763474.063 5    594915.439 5  23569124.547    23569124.434
        10.750          10.750
                   -857155.451 5   -667913.138 5  24244749.047    24244749.613
         7.750           6.750
                   -524388.104 5   -408613.371 5  23513913.719    23513914.887
        10.000          11.750
                    -48074.053 6    -37460.909 6  20639837.461    20639837.258
        19.500          21.250
                   -970497.700 5   -756231.482 5  23565727.852    23565726.766
         9.000           6.750
 95  4 24 14 59  0.0000000  0  8G14G18G19G22G27G28G29G31
                    892709.236 5    695616.660 5  23494027.172    23494029.156
         8.500           8.000
                   -527249.509 7   -410843.433 6  20491491.469    20491490.781
        23.250          21.250
                   -586166.701 6   -456753.680 6  21568005.172    21568005.613
        17.250          17.750
                    804410.362 5    626813.856 5  23576914.070    23576914.641
        10.500          10.750
                   -902383.611 5   -703155.825 5  24236142.414    24236142.691
         7.500           6.250
                   -551110.305 5   -429435.851 6  23508828.859    23508830.117
        10.250          12.000
                    -49572.384 6    -38628.431 6  20639552.398    20639552.363
        19.500          21.750
                  -1021621.061 5   -796067.831 5  23555999.047    23555998.363
         9.000           7.000
 95  4 24 14 59 15.0000000  0  8G14G18G19G22G27G28G29G31
                    937941.122 5    730862.241 5  23502634.867    23502636.742
         8.500           8.000
                   -552865.925 7   -430804.270 6  20486616.781    20486616.078
        23.250          21.250
                   -615246.701 6   -479413.410 6  21562471.469    21562471.922
        17.000          17.750
                    845369.867 5    658730.350 5  23584708.000    23584708.719
         9.750          10.750
                   -947625.175 5   -738408.972 5  24227533.164    24227533.004
         7.500           6.000
                   -577742.442 5   -450188.147 6  23503760.930    23503762.246
        10.000          12.000
                    -50986.703 6    -39730.491 6  20639283.211    20639283.402
        19.750          22.250
                  -1072726.443 5   -835890.184 5  23546272.719    23546274.008
         8.250           7.500
 95  4 24 14 59 30.0000000  0  8G14G18G19G22G27G28G29G31
                    983181.757 5    766114.640 5  23511244.711    23511245.707
         9.000           8.000
                   -578415.659 7   -450713.144 6  20481754.734    20481754.035
        23.250          21.250
                   -644297.446 6   -502050.339 6  21556943.133    21556943.520
        17.000          17.500
                    886353.564 5    690665.688 5  23592507.102    23592507.449
         9.500          10.750
                   -992879.419 4   -773671.993 5  24218921.664    24218921.617
         7.250           5.750
                   -604285.635 5   -470871.140 5  23498709.711    23498711.008
         9.750          11.750
                    -52322.152 6    -40771.093 6  20639029.328    20639029.430
        19.750          22.250
                  -1123812.723 5   -875697.660 5  23536550.617    23536553.324
         7.750           8.500
 95  4 24 14 59 45.0000000  0  8G14G18G19G22G27G28G29G31
                   1028431.812 5    801374.393 5  23519855.477    23519856.230
         8.750           8.000
                   -603895.712 7   -470567.722 6  20476906.086    20476905.609
        23.000          21.250
                   -673315.466 6   -524661.770 6  21551421.219    21551421.480
        17.000          17.500
                    927363.338 5    722621.348 5  23600311.133    23600311.238
         9.750          10.500
                  -1038144.637 4   -808943.582 5  24210308.039    24210307.371
         6.750           5.750
                   -630738.931 5   -491484.081 5  23493676.008    23493676.953
         9.750          11.500
                    -53580.700 6    -41751.776 6  20638789.781    20638789.777
        19.750          22.250
                  -1174877.265 5   -915488.197 5  23526834.898    23526836.555
         8.500           8.750
 95  4 24 15  0  0.0000000  0  8G14G18G19G22G27G28G29G31
                   1073692.998 5    836642.804 5  23528468.445    23528469.398
         8.750           7.750
                   -629307.458 7   -490369.073 6  20472070.453    20472069.672
        23.000          21.000
                   -702300.505 6   -547247.498 6  21545905.539    21545905.883
        17.000          17.500
                    968398.266 5    754596.614 5  23608119.781    23608120.047
         9.750          10.250
                  -1083419.965 3   -844223.042 5  24201691.906    24201692.223
         6.000           5.750
                   -657103.247 5   -512027.688 5  23488658.719    23488659.898
         9.500          11.000
                    -54762.852 6    -42672.927 6  20638564.781    20638564.617
        19.750          22.250
                  -1225919.334 5   -955261.221 5  23517123.148    23517123.191
         9.500           9.000
 95  4 24 15  0 15.0000000  0  8G14G18G19G22G27G28G29G31
                   1118964.566 5    871919.319 5  23537082.586    23537084.203
         8.250           7.750
                   -654646.946 7   -510114.118 6  20467248.734    20467247.840
        23.000          20.750
                   -731253.645 6   -569808.372 6  21540395.938    21540396.332
        17.000          17.500
                   1009454.210 5    786588.259 5  23615932.414    23615932.844
         9.750           9.750
                  -1128704.627 3   -879509.777 5  24193074.508    24193075.074
         5.500           6.000
                   -683378.565 5   -532501.943 5  23483658.977    23483659.840
         9.750          10.750
                    -55867.051 6    -43533.337 6  20638354.633    20638354.383
        19.500          22.000
                  -1276938.322 5   -995016.243 5  23507414.438    23507414.031
         9.750           8.750
 95  4 24 15  0 30.0000000  0  8G14G18G19G22G27G28G29G31
                   1164246.997 5    907204.297 5  23545699.859    23545702.141
         8.250           8.250
                   -679910.251 7   -529799.801 6  20462441.125    20462440.410
        23.000          20.750
                   -760174.106 6   -592343.781 6  21534892.688    21534893.047
        17.250          17.500
                   1050533.971 5    818598.447 5  23623749.180    23623750.219
         9.750           9.250
                  -1173995.260 3   -914801.176 5  24184455.438    24184456.281
         5.000           6.500
                   -709563.079 5   -552905.440 5  23478676.219    23478676.949
        10.000          10.500
                    -56890.774 6    -44331.037 6  20638159.750    20638159.496
        19.500          21.750
                  -1327930.503 5  -1034750.370 5  23497709.617    23497709.938
         9.000           8.500
 95  4 24 15  0 45.0000000  0  8G14G18G19G22G27G28G29G31
                   1209544.384 5    942500.915 5  23554319.117    23554321.738
         8.250           8.250
                   -705091.384 7   -549421.457 6  20457649.352    20457648.621
        22.750          20.500
                   -789058.852 6   -614851.365 6  21529396.172    21529396.508
        17.500          17.500
                   1091642.065 5    850630.720 5  23631572.453    23631572.848
        10.750           9.250
                  -1219285.439 3   -950092.209 5  24175836.875    24175837.816
         5.000           7.000
                   -735653.956 5   -573235.964 5  23473711.156    23473712.020
        10.250          10.500
                    -57834.241 6    -45066.199 6  20637980.484    20637980.078
        19.750          21.750
                  -1378895.018 5  -1074462.955 5  23488010.445    23488011.469
         8.750           8.500
 95  4 24 15  1  0.0000000  0  8G14G18G19G22G27G28G29G31
                   1254851.281 5    977804.957 5  23562941.242    23562943.152
         8.250           8.250
                   -730190.308 7   -568979.052 6  20452872.945    20452872.422
        22.250          20.250
                   -817910.379 6   -637333.064 6  21523905.930    21523906.184
        17.500          17.250
                   1132776.391 5    882683.439 5  23639400.656    23639400.219
        11.750           9.500
                  -1264574.144 3   -985382.100 5  24167218.500    24167219.965
         5.000           7.500
                   -761653.005 5   -593494.934 5  23468763.836    23468764.668
        10.500          10.500
                    -58699.593 7    -45740.500 6  20637815.883    20637815.348
        20.000          21.500
                  -1429836.998 5  -1114157.990 5  23478317.133    23478318.066
         9.000           8.500
 95  4 24 15  1 15.0000000  0  8G14G18G19G22G27G28G29G31
                   1300161.780 5   1013111.797 5  23571563.617    23571565.461
         8.000           8.250
                   -755208.606 7   -588473.822 6  20448112.195    20448111.691
        22.250          20.250
                   -846733.088 6   -659792.306 6  21518421.203    21518421.441
        17.500          17.500
                   1173935.838 6    914755.737 5  23647233.078    23647232.602
        12.250           9.750
                  -1309862.790 3  -1020671.935 5  24158600.680    24158602.027
         5.500           8.000
                   -787561.224 5   -613683.132 5  23463833.703    23463834.621
        10.500          10.500
                    -59487.280 7    -46354.276 6  20637665.984    20637665.434
        20.250          21.500
                  -1480756.845 5  -1153835.778 5  23468628.313    23468628.758
         9.500           8.500
 95  4 24 15  1 30.0000000  0  8G14G18G19G22G27G28G29G31
                   1345474.860 5   1048420.640 5  23580186.766    23580187.895
         7.750           8.000
                   -780147.502 7   -607906.723 6  20443366.594    20443365.871
        22.250          20.000
                   -875531.230 6   -682232.406 6  21512940.922    21512941.184
        17.500          17.500
                   1215120.268 6    946847.495 5  23655069.945    23655069.898
        12.000          10.000
                  -1355148.772 4  -1055959.699 5  24149983.516    24149984.777
         6.250           8.750
                   -813378.476 5   -633800.441 5  23458921.070    23458921.730
        10.750          10.500
                    -60197.178 7    -46907.441 6  20637531.000    20637530.234
        20.500          21.500
                  -1531652.924 5  -1193495.044 5  23458943.406    23458943.613
         9.500           8.250
 95  4 24 15  1 45.0000000  0  8G14G18G19G22G27G28G29G31
                   1390789.780 5   1083730.926 5  23588810.055    23588811.484
         7.750           8.000
                   -805007.747 7   -627278.333 6  20438635.820    20438635.191
        22.500          20.000
                   -904305.757 6   -704654.100 6  21507465.266    21507465.684
        17.500          17.500
                   1256329.019 5    978958.190 5  23662911.484    23662911.617
        11.250          10.000
                  -1400432.792 4  -1091245.926 5  24141365.719    24141367.293
         6.500           9.000
                   -839104.181 5   -653846.418 5  23454025.648    23454026.016
        11.000          10.250
                    -60827.629 7    -47398.700 6  20637410.703    20637410.191
        20.500          21.250
                  -1582524.903 5  -1233135.526 5  23449262.641    23449262.820
         9.000           8.000
 95  4 24 15  2  0.0000000  0  8G14G18G19G22G27G28G29G31
                   1436104.449 5   1119041.017 5  23597433.320    23597434.828
         8.000           8.250
                   -829795.878 7   -646593.754 6  20433918.914    20433918.273
        22.750          20.250
                   -933059.991 6   -727059.987 6  21501993.422    21501993.789
        17.500          17.500
                   1297559.699 5   1011085.973 5  23670757.422    23670757.797
        11.250          10.000
                  -1445717.499 4  -1126532.681 5  24132748.859    24132750.066
         7.250           9.250
                   -864739.612 5   -673822.055 5  23449147.289    23449147.566
        10.750          10.250
                    -61377.631 7    -47827.270 6  20637306.102    20637305.590
        20.000          21.500
                  -1633375.165 5  -1272759.090 5  23439585.406    23439585.727
         8.500           7.750
 95  4 24 15  2 15.0000000  0  8G14G18G19G22G27G28G29G31
                   1481416.791 5   1154349.293 5  23606055.242    23606057.855
         7.750           8.250
                   -854511.506 7   -665852.677 6  20429215.758    20429215.074
        23.000          20.000
                   -961794.465 6   -749450.470 6  21496525.531    21496525.961
        17.500          17.750
                   1338810.313 5   1043229.286 5  23678607.547    23678607.570
        11.250          10.000
                  -1491002.940 5  -1161820.016 5  24124131.727    24124132.699
         7.750           9.500
                   -890284.430 5   -693727.092 5  23444286.500    23444286.645
        10.750          10.250
                    -61847.794 6    -48193.630 6  20637216.500    20637216.242
        19.500          21.500
                  -1684205.206 5  -1312366.893 5  23429912.289    23429913.375
         8.250           8.000
 95  4 24 15  2 30.0000000  0  8G14G18G19G22G27G28G29G31
                   1526731.492 4   1189659.398 5  23614677.539    23614680.852
         7.250           8.000
                   -879149.055 7   -685050.759 6  20424527.266    20424526.438
        23.250          20.250
                   -990504.819 6   -771822.162 6  21491062.063    21491062.480
        17.500          17.500
                   1380087.802 5   1075393.544 5  23686462.516    23686462.453
        11.250           9.750
                  -1536284.529 5  -1197104.349 5  24115514.852    24115515.926
         8.000           9.250
                   -915733.452 5   -713557.480 5  23439443.742    23439443.934
        10.750          10.250
                    -62235.808 6    -48495.977 6  20637142.453    20637142.445
        19.000          21.500
                  -1735012.121 5  -1351956.676 5  23420243.805    23420245.367
         8.250           8.250
 95  4 24 15  2 45.0000000  0  8G14G18G19G22G27G28G29G31
                   1572046.007 5   1224969.364 5  23623301.234    23623303.582
         7.500           7.750
                   -903708.803 7   -704188.226 6  20419853.813    20419852.844
        23.500          20.000
                  -1019190.445 6   -794174.586 6  21485603.320    21485603.723
        17.750          17.750
                   1421392.690 5   1107579.163 5  23694322.320    23694322.539
        11.000           9.250
                  -1581563.291 5  -1232386.475 5  24106898.461    24106899.770
         8.000           9.000
                   -941087.080 5   -733313.538 5  23434619.086    23434618.996
        10.750          10.000
                    -62546.691 6    -48738.219 6  20637083.227    20637083.289
        18.750          21.500
                  -1785799.658 5  -1391531.362 5  23410579.672    23410581.016
         8.250           8.500
 95  4 24 15  3  0.0000000  0  8G14G18G19G22G27G28G29G31
                   1617358.101 5   1260277.441 5  23631924.172    23631926.328
         7.500           7.750
                   -928191.431 7   -723265.585 6  20415194.891    20415194.051
        23.500          20.000
                  -1047852.557 6   -816508.684 6  21480149.227    21480149.477
        17.750          17.750
                   1462720.400 5   1139782.559 5  23702186.508    23702186.398
        10.500           8.750
                  -1626841.150 5  -1267667.895 5  24098282.672    24098283.602
         8.000           8.750
                   -966347.079 5   -752996.639 5  23429812.359    23429811.918
        11.000          10.000
                    -62781.420 6    -48921.119 6  20637038.633    20637038.680
        18.750          21.500
                  -1836571.071 5  -1431093.477 5  23400918.477    23400919.270
         9.000           8.750
 95  4 24 15  3 15.0000000  0  8G14G18G19G22G27G28G29G31
                   1662668.511 5   1295584.210 5  23640547.273    23640548.020
         8.000           7.500
                   -952596.826 7   -742282.771 6  20410550.617    20410549.855
        23.500          20.250
                  -1076491.633 6   -838824.837 6  21474699.430    21474699.699
        17.500          17.750
                   1504070.269 5   1172003.229 5  23710055.141    23710055.047
        10.250           8.500
                  -1672121.055 5  -1302950.911 5  24089666.133    24089666.789
         7.500           8.250
                   -991512.731 5   -772606.229 5  23425023.563    23425022.957
        11.250           9.750
                    -62935.560 6    -49041.223 6  20637009.563    20637009.324
        19.000          21.500
                  -1887322.688 5  -1470640.164 5  23391261.094    23391261.012
         9.250           8.500
 95  4 24 15  3 30.0000000  0  8G14G18G19G22G27G28G29G31
                   1707979.412 5   1330891.356 5  23649168.984    23649170.805
         7.750           7.500
                   -976924.991 7   -761239.775 6  20405921.313    20405920.516
        23.750          20.500
                  -1105108.273 6   -861123.504 6  21469253.922    21469254.215
        17.250          17.750
                   1545443.344 5   1204241.988 5  23717928.344    23717927.809
        10.250           8.500
                  -1717403.148 5  -1338235.630 5  24081049.000    24081049.355
         7.500           7.750
                  -1016584.041 5   -792142.302 5  23420252.898    23420251.969
        11.750           9.500
                    -63007.298 6    -49097.117 6  20636996.078    20636995.793
        19.750          21.500
                  -1938052.382 5  -1510169.781 5  23381607.258    23381607.469
         9.500           8.500
 95  4 24 15  3 45.0000000  0  8G14G18G19G22G27G28G29G31
                   1753294.223 5   1366201.559 5  23657791.898    23657794.543
         7.750           7.500
                  -1001171.301 7   -780133.002 6  20401307.547    20401306.723
        23.500          20.250
                  -1133695.417 6   -883399.189 6  21463813.992    21463814.375
        17.250          17.750
                   1586842.072 5   1236500.739 5  23725806.516    23725806.305
        10.000           8.750
                  -1762682.192 4  -1373517.975 5  24072432.539    24072433.168
         7.000           7.500
                  -1041556.977 6   -811601.720 5  23415500.625    23415499.898
        12.000           9.250
                    -62991.715 7    -49084.971 6  20636999.164    20636998.738
        20.250          21.250
                  -1988757.742 5  -1549680.433 5  23371957.695    23371958.988
         9.000           8.750
 95  4 24 15  4  0.0000000  0  8G14G18G19G22G27G28G29G31
                   1798606.695 5   1401509.939 5  23666414.523    23666417.805
         7.750           8.000
                  -1025337.350 7   -798963.684 6  20396708.523    20396707.910
        23.500          20.500
                  -1162254.127 6   -905652.715 6  21458379.516    21458379.707
        17.500          18.250
                   1628260.944 5   1268775.178 5  23733687.914    23733688.441
         9.500           9.250
                  -1807962.720 4  -1408801.476 5  24063816.258    24063816.484
         6.750           7.500
                  -1066435.597 6   -830987.640 5  23410766.406    23410765.719
        12.250           9.250
                    -62889.985 7    -49005.694 6  20637018.664    20637018.191
        21.000          22.000
                  -2039443.499 5  -1589175.812 5  23362312.984    23362314.227
         8.750           9.000
 95  4 24 15  4 15.0000000  0  8G14G18G19G22G27G28G29G31
                   1843921.066 5   1436819.796 5  23675038.172    23675040.848
         8.000           8.000
                  -1049414.683 7   -817725.234 6  20392126.898    20392126.152
        23.250          20.500
                  -1190780.299 6   -927880.890 6  21452951.258    21452951.328
        18.000          18.000
                   1669702.175 5   1301067.026 5  23741573.789    23741574.527
         9.000           9.750
                  -1853239.691 4  -1444082.209 5  24055200.250    24055200.422
         6.500           7.500
                  -1091215.332 6   -850296.501 5  23406050.914    23406050.137
        12.500           9.250
                    -62697.139 7    -48855.426 6  20637055.242    20637054.617
        21.250          22.000
                  -2090102.965 5  -1628650.703 5  23352673.055    23352673.992
         9.000           9.000
 95  4 24 15  4 30.0000000  0  8G14G18G19G22G27G28G29G31
                   1889242.934 5   1472135.499 5  23683662.453    23683665.664
         7.750           8.000
                  -1073394.649 7   -836410.919 6  20387563.547    20387562.863
        23.000          20.250
                  -1219268.815 6   -950079.723 6  21447529.984    21447530.078
        18.000          18.000
                   1711169.886 5   1333379.511 5  23749464.758    23749465.730
         9.000          10.000
                  -1898506.070 4  -1479354.695 5  24046586.141    24046586.402
         6.500           7.500
                  -1115890.537 6   -869523.918 5  23401355.219    23401354.539
        12.250           9.000
                    -62407.761 7    -48629.940 6  20637110.383    20637109.746
        20.750          21.750
                  -2140729.644 5  -1668100.041 5  23343039.180    23343039.551
         9.000           8.500
 95  4 24 15  4 45.0000000  0  8G14G18G19G22G27G28G29G31
                   1934570.676 5   1507455.766 5  23692288.359    23692291.797
         8.000           8.000
                  -1097280.754 7   -855023.460 6  20383018.141    20383017.535
        23.000          20.500
                  -1247723.047 6   -972251.845 6  21442115.258    21442115.344
        18.000          17.750
                   1752660.235 5   1365709.637 5  23757360.234    23757360.961
         9.500          10.000
                  -1943763.847 4  -1514620.481 5  24037973.984    24037974.406
         6.750           7.750
                  -1140463.792 6   -888671.887 5  23396678.984    23396678.191
        12.000           9.000
                    -62020.977 7    -48328.546 6  20637183.805    20637183.488
        20.000          21.750
                  -2191325.382 5  -1707525.268 5  23333410.922    23333411.160
         9.000           8.000
 95  4 24 15  5  0.0000000  0  8G14G18G19G22G27G28G29G31
                   1979905.106 5   1542781.248 5  23700915.516    23700918.031
         8.000           7.500
                  -1121072.186 7   -873562.232 6  20378490.813    20378490.215
        22.750          20.500
                  -1276138.472 6   -994393.729 6  21436707.938    21436708.141
        18.000          17.750
                   1794173.522 5   1398057.641 5  23765260.313    23765260.672
        10.000           9.500
                  -1989009.774 4  -1549877.029 5  24029363.633    24029364.145
         6.750           7.750
                  -1164932.393 5   -907738.310 5  23392022.703    23392021.879
        11.750           8.750
                    -61530.515 6    -47946.370 6  20637276.758    20637276.590
        19.250          21.750
                  -2241884.480 5  -1746921.948 5  23323789.625    23323790.234
         9.250           8.250
 95  4 24 15  5 15.0000000  0  8G14G18G19G22G27G28G29G31
                   2025250.131 5   1578114.986 5  23709543.492    23709546.453
         7.750           7.750
                  -1144767.298 7   -892025.950 6  20373981.820    20373981.328
        22.750          20.500
                  -1304510.992 6  -1016502.172 6  21431308.820    21431309.148
        18.000          17.750
                   1835714.112 5   1430426.929 5  23773165.227    23773165.273
        10.000           9.250
                  -2034240.926 5  -1585122.069 5  24020756.883    24020756.996
         7.500           8.250
                  -1189292.849 5   -926720.467 5  23387386.906    23387386.219
        11.500           9.000
                    -60929.638 6    -47478.137 6  20637390.977    20637391.086
        18.750          21.500
                  -2292400.869 5  -1786285.342 5  23314176.781    23314177.910
         9.500           8.250
 95  4 24 15  5 30.0000000  0  8G14G18G19G22G27G28G29G31
                   2070601.958 5   1613454.013 5  23718173.680    23718176.121
         7.500           7.500
                  -1168368.842 7   -910416.754 6  20369490.617    20369490.066
        22.500          20.250
                  -1332841.932 6  -1038578.222 6  21425917.688    21425917.969
        17.750          17.750
                   1877281.997 5   1462817.485 5  23781075.086    23781075.445
         9.750           9.000
                  -2079457.209 5  -1620355.517 5  24012152.539    24012152.848
         7.750           8.500
                  -1213546.537 5   -945619.424 5  23382771.570    23382771.000
        11.250           9.250
                    -60223.883 6    -46928.193 6  20637525.563    20637525.484
        18.750          21.250
                  -2342875.255 5  -1825616.027 5  23304572.063    23304573.066
         9.750           8.500
 95  4 24 15  5 45.0000000  0  8G14G18G19G22G27G28G29G31
                   2115960.475 5   1648798.258 5  23726805.219    23726806.961
         7.500           7.000
                  -1191875.519 7   -928733.637 6  20365017.398    20365016.813
        22.750          20.000
                  -1361129.175 6  -1060620.225 6  21420534.648    21420535.039
        17.750          18.250
                   1918878.204 5   1495230.109 5  23788990.406    23788991.215
         9.750           8.750
                  -2124655.960 5  -1655575.322 5  24003551.586    24003551.770
         8.250           9.000
                  -1237691.557 5   -964433.708 5  23378176.953    23378176.613
        11.250           9.500
                    -59414.417 7    -46297.435 6  20637679.836    20637679.293
        20.000          21.000
                  -2393307.462 5  -1864913.839 5  23294974.828    23294975.688
         9.250           8.500
 95  4 24 15  6  0.0000000  0  8G14G18G19G22G27G28G29G31
                   2161324.727 4   1684146.988 5  23735436.656    23735439.578
         6.500           6.750
                  -1215286.410 7   -946975.884 6  20360562.484    20360561.684
        22.750          20.250
                  -1389373.917 6  -1082629.100 6  21415159.969    21415160.320
        17.750          18.250
                   1960504.302 5   1527666.017 5  23796911.719    23796912.352
         9.750           8.750
                  -2169840.164 5  -1690783.778 5  23994953.531    23994953.969
         8.250           9.250
                  -1261728.982 5   -983164.151 5  23373602.672    23373602.707
        11.000          10.250
                    -58505.323 7    -45589.044 6  20637852.875    20637852.195
        20.000          20.750
                  -2443698.565 5  -1904179.616 5  23285385.516    23285386.191
         9.000           8.750
 95  4 24 15  6 15.0000000  0  8G14G18G19G22G27G28G29G31
                   2206703.168 4   1719506.747 5  23744072.563    23744075.461
         6.500           7.250
                  -1238595.456 7   -965138.771 6  20356127.031    20356126.512
        22.500          20.250
                  -1417575.073 6  -1104604.016 6  21409793.484    21409793.855
        17.750          18.250
                   2002166.882 5   1560130.352 5  23804839.844    23804840.484
         9.500           8.750
                  -2215005.983 5  -1725977.910 5  23986358.547    23986359.055
         8.250           9.750
                  -1285652.887 5  -1001806.142 5  23369050.266    23369050.277
        11.250          10.250
                    -57491.442 7    -44799.013 6  20638045.969    20638044.996
        21.000          20.750
                  -2494039.702 5  -1943406.445 5  23275805.992    23275806.391
         9.250           9.000
 95  4 24 15  6 30.0000000  0  8G14G18G19G22G27G28G29G31
                   2252096.398 4   1754878.039 5  23752711.992    23752714.672
         6.750           7.500
                  -1261807.223 7   -983225.855 6  20351709.867    20351709.656
        22.500          20.250
                  -1445736.483 6  -1126547.964 6  21404434.406    21404434.777
        17.750          18.250
                   2043864.930 5   1592622.334 5  23812774.719    23812774.969
         9.250           8.750
                  -2260154.547 5  -1761158.589 5  23977766.797    23977767.770
         8.000          10.000
                  -1309464.826 5  -1020360.882 5  23364519.047    23364518.887
        11.500          10.500
                    -56377.553 7    -43931.058 6  20638258.008    20638256.988
        21.500          20.750
                  -2544333.288 5  -1982596.216 5  23266235.820    23266236.000
         9.500           9.500
 95  4 24 15  6 45.0000000  0  8G14G18G19G22G27G28G29G31
                   2297505.155 4   1790261.426 5  23761353.000    23761356.289
         6.750           7.750
                  -1284925.170 7  -1001239.831 6  20347310.461    20347310.223
        22.500          20.250
                  -1473858.284 6  -1148461.045 6  21399083.039    21399083.359
        18.000          18.250
                   2085598.506 5   1625141.996 5  23820716.422    23820716.789
         9.000           9.000
                  -2305289.200 5  -1796328.423 5  23969177.984    23969179.215
         7.750          10.000
                  -1333165.101 5  -1038828.616 5  23360009.195    23360008.941
        11.750          10.500
                    -55165.024 7    -42986.238 6  20638488.727    20638487.848
        21.250          20.750
                  -2594582.204 5  -2021751.173 5  23256673.672    23256674.262
         9.500           9.500
 95  4 24 15  7  0.0000000  0  8G14G18G19G22G27G28G29G31
                   2342931.255 4   1825658.339 5  23769996.563    23770000.207
         7.000           7.250
                  -1307944.772 7  -1019177.178 6  20342929.953    20342929.492
        22.750          20.250
                  -1501935.584 6  -1170339.449 6  21393740.063    21393740.332
        18.000          18.500
                   2127374.714 5   1657694.874 5  23828666.195    23828666.711
         9.250           9.750
                  -2350407.978 4  -1831485.891 5  23960592.188    23960593.512
         7.250          10.000
                  -1356748.957 6  -1057205.628 5  23355521.438    23355521.012
        12.000          10.500
                    -53852.312 7    -41963.346 6  20638738.281    20638737.699
        20.500          21.000
                  -2644780.960 5  -2060867.059 5  23247120.859    23247121.977
         9.250           9.250
 95  4 24 15  7 15.0000000  0  8G14G18G19G22G27G28G29G31
                   2388376.086 4   1861069.862 5  23778644.695    23778648.070
         7.000           7.250
                  -1330864.457 7  -1037036.665 6  20338568.719    20338567.996
        23.000          20.250
                  -1529969.349 6  -1192183.930 6  21388405.523    21388405.887
        18.000          18.250
                   2169194.567 5   1690281.747 5  23836624.406    23836624.965
         9.500          10.500
                  -2395513.010 4  -1866632.650 5  23952008.969    23952010.160
         7.000           9.500
                  -1380215.376 6  -1075491.135 5  23351055.938    23351055.449
        12.250          10.500
                    -52440.164 6    -40862.971 6  20639006.797    20639006.652
        19.750          21.500
                  -2694927.979 5  -2099942.639 5  23237578.375    23237578.961
         9.500           8.750
 95  4 24 15  7 30.0000000  0  8G14G18G19G22G27G28G29G31
                   2433838.917 4   1896495.396 5  23787296.492    23787298.965
         7.250           7.500
                  -1353682.263 7  -1054816.771 6  20334226.625    20334226.027
        23.000          20.250
                  -1557963.751 6  -1213997.739 6  21383078.398    21383078.699
        17.500          18.250
                   2211057.523 5   1722902.223 5  23844590.555    23844591.551
         9.750          11.000
                  -2440605.784 4  -1901769.858 5  23943427.820    23943429.129
         6.750           8.750
                  -1403564.577 6  -1093685.304 5  23346612.656    23346612.234
        12.000          10.500
                    -50931.207 6    -39687.155 6  20639293.828    20639293.863
        19.250          21.500
                  -2745022.818 5  -2138977.562 5  23228045.875    23228045.617
         9.750           8.250
 95  4 24 15  7 45.0000000  0  8G14G18G19G22G27G28G29G31
                   2479319.775 4   1931934.977 5  23795951.172    23795953.125
         7.000           7.000
                  -1376398.087 7  -1072517.406 6  20329903.742    20329903.391
        22.750          20.000
                  -1585921.221 6  -1235782.770 6  21377758.453    21377758.660
        17.500          17.750
                   2252961.327 5   1755554.520 5  23852564.578    23852565.742
         9.500          11.000
                  -2485689.423 4  -1936899.960 5  23934848.758    23934849.875
         6.500           8.000
                  -1426796.000 5  -1111787.702 5  23342191.805    23342191.359
        11.750          10.500
                    -49323.489 6    -38434.383 6  20639599.820    20639599.898
        19.000          21.500
                  -2795063.245 5  -2177970.077 5  23218523.461    23218523.387
        10.000           8.250
 95  4 24 15  8  0.0000000  0  8G14G18G19G22G27G28G29G31
                   2524821.308 4   1967390.656 5  23804609.656    23804610.934
         7.000           6.750
                  -1399009.526 7  -1090136.695 6  20325601.109    20325600.727
        23.000          20.500
                  -1613841.598 6  -1257538.901 6  21372445.188    21372445.324
        17.500          18.000
                   2294905.340 5   1788238.142 5  23860546.313    23860547.340
         9.250          11.000
                  -2530764.615 4  -1972023.476 5  23926271.219    23926272.227
         6.500           7.750
                  -1449908.138 5  -1129797.146 5  23337793.609    23337793.520
        11.750          10.750
                    -47613.082 6    -37101.593 6  20639925.570    20639925.371
        19.500          21.750
                  -2845044.885 5  -2216916.789 5  23209011.656    23209012.738
        10.000           8.500
 95  4 24 15  8 15.0000000  0  8G14G18G19G22G27G28G29G31
                   2570341.461 5   2002860.853 5  23813272.961    23813272.805
         7.750           6.750
                  -1421516.839 7  -1107674.860 6  20321318.195    20321317.566
        22.750          20.250
                  -1641726.704 6  -1279267.547 6  21367138.703    21367139.035
        17.250          17.750
                   2336884.613 5   1820949.249 5  23868534.656    23868535.418
         9.000          10.250
                  -2575832.202 4  -2007141.073 5  23917694.961    23917696.066
         6.500           7.250
                  -1472902.073 5  -1147714.487 5  23333417.875    23333417.855
        11.750          10.750
                    -45798.601 7    -35687.709 6  20640271.102    20640270.656
        20.250          21.500
                  -2894967.868 5  -2255817.792 5  23199511.703    23199513.191
        10.000           8.750
 95  4 24 15  8 30.0000000  0  8G14G18G19G22G27G28G29G31
                   2615880.307 5   2038345.616 5  23821938.875    23821939.027
         8.000           6.750
                  -1443921.685 7  -1125133.178 6  20317054.523    20317054.020
        22.250          20.500
                  -1669573.789 6  -1300966.567 6  21361839.641    21361840.031
        17.500          18.000
                   2378895.464 5   1853684.970 5  23876529.109    23876529.461
         9.000           9.500
                  -2620887.347 4  -2042248.972 5  23909121.227    23909121.805
         6.750           6.750
                  -1495775.305 5  -1165537.776 5  23329065.297    23329065.098
        11.750          10.500
                    -43874.378 7    -34188.315 6  20640637.430    20640636.676
        21.000          21.250
                  -2944830.767 5  -2294671.989 5  23190023.664    23190024.672
        10.250           9.000
 95  4 24 15  8 45.0000000  0  8G14G18G19G22G27G28G29G31
                   2661439.155 5   2073845.961 5  23830607.430    23830609.527
         7.500           7.250
                  -1466223.675 7  -1142511.344 6  20312810.258    20312810.293
        21.750          20.500
                  -1697378.409 6  -1322632.498 6  21356548.414    21356548.816
        17.500          18.250
                   2420939.681 5   1886446.698 5  23884529.859    23884530.254
         9.000           9.000
                  -2665926.355 4  -2077344.292 5  23900550.742    23900550.934
         7.000           6.500
                  -1518524.731 5  -1183264.592 5  23324736.328    23324736.055
        11.750          10.500
                    -41839.745 7    -32602.892 6  20641024.477    20641023.676
        21.250          21.000
                  -2994632.713 5  -2333478.677 5  23180546.859    23180547.301
        10.250           9.000
 95  4 24 15  9  0.0000000  0  8G14G18G19G22G27G28G29G31
                   2707015.717 5   2109360.103 5  23839279.688    23839283.203
         7.500           7.500
                  -1488422.553 7  -1159809.166 6  20308585.875    20308585.969
        21.250          20.250
                  -1725138.330 6  -1344263.598 6  21351265.781    21351266.281
        17.500          18.250
                   2463016.493 5   1919233.832 5  23892536.773    23892537.375
         9.000           8.750
                  -2710949.227 4  -2112427.035 5  23891982.859    23891983.672
         7.000           6.500
                  -1541150.397 5  -1200894.970 5  23320430.898    23320430.641
        11.750          10.500
                    -39694.998 7    -30931.668 6  20641432.602    20641431.730
        21.250          21.000
                  -3044371.378 5  -2372236.053 5  23171081.289    23171082.082
         9.750           9.000
 95  4 24 15  9 15.0000000  0  8G14G18G19G22G27G28G29G31
                   2752610.034 5   2144888.086 5  23847956.156    23847960.027
         7.500           7.500
                  -1510518.991 7  -1177027.163 6  20304381.336    20304381.273
        21.250          20.500
                  -1752852.973 6  -1365859.416 6  21345991.734    21345992.348
        17.500          18.500
                   2505124.654 5   1952045.383 5  23900549.633    23900550.539
         9.000           9.250
                  -2755951.988 4  -2147494.108 5  23883419.578    23883420.031
         7.250           6.500
                  -1563652.335 6  -1218428.931 5  23316149.086    23316148.633
        12.000          10.500
                    -37438.969 7    -29173.729 6  20641861.891    20641861.141
        21.000          21.000
                  -3094043.154 5  -2410941.298 5  23161628.672    23161629.918
         9.500           9.250
 95  4 24 15  9 30.0000000  0  8G14G18G19G22G27G28G29G31
                   2798225.530 4   2180432.578 5  23856636.375    23856640.512
         7.250           7.500
                  -1532510.854 7  -1194163.674 6  20300196.391    20300196.246
        21.000          20.250
                  -1780518.821 6  -1387417.210 6  21340727.305    21340727.805
        17.500          18.750
                   2547261.840 5   1984879.539 5  23908568.070    23908569.090
         9.250           9.250
                  -2800930.990 4  -2182542.666 5  23874860.305    23874860.566
         7.250           6.750
                  -1586029.193 5  -1235865.434 5  23311890.773    23311890.125
        11.750          10.250
                    -35068.307 7    -27326.465 6  20642312.969    20642312.457
        20.500          21.000
                  -3143648.920 5  -2449595.110 5  23152189.750    23152190.852
        10.000           9.750
 95  4 24 15  9 45.0000000  0  8G14G18G19G22G27G28G29G31
                   2843863.900 4   2215994.885 5  23865321.539    23865323.871
         7.000           7.000
                  -1554396.795 7  -1211217.643 6  20296031.305    20296031.473
        20.750          20.250
                  -1808131.584 6  -1408933.635 6  21335472.766    21335473.305
        17.250          18.750
                   2589429.068 5   2017737.110 5  23916592.383    23916593.137
        10.000           9.250
                  -2845879.404 4  -2217567.380 5  23866306.586    23866307.027
         7.000           6.750
                  -1608278.489 6  -1253202.530 5  23307656.859    23307656.391
        12.000          10.250
                    -32582.152 7    -25389.197 6  20642785.984    20642785.566
        20.250          21.000
                  -3193186.738 5  -2488195.976 5  23142763.461    23142764.258
        10.750          10.000
 95  4 24 15 10  0.0000000  0  8G14G18G19G22G27G28G29G31
                   2889528.102 5   2251577.316 5  23874012.766    23874013.598
         7.750           7.000
                  -1576178.182 7  -1228190.143 6  20291886.500    20291886.500
        20.750          20.000
                  -1835688.945 6  -1430406.899 6  21330228.813    21330229.020
        17.250          18.250
                   2631626.015 5   2050617.840 5  23924622.547    23924623.066
        10.500           9.250
                  -2890794.537 4  -2252566.153 5  23857759.531    23857760.398
         7.250           7.250
                  -1630399.821 6  -1270439.922 5  23303447.281    23303446.980
        12.000          10.500
                    -29979.936 7    -23361.497 6  20643281.094    20643280.645
        20.250          20.750
                  -3242660.201 5  -2526746.707 5  23133349.039    23133349.719
        10.750          10.000
 95  4 24 15 10 15.0000000  0  8G14G18G19G22G27G28G29G31
                   2935216.922 5   2287178.944 5  23882707.039    23882707.422
         7.500           7.000
                  -1597853.787 7  -1245080.217 6  20287762.016    20287761.738
        21.250          20.000
                  -1863189.863 6  -1451836.172 6  21324995.727    21324995.820
        17.250          18.000
                   2673853.156 5   2083522.094 5  23932658.289    23932658.195
        10.500           9.000
                  -2935673.931 4  -2287537.073 5  23849219.078    23849220.707
         7.250           8.000
                  -1652393.606 6  -1287577.919 5  23299262.063    23299261.840
        12.000          10.750
                    -27264.145 7    -21245.294 6  20643798.180    20643797.371
        20.500          21.000
                  -3292073.831 5  -2565250.806 5  23123945.070    23123945.867
        10.250           9.250
 95  4 24 15 10 30.0000000  0  8G14G18G19G22G27G28G29G31
                   2980931.381 4   2322800.534 5  23891405.953    23891406.641
         7.250           6.750
                  -1619425.180 7  -1261889.091 6  20283657.156    20283656.883
        21.250          19.750
                  -1890631.623 6  -1473219.357 6  21319773.758    21319773.594
        17.250          17.250
                   2716112.687 5   2116451.597 5  23940699.883    23940699.969
        10.000           8.750
                  -2980516.643 5  -2322479.418 5  23840686.250    23840687.406
         7.500           8.000
                  -1674258.567 5  -1304615.541 5  23295101.156    23295101.000
        11.750          10.750
                    -24437.187 7    -19042.468 6  20644336.195    20644335.402
        20.500          20.500
                  -3341429.773 5  -2603709.967 5  23114552.586    23114552.832
        10.000           8.500
 95  4 24 15 10 45.0000000  0  8G14G18G19G22G27G28G29G31
                   3026671.596 4   2358442.212 5  23900108.992    23900110.715
         6.750           6.500
                  -1640893.166 7  -1278617.384 6  20279572.016    20279571.816
        21.750          20.250
                  -1918013.307 6  -1494555.731 6  21314563.305    21314563.090
        17.750          17.750
                   2758408.171 5   2149409.105 5  23948748.336    23948748.520
         9.250           8.750
                  -3025324.444 5  -2357394.556 5  23832159.469    23832160.820
         7.500           8.250
                  -1695995.048 5  -1321553.050 5  23290964.711    23290964.766
        11.750          11.000
                    -21503.008 7    -16756.096 6  20644894.500    20644893.738
        20.750          21.000
                  -3390729.287 5  -2642125.145 5  23105171.961    23105171.359
        10.250           8.500
 95  4 24 15 11  0.0000000  0  8G14G18G19G22G27G28G29G31
                   3072438.849 4   2394104.955 5  23908818.359    23908821.043
         6.750           7.000
                  -1662249.501 7  -1295258.676 6  20275507.992    20275507.621
        22.000          20.250
                  -1945330.995 6  -1515842.237 6  21309365.148    21309364.875
        18.000          18.000
                   2800742.595 5   2182396.941 5  23956803.961    23956804.465
         8.500           8.750
                  -3070097.754 5  -2392282.824 5  23823639.070    23823640.594
         8.000           8.250
                  -1717601.288 5  -1338389.070 5  23286853.133    23286853.297
        11.500          11.250
                    -18462.874 7    -14387.165 6  20645472.852    20645472.438
        20.750          21.250
                  -3439969.628 5  -2680494.214 5  23095802.203    23095801.750
        10.250           8.750
 95  4 24 15 11 15.0000000  0  8G14G18G19G22G27G28G29G31
                   3118233.615 4   2429789.114 5  23917532.672    23917536.430
         6.750           7.500
                  -1683490.159 7  -1311809.833 6  20271466.203    20271465.805
        22.500          20.250
                  -1972583.912 6  -1537078.267 6  21304178.953    21304178.945
        18.000          18.250
                   2843116.398 5   2215415.455 5  23964867.523    23964868.027
         8.250           8.500
                  -3114837.180 5  -2427144.700 5  23815125.969    23815126.656
         8.000           8.250
                  -1739076.952 5  -1355123.343 5  23282766.586    23282766.469
        11.500          11.250
                    -15311.699 7    -11931.705 6  20646072.391    20646071.973
        20.250          21.250
                  -3489149.363 5  -2718816.061 5  23086442.867    23086443.844
        10.000           9.250
 95  4 24 15 11 30.0000000  0  8G14G18G19G22G27G28G29G31
                   3164054.779 4   2465493.841 5  23926252.953    23926255.359
         6.500           7.000
                  -1704612.285 7  -1328268.626 6  20267446.773    20267446.414
        22.500          20.250
                  -1999775.317 6  -1558266.364 6  21299004.469    21299004.727
        17.500          18.500
                   2885527.968 5   2248463.406 5  23972938.250    23972938.625
         8.250           8.000
                  -3159544.258 5  -2461981.374 5  23806618.406    23806619.336
         8.000           8.000
                  -1760422.148 5  -1371755.954 5  23278704.773    23278704.813
        11.500          11.000
                    -12045.811 7     -9386.858 6  20646693.828    20646693.418
        20.250          21.250
                  -3538271.156 5  -2757092.767 5  23077094.883    23077096.457
        10.000           9.500
 95  4 24 15 11 45.0000000  0  8G14G18G19G22G27G28G29G31
                   3209904.140 4   2501220.553 5  23934977.969    23934978.363
         6.250           5.750
                  -1725609.251 7  -1344629.893 6  20263451.258    20263450.969
        22.500          20.500
                  -2026904.247 6  -1579405.776 6  21293841.813    21293842.395
        17.250          19.000
                   2927983.456 5   2281545.590 5  23981017.328    23981017.746
         8.250           7.500
                  -3204215.470 5  -2496790.107 5  23798117.805    23798118.410
         8.000           8.250
                  -1781632.457 5  -1388283.456 5  23274668.477    23274668.555
        11.250          11.000
                     -8660.723 7     -6749.127 6  20647338.039    20647337.492
        20.000          21.250
                  -3587330.821 5  -2795321.060 5  23067759.516    23067760.293
        10.500           9.250
 95  4 24 15 12  0.0000000  0  8G14G18G19G22G27G28G29G31
                   3255778.506 4   2536966.746 5  23943707.469    23943707.742
         6.250           5.500
                  -1746482.696 7  -1360894.909 6  20259478.953    20259478.793
        22.250          20.500
                  -2053975.758 6  -1600500.449 6  21288690.094    21288690.566
        17.500          18.750
                   2970484.839 5   2314663.539 5  23989105.039    23989105.082
         8.500           6.750
                  -3248855.477 5  -2531574.527 5  23789622.734    23789623.578
         7.500           8.250
                  -1802709.997 5  -1404707.506 5  23270657.750    23270657.523
        11.500          11.000
                     -5156.897 7     -4018.876 6  20648004.711    20648004.191
        20.250          21.250
                  -3636327.947 5  -2833500.611 5  23058436.156    23058435.898
        10.750           9.250
 95  4 24 15 12 15.0000000  0  8G14G18G19G22G27G28G29G31
                   3301675.434 4   2572730.527 5  23952441.414    23952441.336
         6.250           5.500
                  -1767228.321 7  -1377060.324 6  20255531.242    20255531.121
        22.250          20.500
                  -2080988.518 6  -1621549.341 6  21283549.797    21283550.230
        17.500          18.500
                   3013035.485 5   2347819.888 5  23997202.063    23997201.641
         8.500           6.000
                  -3293467.261 4  -2566336.954 5  23781133.547    23781134.203
         7.000           8.000
                  -1823652.443 5  -1421026.283 5  23266672.461    23266672.512
        11.250          11.250
                     -1531.175 7     -1193.633 6  20648694.789    20648694.102
        20.500          21.000
                  -3685258.801 5  -2871628.510 5  23049124.430    23049124.773
        10.500           9.500
 95  4 24 15 12 30.0000000  0  8G14G18G19G22G27G28G29G31
                   3347591.880 4   2608509.509 5  23961178.797    23961179.941
         6.500           5.750
                  -1787843.267 7  -1393123.913 6  20251608.305    20251608.094
        22.000          20.250
                  -2107940.657 6  -1642551.000 6  21278420.875    21278421.074
        17.750          18.000
                   3055636.618 5   2381015.588 5  24005308.953    24005308.367
         9.000           6.000
                  -3338049.345 4  -2601076.231 5  23772649.680    23772650.477
         6.500           8.000
                  -1844457.983 5  -1437238.384 5  23262713.063    23262713.043
        11.000          11.250
                      2217.310 7      1727.262 6  20649408.109    20649407.438
        20.750          20.750
                  -3734119.893 5  -2909702.059 5  23039825.555    23039827.184
        10.000          10.250
 95  4 24 15 12 45.0000000  0  8G14G18G19G22G27G28G29G31
                   3393524.121 3   2644300.794 5  23969918.805    23969921.473
         6.000           6.000
                  -1808330.791 7  -1409088.207 6  20247709.531    20247709.383
        21.750          20.250
                  -2134835.359 6  -1663507.906 6  21273303.031    21273303.047
        17.500          18.000
                   3098285.698 5   2414248.647 5  24013424.992    24013424.652
         9.500           7.000
                  -3382604.435 4  -2635794.488 5  23764171.180    23764172.074
         6.250           8.250
                  -1865128.453 5  -1453345.232 5  23258779.273    23258779.785
        10.750          11.250
                      6088.915 7      4744.095 6  20650145.164    20650144.273
        21.000          20.750
                  -3782908.803 5  -2947719.376 5  23030541.789    23030543.781
        10.000          10.750
 95  4 24 15 13  0.0000000  0  8G14G18G19G22G27G28G29G31
                   3439473.399 4   2680105.350 5  23978663.156    23978665.977
         6.750           5.750
                  -1828683.062 7  -1424947.112 6  20243836.734    20243836.453
        22.000          20.250
                  -2161671.409 6  -1684419.106 6  21268196.250    21268196.258
        17.500          18.000
                   3140983.205 5   2447519.434 5  24021550.391    24021550.207
        10.000           7.750
                  -3427128.402 3  -2670488.486 5  23755698.023    23755699.387
         6.000           8.250
                  -1885659.865 5  -1469343.722 5  23254872.320    23254872.945
        10.750          11.250
                     10090.173 7      7861.955 6  20650906.516    20650905.656
        20.750          20.500
                  -3831618.155 5  -2985674.696 5  23021273.234    23021274.813
        10.500          11.000
 95  4 24 15 13 15.0000000  0  8G14G18G19G22G27G28G29G31
                   3485435.387 4   2715919.851 5  23987410.266    23987412.723
         6.750           5.750
                  -1848903.481 7  -1440703.276 6  20239988.867    20239988.547
        21.750          19.750
                  -2188455.157 6  -1705289.553 6  21263099.641    21263099.695
        17.000          17.750
                   3183725.312 5   2480824.961 5  24029684.055    24029684.305
         9.750           8.500
                  -3471623.055 3  -2705159.627 5  23747230.984    23747232.109
         6.000           8.000
                  -1906053.677 5  -1485234.993 5  23250991.555    23250992.117
        10.750          11.000
                     14221.326 7     11081.031 6  20651692.547    20651691.637
        20.250          20.000
                  -3880247.419 5  -3023567.589 5  23012019.781    23012020.531
        10.750          10.250
 95  4 24 15 13 30.0000000  0  8G14G18G19G22G27G28G29G31
                   3531410.621 4   2751744.656 5  23996159.156    23996162.910
         6.750           6.250
                  -1868994.083 7  -1456358.286 6  20236165.883    20236165.500
        22.000          19.750
                  -2215188.372 6  -1726120.621 6  21258012.516    21258012.570
        17.250          18.250
                   3226514.605 5   2514167.250 5  24037826.266    24037826.773
         9.250           9.000
                  -3516085.683 4  -2739805.815 5  23738770.141    23738771.320
         6.250           8.250
                  -1926307.051 5  -1501016.831 5  23247137.625    23247137.484
        11.000          11.000
                     18487.331 7     14405.185 6  20652504.250    20652503.383
        20.250          20.250
                  -3928792.779 5  -3061395.115 5  23002781.586    23002781.730
        10.500           9.750
 95  4 24 15 13 45.0000000  0  8G14G18G19G22G27G28G29G31
                   3577397.337 4   2787578.404 5  24004908.672    24004913.773
         6.250           7.000
                  -1888958.422 7  -1471914.907 6  20232366.891    20232366.441
        22.250          19.500
                  -2241871.356 6  -1746912.547 6  21252935.094    21252935.152
        17.500          18.500
                   3269351.692 5   2547546.773 5  24045977.688    24045978.551
         8.750           9.250
                  -3560514.521 4  -2774425.673 5  23730315.219    23730316.902
         6.500           8.500
                  -1946420.202 5  -1516689.399 5  23243310.328    23243310.281
        11.500          11.000
                     22883.194 7     17830.537 6  20653340.766    20653339.988
        20.250          20.500
                  -3977253.922 5  -3099157.015 5  22993558.750    22993559.574
        10.000           9.500
 95  4 24 15 14  0.0000000  0  8G14G18G19G22G27G28G29G31
                   3623394.816 4   2823420.506 5  24013662.039    24013665.641
         6.500           7.000
                  -1908802.048 7  -1487377.464 6  20228590.719    20228590.230
        22.250          19.250
                  -2268503.785 6  -1767665.078 6  21247867.109    21247867.184
        17.500          18.750
                   3312236.832 5   2580963.736 5  24054138.180    24054138.926
         8.250           9.000
                  -3604912.370 4  -2809021.380 5  23721866.766    23721868.203
         7.000           8.250
                  -1966393.723 5  -1532253.162 5  23239509.383    23239509.133
        11.500          11.000
                     27403.359 7     21352.743 6  20654200.922    20654200.211
        20.250          20.500
                  -4025630.935 5  -3136853.362 5  22984353.453    22984353.961
        10.250           9.500
 95  4 24 15 14 15.0000000  0  8G14G18G19G22G27G28G29G31
                   3669407.002 4   2859274.087 5  24022417.906    24022420.238
         6.750           6.750
                  -1928522.775 7  -1502744.263 6  20224838.102    20224837.355
        22.250          19.250
                  -2295078.608 6  -1788372.723 6  21242810.000    21242810.223
        17.250          18.750
                   3355170.168 5   2614418.256 5  24062308.406    24062308.754
         8.250           8.750
                  -3649276.726 5  -2843590.984 5  23713424.969    23713426.129
         7.500           8.250
                  -1986222.665 5  -1547704.263 5  23235736.164    23235735.988
        11.500          11.000
                     32051.822 7     24974.922 6  20655085.547    20655085.023
        20.750          21.000
                  -4073920.414 5  -3174481.505 5  22975165.172    22975165.523
        11.000          10.000
 95  4 24 15 14 30.0000000  0  8G14G18G19G22G27G28G29G31
                   3715432.381 4   2895137.947 5  24031176.563    24031177.738
         6.750           6.250
                  -1948122.582 7  -1518016.836 6  20221108.359    20221107.449
        22.000          18.750
                  -2321596.626 6  -1809036.103 6  21237763.742    21237764.023
        17.250          18.750
                   3398146.640 5   2647906.398 5  24070486.531    24070486.957
         8.250           8.250
                  -3693606.196 5  -2878133.404 5  23704989.344    23704990.199
         8.000           8.000
                  -2005908.333 5  -1563043.727 5  23231989.953    23231990.168
        11.250          11.250
                     36825.635 7     28694.778 6  20655994.094    20655993.633
        20.750          21.500
                  -4122125.002 5  -3212043.500 5  22965992.289    22965992.813
        11.500          10.750
 95  4 24 15 14 45.0000000  0  8G14G18G19G22G27G28G29G31
                   3761478.018 4   2931017.607 5  24039939.516    24039940.027
         7.000           6.500
                  -1967601.862 7  -1533195.490 6  20217401.430    20217400.816
        21.750          18.750
                  -2348053.755 6  -1829652.039 6  21232728.922    21232729.199
        17.250          18.500
                   3441167.644 5   2681429.252 5  24078673.383    24078673.426
         8.500           8.000
                  -3737896.061 5  -2912644.961 5  23696561.508    23696561.961
         8.750           7.750
                  -2025447.406 5  -1578268.963 5  23228271.672    23228271.859
        11.250          11.250
                     41728.587 7     32515.262 6  20656927.094    20656926.738
        21.000          21.750
                  -4170240.821 5  -3249536.321 5  22956835.461    22956836.828
        11.250          11.000
 95  4 24 15 15  0.0000000  0  8G14G18G19G22G27G28G29G31
                   3807547.110 4   2966915.515 5  24048706.594    24048706.930
         7.000           6.750
                  -1986960.846 7  -1548280.409 6  20213717.484    20213717.031
        21.750          18.750
                  -2374453.390 6  -1850223.179 6  21227705.227    21227705.504
        17.250          18.250
                   3484233.652 5   2714987.175 5  24086868.398    24086868.930
         8.500           7.750
                  -3782147.586 5  -2947126.640 5  23688140.883    23688141.145
         9.000           7.750
                  -2044840.433 5  -1593380.402 5  23224581.586    23224581.457
        11.250          11.500
                     46761.063 7     36436.676 6  20657884.766    20657884.316
        20.750          21.750
                  -4218267.121 5  -3286959.385 5  22947695.844    22947696.938
        10.750          10.750
 95  4 24 15 15 15.0000000  0  8G14G18G19G22G27G28G29G31
                   3853643.181 4   3002834.462 5  24057478.234    24057479.277
         7.000           6.500
                  -2006200.004 7  -1563271.951 6  20210056.500    20210056.031
        22.000          18.750
                  -2400794.503 6  -1870748.714 6  21222692.531    21222692.984
        17.250          18.500
                   3527345.562 5   2748580.869 5  24095072.273    24095072.680
         8.250           7.500
                  -3826359.743 5  -2981577.641 5  23679727.727    23679727.887
         9.000           7.750
                  -2064086.496 5  -1608377.320 5  23220919.055    23220919.125
        11.250          11.500
                     51923.079 7     40459.032 6  20658866.875    20658866.496
        20.500          21.750
                  -4266205.331 5  -3324313.814 5  22938573.578    22938573.645
        10.750          10.250
 95  4 24 15 15 30.0000000  0  8G14G18G19G22G27G28G29G31
                   3899771.209 4   3038778.319 5  24066256.000    24066258.688
         7.000           7.000
                  -2025319.387 7  -1578170.166 6  20206418.375    20206417.723
        22.250          18.750
                  -2427073.122 6  -1891225.554 6  21217691.813    21217692.457
        17.250          18.500
                   3570507.079 5   2782213.217 5  24103285.539    24103285.902
         8.000           7.000
                  -3870531.222 5  -3015996.954 5  23671321.969    23671322.418
         8.750           8.000
                  -2083184.822 5  -1623259.123 5  23217284.852    23217284.973
        11.250          11.500
                     57216.552 7     44583.818 6  20659874.086    20659873.598
        20.250          21.250
                  -4314055.551 5  -3361599.660 5  22929468.664    22929468.129
        11.250          10.250
 95  4 24 15 15 45.0000000  0  8G14G18G19G22G27G28G29G31
                   3945934.212 4   3074749.404 5  24075040.289    24075044.277
         6.500           7.500
                  -2044316.795 7  -1592973.339 6  20202803.125    20202802.566
        22.500          18.750
                  -2453283.903 6  -1911649.530 6  21212704.148    21212704.633
        17.250          18.750
                   3613717.002 5   2815883.281 5  24111507.961    24111508.195
         7.500           6.500
                  -3914659.977 5  -3050382.977 5  23662924.297    23662924.906
         8.500           8.000
                  -2102136.129 5  -1638026.365 5  23213678.602    23213678.520
        11.250          11.500
                     62640.495 7     48810.269 6  20660906.281    20660905.820
        20.000          21.000
                  -4361818.971 5  -3398817.874 5  22920379.531    22920379.695
        11.250          10.500
 95  4 24 15 16  0.0000000  0  8G14G18G19G22G27G28G29G31
                   3992136.462 4   3110751.078 5  24083832.531    24083836.680
         6.250           7.250
                  -2063187.003 7  -1607677.392 6  20199212.336    20199211.844
        22.750          18.750
                  -2479423.632 6  -1932018.143 6  21207730.039    21207730.430
        17.250          18.750
                   3656977.312 5   2849592.611 5  24119740.328    24119740.348
         7.750           6.250
                  -3958744.792 5  -3084734.759 5  23654535.203    23654535.828
         8.250           8.000
                  -2120938.272 5  -1652677.367 5  23210100.719    23210100.539
        11.000          11.500
                     68194.474 7     53138.043 6  20661963.195    20661962.566
        20.250          20.250
                  -4409494.753 5  -3435967.793 5  22911306.609    22911307.695
        10.750          10.500
 95  4 24 15 16 15.0000000  0  8G14G18G19G22G27G28G29G31
                   4038379.693 3   3146784.689 5  24092632.242    24092635.594
         6.000           7.000
                  -2081924.187 7  -1622277.794 6  20195646.977    20195646.383
        23.500          19.250
                  -2505492.083 6  -1952331.214 6  21202769.445    21202769.695
        17.500          19.000
                   3700286.349 5   2883339.915 5  24127981.930    24127981.406
         8.000           6.250
                  -4002784.782 5  -3119051.615 5  23646154.516    23646155.234
         8.000           8.500
                  -2139590.032 5  -1667211.189 5  23206551.359    23206551.113
        11.000          11.500
                     73880.275 7     57568.532 6  20663045.313    20663044.520
        20.500          20.250
                  -4457080.552 5  -3473047.614 5  22902250.898    22902252.430
        10.500          10.750
 95  4 24 15 16 30.0000000  0  8G14G18G19G22G27G28G29G31
                   4084664.847 3   3182850.966 5  24101439.367    24101443.348
         5.750           6.500
                  -2100523.943 7  -1636771.105 6  20192107.602    20192107.000
        23.750          19.250
                  -2531486.910 6  -1972586.913 6  21197822.953    21197823.125
        17.500          19.000
                   3743645.295 5   2917126.111 5  24136232.984    24136232.340
         8.000           6.500
                  -4046773.773 5  -3153328.729 5  23637783.563    23637784.785
         8.000           9.000
                  -2158089.772 5  -1681626.554 5  23203030.922    23203030.758
        11.250          11.500
                     79698.671 7     62102.340 6  20664152.586    20664151.617
        20.750          20.250
                  -4504573.048 5  -3510054.741 5  22893213.805    22893214.750
        11.250          10.500
 95  4 24 15 16 45.0000000  0  8G14G18G19G22G27G28G29G31
                   4130990.745 3   3218948.989 5  24110254.367    24110258.289
         5.000           6.000
                  -2118987.651 7  -1651158.409 6  20188594.156    20188593.547
        24.250          19.500
                  -2557411.253 6  -1992787.693 6  21192889.805    21192890.066
        17.500          19.250
                   3787053.033 5   2950950.316 5  24144492.953    24144493.520
         8.000           7.500
                  -4090713.311 5  -3187567.313 5  23629422.219    23629423.539
         7.750           9.500
                  -2176440.739 5  -1695925.997 5  23199538.781    23199538.773
        11.250          11.500
                     85644.010 7     66735.065 6  20665283.992    20665283.012
        20.750          20.500
                  -4551975.162 6  -3546991.434 5  22884194.219    22884194.527
        12.000          10.250
 95  4 24 15 17  0.0000000  0  8G14G18G19G22G27G28G29G31
                   4177360.268 3   3255080.986 5  24119078.656    24119082.730
         5.250           5.750
                  -2137311.455 7  -1665436.697 6  20185107.156    20185106.578
        24.500          19.500
                  -2583265.357 6  -2012933.742 6  21187969.773    21187969.938
        17.500          19.000
                   3830512.604 5   2984814.886 5  24152763.008    24152764.023
         7.750           8.500
                  -4134603.265 5  -3221767.266 5  23621070.375    23621071.781
         7.750           9.750
                  -2194641.213 5  -1710108.176 5  23196075.461    23196075.324
        11.500          11.250
                     91718.120 7     71468.134 6  20666439.828    20666438.832
        20.750          20.750
                  -4599284.109 6  -3583855.533 5  22875191.336    22875191.668
        12.000          10.250
 95  4 24 15 17 15.0000000  0  8G14G18G19G22G27G28G29G31
                   4223771.699 3   3291245.665 5  24127910.680    24127913.516
         5.250           5.250
                  -2155491.008 7  -1679602.580 6  20181647.805    20181647.230
        24.250          19.250
                  -2609047.079 6  -2033023.389 6  21183063.719    21183063.852
        17.250          18.500
                   3874024.413 5   3018720.153 5  24161043.281    24161044.277
         8.000           9.000
                  -4178442.929 5  -3255928.026 5  23612728.102    23612729.379
         7.500          10.000
                  -2212689.435 6  -1724171.712 5  23192641.359    23192640.734
        12.000          11.250
                     97920.217 7     76300.936 6  20667620.023    20667619.246
        20.250          20.750
                  -4646501.020 5  -3620647.909 5  22866205.969    22866206.746
        11.500          10.250
 95  4 24 15 17 29.9990000  0  8G14G18G19G22G27G28G29G31
                   4270216.658 3   3327436.476 5  24136749.487    24136750.901
         5.250           4.750
                  -2173525.074 7  -1693655.095 6  20178216.151    20178215.417
        24.000          19.250
                  -2634753.626 6  -2053054.455 6  21178171.815    21178171.976
        17.500          18.500
                   3917583.417 5   3052662.202 5  24169332.847    24169333.452
         8.500           9.500
                  -4222230.167 5  -3290047.939 5  23604395.776    23604396.952
         7.500          10.500
                  -2230585.702 6  -1738116.836 5  23189235.487    23189235.155
        12.250          11.250
                    104245.507 7     81229.739 6  20668823.542    20668822.968
        20.250          21.250
                  -4693624.782 5  -3657367.708 5  22857238.417    22857239.093
        11.250          10.500
 95  4 24 15 17 44.9990000  0  8G14G18G19G22G27G28G29G31
                   4316700.244 3   3363657.352 5  24145596.058    24145597.026
         5.750           5.250
                  -2191410.904 7  -1707592.098 6  20174812.464    20174811.866
        23.500          19.250
                  -2660385.102 6  -2073027.027 6  21173294.253    21173294.401
        17.500          18.750
                   3961197.684 5   3086647.320 5  24177632.058    24177632.605
         9.000           9.250
                  -4265968.286 4  -3324129.583 5  23596072.605    23596073.933
         7.000          10.750
                  -2248329.396 6  -1751943.075 5  23185859.144    23185858.808
        12.750          11.000
                    110696.505 7     86256.489 6  20670051.308    20670050.788
        20.250          21.500
                  -4740658.283 5  -3694017.163 5  22848288.644    22848288.815
        11.500          10.500
 95  4 24 15 17 59.9990000  0  8G14G18G19G22G27G28G29G31
                   4363215.791 4   3399903.155 5  24154448.659    24154447.183
         6.500           4.500
                  -2209148.160 7  -1721413.331 6  20171436.987    20171436.460
        23.000          19.250
                  -2685942.308 6  -2092941.730 6  21168430.948    21168431.136
        17.750          19.000
                   4004864.333 5   3120673.263 5  24185941.519    24185941.972
         9.000           9.000
                  -4309654.420 4  -3358170.723 5  23587759.245    23587760.796
         6.750          10.750
                  -2265918.375 6  -1765648.754 5  23182511.862    23182511.358
        12.750          11.000
                    117271.144 7     91379.587 6  20671302.308    20671301.894
        20.500          21.500
                  -4787598.996 5  -3730594.312 5  22839356.519    22839356.616
        11.500          11.000
 95  4 24 15 18 14.9990000  0  8G14G18G19G22G27G28G29G31
                   4409756.935 4   3436168.929 5  24163304.292    24163304.140
         6.250           4.500
                  -2226741.951 7  -1735122.775 6  20168089.026    20168088.397
        22.750          19.250
                  -2711429.815 6  -2112802.120 6  21163581.151    21163581.284
        17.750          19.250
                   4048579.453 5   3154736.975 5  24194260.073    24194260.679
         8.750           9.000
                  -4353293.096 4  -3392174.874 5  23579455.026    23579456.323
         6.500          10.750
                  -2283355.039 6  -1779235.743 5  23179193.878    23179193.331
        13.000          10.750
                    123966.541 7     96596.778 6  20672576.472    20672575.976
        20.750          21.500
                  -4834448.626 5  -3767100.485 5  22830440.917    22830441.714
        11.500          11.000
 95  4 24 15 18 29.9990000  0  8G14G18G19G22G27G28G29G31
                   4456325.207 3   3472455.809 5  24172164.331    24172167.015
         5.500           5.000
                  -2244190.844 7  -1748719.313 6  20164768.589    20164767.933
        22.250          19.250
                  -2736842.517 6  -2132604.213 6  21158745.151    21158745.468
        17.500          19.500
                   4092344.881 5   3188839.887 5  24202588.495    24202589.374
         8.250           8.750
                  -4396881.347 4  -3426139.736 5  23571160.261    23571161.577
         6.250          10.250
                  -2300635.974 6  -1792701.383 5  23175905.659    23175904.901
        13.000          10.750
                    130788.029 7    101912.215 6  20673874.651    20673874.007
        20.750          21.250
                  -4881203.265 5  -3803532.647 5  22821543.714    22821544.632
        11.250          11.000
 95  4 24 15 18 44.9990000  0  7G18G19G22G27G28G29G31
                  -2261498.198 7  -1762205.553 6  20161474.862    20161474.327
        22.250          19.250
                  -2762179.712 6  -2152347.471 6  21153923.690    21153923.858
        18.000          19.500
                   4136159.378 5   3222981.048 5  24210925.972    24210926.718
         7.500           8.250
                  -4440422.755 4  -3460068.091 5  23562874.542    23562875.944
         6.250          10.250
                  -2317761.242 6  -1806045.723 5  23172646.730    23172646.206
        13.000          11.000
                    137739.126 7    107328.653 6  20675197.347    20675196.593
        20.750          21.000
                  -4927866.176 5  -3839893.337 5  22812663.964    22812664.569
        11.250          10.500
 95  4 24 15 18 59.9990000  0  7G18G19G22G27G28G29G31
                  -2278666.190 7  -1775583.198 6  20158208.120    20158207.628
        22.500          19.250
                  -2787443.709 6  -2172033.696 6  21149116.167    21149116.237
        18.000          19.500
                   4180021.892 4   3257159.632 5  24219272.659    24219273.401
         7.000           7.750
                  -4483921.798 4  -3493963.427 5  23554596.581    23554597.940
         6.500           9.750
                  -2334730.936 6  -1819268.842 5  23169417.472    23169417.222
        13.000          11.250
                    144823.359 7    112848.833 6  20676545.315    20676544.772
        20.500          21.000
                  -4974436.753 5  -3876182.088 5  22803801.472    22803801.956
        11.000          10.000
 95  4 24 15 19 14.9990000  0  7G18G19G22G27G28G29G31
                  -2295696.821 7  -1788853.814 6  20154967.636    20154966.913
        23.250          19.250
                  -2812634.107 6  -2191662.571 6  21144322.472    21144322.741
        18.000          19.250
                   4223932.093 4   3291375.362 5  24227628.175    24227628.870
         6.500           7.500
                  -4527381.382 4  -3527828.033 5  23546326.565    23546327.788
         7.000           9.500
                  -2351544.645 6  -1832370.419 5  23166217.972    23166217.921
        13.000          11.500
                    152043.543 7    118474.947 6  20677919.245    20677918.663
        20.500          20.750
                  -5020912.504 5  -3912396.936 5  22794957.378    22794957.675
        11.250           9.750
 95  4 24 15 19 29.9990000  0  7G18G19G22G27G28G29G31
                  -2312592.589 7  -1802019.342 6  20151752.378    20151751.718
        23.500          19.250
                  -2837749.410 6  -2211232.933 6  21139542.925    21139543.269
        17.750          19.000
                   4267890.447 4   3325628.613 5  24235993.370    24235994.105
         6.250           7.500
                  -4570801.458 5  -3561661.851 5  23538064.487    23538065.413
         7.500           9.250
                  -2368202.240 6  -1845350.353 5  23163048.300    23163048.065
        12.750          11.500
                    159401.175 7    124208.171 6  20679319.331    20679318.780
        20.250          20.750
                  -5067290.492 5  -3948535.599 5  22786132.253    22786132.124
        11.250           9.750
 95  4 24 15 19 44.9990000  0  7G18G19G22G27G28G29G31
                  -2329352.440 7  -1815078.959 6  20148563.026    20148562.522
        24.000          19.000
                  -2862788.528 6  -2230743.928 6  21134778.151    21134778.519
        17.500          19.000
                   4311898.005 4   3359920.207 5  24244367.792    24244368.612
         6.750           7.750
                  -4614179.718 5  -3595463.082 5  23529809.909    23529810.468
         8.250           9.000
                  -2384702.056 6  -1858207.342 5  23159908.503    23159908.054
        12.500          11.500
                    166900.135 7    130051.513 6  20680746.542    20680745.929
        20.500          21.000
                  -5113565.644 5  -3984594.129 5  22777326.542    22777326.675
        11.500          10.250
 95  4 24 15 19 59.9990000  0  7G18G19G22G27G28G29G31
                  -2345979.344 7  -1828034.985 6  20145399.222    20145398.589
        24.000          18.750
                  -2887750.965 6  -2250195.170 6  21130028.136    21130028.515
        17.750          19.000
                   4355953.498 4   3394249.148 5  24252751.503    24252752.335
         6.750           7.750
                  -4657516.727 5  -3629232.167 5  23521563.480    23521563.589
         8.500           8.750
                  -2401043.234 5  -1870940.714 5  23156798.800    23156798.397
        11.750          11.250
                    174545.025 7    136008.568 6  20682201.417    20682200.784
        20.500          21.000
                  -5159735.825 5  -4020570.868 5  22768540.659    22768541.128
        11.250          10.750
 95  4 24 15 20 14.9990000  0  7G18G19G22G27G28G29G31
                  -2362473.151 7  -1840887.300 6  20142260.636    20142259.987
        24.750          18.750
                  -2912636.012 6  -2269586.110 6  21125292.683    21125293.116
        18.250          19.750
                   4400056.813 4   3428615.344 5  24261143.878    24261144.905
         6.500           7.750
                  -4700813.913 5  -3662970.219 5  23513324.183    23513324.659
         9.250           9.000
                  -2417225.416 5  -1883550.196 5  23153719.433    23153718.655
        11.750          11.250
                    182336.455 7    142079.809 6  20683684.112    20683683.472
        20.500          21.250
                  -5205800.450 5  -4056465.357 5  22759774.440    22759775.464
        11.250          11.250
 95  4 24 15 20 29.9990000  0  7G18G19G22G27G28G29G31
                  -2378818.129 7  -1853623.644 6  20139150.081    20139149.444
        24.250          18.500
                  -2937428.934 6  -2288905.262 6  21120574.675    21120574.948
        18.000          19.750
                   4444221.635 4   3463029.463 5  24269547.987    24269549.413
         6.500           7.250
                  -4744057.354 5  -3696666.397 5  23505095.190    23505095.687
         9.500           9.000
                  -2433235.145 5  -1896025.294 5  23150672.917    23150671.757
        11.250          11.000
                    190289.305 7    148276.836 6  20685197.394    20685196.800
        20.500          21.250
                  -5251744.450 5  -4092265.853 5  22751031.105    22751032.288
        11.000          11.000
 95  4 24 15 20 44.9990000  0  6G18G19G27G28G29G31
                  -2395022.803 7  -1866250.658 6  20136066.144    20136065.565
        24.000          18.250
                  -2962140.737 6  -2308161.201 6  21115872.253    21115872.519
        18.250          19.750
                  -4787255.247 5  -3730327.082 5  23496875.019    23496875.522
         9.500           9.000
                  -2449081.873 5  -1908373.372 5  23147657.269    23147656.362
        11.250          11.000
                    198395.986 7    154593.727 6  20686740.105    20686739.511
        20.750          21.250
                  -5297578.444 5  -4127980.639 5  22742309.620    22742310.355
        11.500          11.000
 95  4 24 15 20 59.9990000  0  6G18G19G27G28G29G31
                  -2411091.871 7  -1878772.008 6  20133008.386    20133007.698
        23.500          18.000
                  -2986780.420 6  -2327360.949 6  21111183.487    21111183.647
        18.000          19.500
                  -4830410.538 5  -3763954.567 5  23488662.745    23488663.132
         9.500           8.750
                  -2464771.499 5  -1920599.039 5  23144671.644    23144670.714
        11.000          11.000
                    206650.001 7    161025.421 6  20688310.855    20688310.218
        20.500          21.250
                  -5343304.369 6  -4163611.216 5  22733608.956    22733609.339
        12.250          11.250
 95  4 24 15 21 14.9990000  0  6G18G19G27G28G29G31
                  -2427019.706 7  -1891183.306 6  20129977.456    20129976.667
        23.000          17.750
                  -3011345.214 6  -2346502.336 6  21106508.995    21106508.956
        18.000          19.250
                  -4873517.632 5  -3797544.486 5  23480459.800    23480460.417
         9.500           8.750
                  -2480300.824 5  -1932699.798 5  23141716.440    23141715.730
        11.000          11.250
                    215051.807 7    167572.283 6  20689909.698    20689909.062
        20.500          21.500
                  -5388917.597 6  -4199153.961 5  22724929.401    22724929.483
        12.500          11.250
 95  4 24 15 21 29.9990000  0  6G18G19G27G28G29G31
                  -2442801.831 7  -1903481.065 6  20126974.128    20126973.425
        22.750          17.750
                  -3035833.618 6  -2365584.206 6  21101849.089    21101848.827
        18.500          19.250
                  -4916573.247 5  -3831094.290 5  23472266.495    23472267.194
         9.250           8.500
                  -2495669.003 5  -1944674.992 5  23138791.933    23138791.249
        10.750          11.500
                    223599.264 7    174232.642 6  20691536.120    20691535.487
        20.500          21.250
                  -5434418.471 5  -4234609.169 5  22716270.480    22716270.796
        11.750          11.250
 95  4 24 15 21 44.9990000  0  6G18G19G27G28G29G31
                  -2458435.339 7  -1915663.016 6  20123999.034    20123998.378
        22.500          18.000
                  -3060245.317 6  -2384606.304 6  21097204.003    21097203.632
        18.750          19.250
                  -4959572.821 5  -3864600.432 5  23464083.831    23464084.554
         9.250           8.500
                  -2510875.133 5  -1956523.911 5  23135898.050    23135897.730
        11.000          11.750
                    232292.187 7    181006.350 6  20693190.440    20693189.874
        20.500          21.250
                  -5479808.519 5  -4269978.017 5  22707632.425    22707633.198
        11.000          11.000
 95  4 24 15 21 59.9990000  0  6G18G19G27G28G29G31
                  -2473919.309 7  -1927728.442 6  20121052.769    20121051.999
        22.750          18.000
                  -3084579.254 6  -2403567.809 6  21092573.151    21092573.069
        18.750          19.500
                  -5002516.817 5  -3898063.260 5  23455911.769    23455912.507
         9.250           8.000
                  -2525918.920 5  -1968246.335 6  23133035.401    23133035.093
        11.000          12.250
                    241129.751 7    187892.761 6  20694871.948    20694871.460
        20.250          21.250
                  -5525091.065 5  -4305263.095 5  22699015.355    22699015.991
        11.250          11.250
 95  4 24 15 22 14.9990000  0  6G18G19G27G28G29G31
                  -2489248.573 7  -1939673.316 6  20118135.776    20118135.030
        23.000          18.250
                  -3108834.938 6  -2422468.335 6  21087957.558    21087957.776
        18.750          19.750
                  -5045403.924 5  -3931481.755 5  23447750.472    23447751.257
         9.250           7.750
                  -2540798.158 5  -1979840.537 6  23130203.620    23130203.843
        11.000          12.500
                    250111.243 6    194891.327 6  20696580.972    20696580.624
        19.750          21.250
                  -5570266.742 6  -4340464.899 5  22690419.417    22690419.694
        12.000          11.500
 95  4 24 15 22 29.9990000  0  6G18G19G27G28G29G31
                  -2504419.015 7  -1951494.434 6  20115248.870    20115248.272
        23.000          18.500
                  -3133012.170 6  -2441307.727 6  21083356.542    21083356.804
        18.500          20.000
                  -5088231.749 5  -3964854.062 5  23439600.675    23439601.339
         9.500           7.500
                  -2555511.467 5  -1991305.451 6  23127403.909    23127403.952
        11.000          12.750
                    259236.358 6    202001.803 6  20698317.308    20698316.944
        19.750          21.000
                  -5615334.775 6  -4375582.818 6  22681843.190    22681844.253
        12.000          12.250
 95  4 24 15 22 44.9990000  0  6G18G19G27G28G29G31
                  -2519433.038 7  -1963193.666 6  20112391.706    20112391.319
        23.250          19.000
                  -3157116.670 6  -2460090.444 6  21078769.605    21078769.894
        18.500          19.750
                  -5131003.274 5  -3998182.510 5  23431461.651    23431462.159
         9.500           7.250
                  -2570062.521 5  -2002643.926 6  23124634.980    23124635.073
        11.000          12.750
                    268501.551 7    209221.432 6  20700080.573    20700080.065
        20.000          21.000
                  -5660297.949 5  -4410619.041 6  22673286.565    22673288.218
        11.750          12.500
 95  4 24 15 22 59.9990000  0  6G18G19G27G28G29G31
                  -2534289.087 7  -1974769.803 6  20109564.690    20109564.249
        23.500          19.250
                  -3181145.621 6  -2478814.294 6  21074197.026    21074197.132
        18.750          19.500
                  -5173718.805 5  -4031467.321 5  23423333.237    23423333.503
         9.500           7.250
                  -2584448.848 5  -2013854.039 6  23121897.315    23121897.448
        11.250          12.750
                    277907.985 7    216551.119 6  20701870.620    20701870.062
        20.000          21.000
                  -5705153.936 5  -4445571.742 6  22664750.628    22664752.011
        11.500          12.000
 95  4 24 15 23 14.9990000  0  6G18G19G27G28G29G31
                  -2548986.945 7  -1986222.676 6  20106768.175    20106767.573
        23.750          19.250
                  -3205096.622 6  -2497477.407 6  21069639.331    21069639.429
        18.750          19.500
                  -5216379.588 5  -4064709.483 5  23415215.276    23415215.362
         9.250           7.500
                  -2598668.666 5  -2024934.407 6  23119191.503    23119191.241
        11.500          12.750
                    287453.640 7    223989.287 6  20703687.245    20703686.550
        20.500          21.000
                  -5749901.334 5  -4480439.829 5  22656235.362    22656235.882
        11.250          10.750
 95  4 24 15 23 29.9990000  0  6G18G19G27G28G29G31
                  -2563526.625 7  -1997552.289 6  20104001.089    20104000.769
        23.500          19.000
                  -3228965.860 6  -2516076.810 6  21065097.112    21065097.362
        18.750          19.500
                  -5258988.665 5  -4097911.347 5  23407107.347    23407107.253
         9.000           7.750
                  -2612721.056 5  -2035884.309 6  23116517.401    23116517.124
        11.500          12.750
                    297140.396 7    231537.401 6  20705530.659    20705529.929
        20.500          21.000
                  -5794542.217 5  -4515224.909 5  22647740.034    22647739.769
        11.000           9.750
 95  4 24 15 23 44.9990000  0  6G18G19G27G28G29G31
                  -2577913.690 7  -2008762.983 6  20101263.112    20101262.964
        23.250          18.750
                  -3252755.934 6  -2534614.521 6  21060569.769    21060570.280
        18.750          19.750
                  -5301549.040 5  -4131075.250 5  23399008.503    23399008.425
         8.750           8.000
                  -2626608.085 5  -2046705.357 6  23113874.534    23113874.538
        11.250          12.750
                    306967.948 7    239195.229 6  20707400.573    20707400.151
        20.250          21.250
                  -5839078.628 5  -4549928.583 5  22639264.862    22639264.655
        11.000           9.500
 95  4 24 15 23 59.9990000  0  6G18G19G27G28G29G31
                  -2592151.020 7  -2019856.999 6  20098553.940    20098553.542
        23.250          18.250
                  -3276466.065 6  -2553089.943 6  21056057.980    21056058.425
        18.500          19.750
                  -5344062.804 5  -4164202.841 5  23390917.995    23390918.272
         8.000           8.250
                  -2640329.399 5  -2057397.277 6  23111263.308    23111263.554
        11.250          12.750
                    316937.183 6    246963.461 6  20709297.456    20709297.265
        19.500          21.000
                  -5883509.250 5  -4584549.818 5  22630810.019    22630810.526
        11.000          10.000
 95  4 24 15 24 14.9990000  0  6G18G19G27G28G29G31
                  -2606234.720 7  -2030831.306 6  20095874.105    20095873.452
        23.500          18.000
                  -3300096.630 6  -2571503.361 6  21051561.480    21051561.808
        18.750          20.250
                  -5386529.333 5  -4197293.621 5  23382836.472    23382837.276
         7.750           8.500
                  -2653882.409 5  -2067958.055 6  23108684.214    23108684.823
        11.250          13.000
                    327050.382 6    254843.875 6  20711221.761    20711221.667
        19.000          21.250
                  -5927828.621 6  -4619084.389 5  22622376.909    22622377.683
        12.000          11.000
 95  4 24 15 24 29.9990000  0  6G18G19G27G28G29G31
                  -2620166.168 7  -2041686.980 6  20093222.964    20093222.128
        23.250          17.500
                  -3323648.502 6  -2589855.464 6  21047079.792    21047079.851
        19.000          20.000
                  -5428948.266 5  -4230347.311 5  23374764.159    23374765.187
         7.500           8.750
                  -2667266.876 5  -2078387.500 6  23106137.401    23106137.905
        11.500          13.250
                    337310.090 6    262838.453 6  20713174.050    20713174.128
        18.750          21.250
                  -5972032.712 6  -4653529.125 5  22613965.370    22613966.308
        12.250          11.500
 95  4 24 15 24 44.9990000  0  6G18G19G27G28G29G31
                  -2633949.815 7  -2052427.481 6  20090599.855    20090599.202
        23.500          17.250
                  -3347123.547 6  -2608147.702 6  21042612.730    21042612.745
        19.250          20.250
                  -5471321.470 4  -4263365.371 5  23366700.776    23366701.940
         7.250           9.250
                  -2680484.120 5  -2088686.638 6  23103622.276    23103622.659
        11.500          13.250
                    347716.313 6    270947.201 6  20715154.292    20715154.370
        19.000          21.250
                  -6016118.683 6  -4687881.817 5  22605575.855    22605576.675
        12.000          11.750
 95  4 24 15 24 59.9990000  0  6G18G19G27G28G29G31
                  -2647590.907 7  -2063056.905 6  20088004.175    20088003.296
        23.500          17.000
                  -3370521.763 6  -2626380.072 6  21038160.261    21038160.124
        19.250          20.000
                  -5513650.398 4  -4296348.933 5  23358645.831    23358647.128
         7.250           9.500
                  -2693535.604 5  -2098856.616 6  23101138.480    23101138.980
        11.500          13.000
                    358267.153 6    279168.634 6  20717162.378    20717161.952
        19.750          21.000
                  -6060086.954 5  -4722142.791 5  22597208.815    22597209.874
        11.250          11.500
 95  4 24 15 25 14.9990000  0  6G18G19G27G28G29G31
                  -2661089.832 7  -2073575.551 6  20085435.581    20085434.507
        23.750          16.750
                  -3393840.443 6  -2644550.470 6  21033722.769    21033722.733
        19.250          20.000
                  -5555930.967 5  -4329294.818 5  23350600.565    23350601.425
         7.500           9.750
                  -2706419.080 5  -2108895.677 6  23098686.972    23098687.155
        11.500          13.000
                    368965.948 7    287505.356 6  20719198.526    20719197.956
        20.250          21.000
                  -6103933.669 5  -4756309.040 5  22588865.105    22588865.444
        11.500          11.000
 95  4 24 15 25 29.9990000  0  6G18G19G27G28G29G31
                  -2674448.021 7  -2083984.530 6  20082893.464    20082892.378
        23.750          16.750
                  -3417083.585 6  -2662662.002 6  21029299.526    21029299.530
        18.750          20.000
                  -5598163.276 5  -4362203.102 5  23342564.120    23342564.776
         7.500           9.750
                  -2719137.370 5  -2118806.022 6  23096267.034    23096266.788
        11.750          12.500
                    379812.105 7    295956.900 6  20721262.558    20721261.651
        20.500          20.750
                  -6147660.922 6  -4790382.202 5  22580544.472    22580544.417
        12.000          11.000
 95  4 24 15 25 44.9990000  0  6G18G19G27G28G29G31
                  -2687660.306 7  -2094279.816 6  20080379.175    20080378.105
        23.750          17.000
                  -3440250.541 6  -2680714.173 6  21024890.964    21024890.952
        19.000          20.000
                  -5640341.684 5  -4395069.387 5  23334537.831    23334538.378
         7.500          10.000
                  -2731687.644 6  -2128585.441 6  23093878.940    23093878.597
        12.000          12.500
                    390808.492 7    304525.509 6  20723354.987    20723354.105
        20.250          20.750
                  -6191264.871 6  -4824359.280 5  22572247.480    22572247.362
        12.750          11.500
 95  4 24 15 25 59.9990000  0  6G18G19G27G28G29G31
                  -2700724.635 7  -2104459.814 6  20077893.136    20077892.050
        23.750          17.250
                  -3463343.549 6  -2698708.719 6  21020496.589    21020496.569
        19.250          20.250
                  -5682462.454 5  -4427890.754 5  23326522.237    23326523.159
         7.500          10.000
                  -2744070.212 6  -2138234.184 6  23091522.714    23091522.167
        12.000          12.500
                    401951.617 6    313208.456 6  20725475.230    20725474.655
        19.500          20.750
                  -6234743.246 6  -4858238.514 6  22563973.847    22563974.147
        12.750          12.000
 95  4 24 15 26 14.9990000  0  6G18G19G27G28G29G31
                  -2713636.559 7  -2114521.048 6  20075436.105    20075435.249
        23.750          17.750
                  -3486360.365 6  -2716643.896 6  21016116.730    21016116.929
        19.500          20.500
                  -5724521.887 5  -4460664.335 5  23318518.386    23318519.495
         7.500          10.000
                  -2756282.831 6  -2147750.503 6  23089198.300    23089198.089
        12.000          12.250
                    413240.682 6    322005.132 6  20727623.308    20727623.097
        19.000          21.000
                  -6278092.462 6  -4892017.114 6  22555724.136    22555725.331
        12.250          12.250
 95  4 24 15 26 29.9990000  0  6G18G19G27G28G29G31
                  -2726397.113 7  -2124464.333 6  20073007.605    20073007.089
        23.250          18.000
                  -3509301.022 6  -2734519.730 6  21011751.323    21011751.550
        19.500          20.500
                  -5766518.696 5  -4493389.120 5  23310526.862    23310527.647
         7.750          10.250
                  -2768326.522 5  -2157135.182 6  23086906.315    23086906.222
        11.750          12.250
                    424675.763 6    330915.583 6  20729799.089    20729799.163
        18.750          21.000
                  -6321315.339 6  -4925697.267 6  22547498.526    22547500.335
        12.000          12.750
 95  4 24 15 26 44.9990000  0  6G18G19G27G28G29G31
                  -2739008.740 7  -2134291.567 6  20070607.722    20070607.300
        23.000          18.250
                  -3532164.453 6  -2752335.381 6  21007400.425    21007400.710
        19.250          20.500
                  -5808451.613 5  -4526064.101 5  23302547.464    23302547.933
         8.250          10.500
                  -2780203.088 6  -2166389.646 6  23084646.362    23084646.272
        12.000          12.500
                    436254.624 6    339938.075 6  20732002.823    20732002.940
        19.000          21.500
                  -6364415.693 6  -4959281.941 6  22539296.901    22539298.507
        12.000          13.000
 95  4 24 15 26 59.9990000  0  6G18G19G27G28G29G31
                  -2751470.858 7  -2144002.304 6  20068236.464    20068235.968
        23.000          18.500
                  -3554950.248 6  -2770090.538 6  21003064.300    21003064.538
        19.000          20.250
                  -5850319.406 5  -4558688.347 5  23294580.315    23294580.901
         8.500          10.750
                  -2791912.069 5  -2175513.525 6  23082417.917    23082418.155
        11.750          12.500
                    447975.160 6    349070.959 6  20734233.276    20734233.140
        19.500          21.500
                  -6407396.376 6  -4992773.364 6  22531118.120    22531119.167
        12.000          12.500
 95  4 24 15 27 14.9990000  0  6G18G19G27G28G29G31
                  -2763781.497 7  -2153595.003 6  20065893.972    20065893.468
        23.000          18.500
                  -3577655.978 6  -2787783.309 6  20998743.636    20998743.757
        19.000          20.250
                  -5892121.690 5  -4591261.540 5  23286625.558    23286626.327
         8.750          11.250
                  -2803452.521 6  -2184506.080 6  23080222.269    23080222.315
        12.250          12.750
                    459838.198 7    358314.879 6  20736490.878    20736490.562
        20.000          21.500
                  -6450258.963 6  -5026172.767 6  22522961.815    22522962.296
        12.500          12.000
 95  4 24 15 27 29.9990000  0  6G18G19G27G28G29G31
                  -2775936.093 7  -2163066.111 6  20063580.956    20063580.456
        23.000          18.250
                  -3600281.783 6  -2805413.802 6  20994438.167    20994438.214
        19.250          20.250
                  -5933860.000 5  -4623784.889 5  23278683.042    23278683.776
         9.000          11.500
                  -2814823.951 6  -2193366.923 6  23078058.558    23078058.425
        12.250          13.000
                    471843.866 7    367669.941 6  20738775.573    20738775.058
        20.000          21.500
                  -6493004.137 6  -5059480.672 5  22514827.917    22514827.933
        12.750          11.750
 95  4 24 15 27 44.9990000  0  6G18G19G27G28G29G31
                  -2787932.111 7  -2172413.653 6  20061298.237    20061297.601
        23.250          18.250
                  -3622826.403 6  -2822981.037 6  20990147.933    20990148.222
        19.500          20.500
                  -5975533.826 5  -4656257.986 5  23270752.815    23270753.546
         9.500          11.750
                  -2826026.133 6  -2202095.888 6  23075926.901    23075926.897
        12.500          13.000
                    483990.749 6    377135.040 6  20741086.901    20741086.538
        19.750          21.500
                  -6535634.753 6  -5092699.316 5  22506715.636    22506715.284
        13.250          11.500
 95  4 24 15 27 59.9990000  0  6G18G19G27G28G29G31
                  -2799773.928 7  -2181641.041 6  20059045.019    20059043.995
        23.750          17.500
                  -3645290.671 6  -2840485.654 6  20985873.073    20985873.480
        19.000          20.500
                  -6017145.282 5  -4688682.487 5  23262834.292    23262835.124
         9.750          11.750
                  -2837061.829 6  -2210695.122 6  23073826.956    23073826.655
        12.500          12.750
                    496274.704 6    386706.950 6  20743424.386    20743424.179
        19.500          21.500
                  -6578153.594 6  -5125830.853 5  22498624.581    22498624.319
        13.000          11.500
 95  4 24 15 28 14.9990000  0  6G18G19G27G28G29G31
                  -2811462.203 7  -2190748.788 6  20056820.886    20056819.647
        24.250          17.250
                  -3667670.871 6  -2857924.763 6  20981614.378    20981614.733
        19.000          20.750
                  -6058696.588 5  -4721060.116 5  23254927.222    23254928.120
         9.750          11.750
                  -2847930.236 6  -2219164.008 6  23071758.558    23071758.230
        12.250          12.500
                    508700.419 6    396389.321 6  20745788.823    20745788.749
        19.500          21.500
                  -6620558.349 6  -5158873.502 5  22490554.753    22490555.226
        12.500          11.750
 95  4 24 15 28 29.9990000  0  6G18G19G27G28G29G31
                  -2822997.069 7  -2199736.992 6  20054625.597    20054624.644
        24.000          17.000
                  -3689964.392 6  -2875296.331 6  20977372.167    20977372.437
        19.000          20.500
                  -6100190.203 5  -4753392.781 5  23247031.183    23247032.358
         9.750          11.500
                  -2858630.134 6  -2227501.588 6  23069722.323    23069722.046
        12.000          12.250
                    521271.096 6    406184.651 6  20748181.081    20748180.917
        19.500          21.750
                  -6662848.976 6  -5191827.225 6  22482506.855    22482508.085
        12.000          12.250
 95  4 24 15 28 44.9990000  0  6G18G19G27G28G29G31
                  -2834377.389 7  -2208604.776 6  20052459.784    20052459.042
        23.750          17.000
                  -3712170.767 6  -2892599.992 6  20973146.448    20973146.558
        19.500          20.250
                  -6141626.836 5  -4785681.049 5  23239146.253    23239147.194
        10.000          11.250
                  -2869160.070 6  -2235706.722 6  23067718.487    23067718.222
        12.000          12.250
                    533989.730 6    416095.274 6  20750601.409    20750601.163
        19.500          21.750
                  -6705023.806 6  -5224690.726 6  22474481.737    22474482.472
        12.750          12.500
 95  4 24 15 28 59.9990000  0  6G18G19G27G28G29G31
                  -2845602.833 7  -2217351.872 6  20050323.753    20050322.792
        23.750          17.000
                  -3734291.754 6  -2909837.122 6  20968937.284    20968936.948
        19.750          20.250
                  -6183010.868 5  -4817928.329 5  23231271.347    23231271.925
        10.000          11.000
                  -2879520.933 5  -2243780.117 6  23065746.792    23065746.569
        11.750          12.000
                    546854.657 6    426119.891 6  20753049.581    20753049.284
        19.500          21.500
                  -6747081.066 6  -5257462.606 6  22466479.144    22466479.007
        13.500          12.500
 95  4 24 15 29 14.9990000  0  6G18G19G27G28G29G31
                  -2856671.839 7  -2225977.073 6  20048217.425    20048216.464
        23.500          16.750
                  -3756327.224 6  -2927007.616 6  20964743.855    20964743.714
        19.250          20.000
                  -6224344.371 5  -4850136.238 5  23223405.948    23223406.374
        10.000          10.500
                  -2889711.289 5  -2251720.646 6  23063807.620    23063807.558
        11.750          12.000
                    559867.086 6    436259.441 6  20755525.581    20755525.358
        19.250          21.250
                  -6789017.401 6  -5290140.240 5  22458498.964    22458498.444
        13.750          11.750
 95  4 24 15 29 29.9990000  0  6G18G19G27G28G29G31
                  -2867584.014 7  -2234480.064 6  20046140.847    20046139.991
        23.500          17.000
                  -3778281.153 6  -2944114.570 6  20960565.870    20960566.257
        18.750          20.500
                  -6265628.590 5  -4882305.743 5  23215549.550    23215549.995
        10.000          10.250
                  -2899732.634 6  -2259529.480 5  23061900.675    23061900.288
        12.250          11.750
                    573025.183 6    446512.502 6  20758029.620    20758029.210
        19.750          21.250
                  -6830832.274 6  -5322723.224 5  22450541.370    22450541.081
        13.000          11.500
 95  4 24 15 29 44.9990000  0  6G18G19G27G28G29G31
                  -2878340.696 7  -2242861.894 6  20044094.042    20044093.190
        23.500          17.250
                  -3800156.946 6  -2961160.633 6  20956402.870    20956403.296
        18.750          20.750
                  -6306862.006 5  -4914435.660 5  23207702.862    23207703.569
        10.000          10.000
                  -2909585.337 6  -2267206.906 6  23060026.019    23060025.452
        12.500          12.000
                    586327.292 7    456877.780 6  20760560.964    20760560.417
        20.250          21.500
                  -6872525.364 5  -5355211.321 5  22442606.089    22442607.116
        11.750          11.750
 95  4 24 15 29 59.9990000  0  6G18G19G27G28G29G31
                  -2888944.426 7  -2251124.537 6  20042076.472    20042075.569
        23.500          17.250
                  -3821957.106 6  -2978147.762 6  20952254.690    20952254.897
        19.000          20.500
                  -6348045.597 5  -4946526.755 5  23199865.800    23199866.304
        10.000           9.750
                  -2919269.141 6  -2274752.712 6  23058183.667    23058182.831
        12.750          12.000
                    599772.959 7    467354.917 6  20763120.034    20763119.331
        20.750          21.500
                  -6914094.493 5  -5387602.846 6  22434695.550    22434697.159
        11.750          12.250
 95  4 24 15 30 14.9990000  0  6G18G19G27G28G29G31
                  -2899396.128 7  -2259268.719 6  20040087.706    20040086.698
        23.750          17.500
                  -3843681.882 6  -2995076.151 6  20948120.839    20948120.819
        19.250          20.250
                  -6389183.309 5  -4978582.098 5  23192037.847    23192038.019
        10.250           9.500
                  -2928782.999 6  -2282166.098 6  23056373.065    23056372.671
        12.500          12.000
                    613362.107 7    477943.861 6  20765705.940    20765705.276
        20.750          21.750
                  -6955535.735 6  -5419894.719 6  22426810.487    22426811.710
        12.750          12.750
 95  4 24 15 30 29.9990000  0  6G18G19G27G28G29G31
                  -2909697.651 7  -2267295.879 6  20038127.276    20038126.351
        23.750          17.500
                  -3865334.438 6  -3011948.274 6  20944000.237    20944000.050
        19.000          20.000
                  -6430276.395 5  -5010602.674 5  23184218.144    23184218.151
        10.500           9.500
                  -2938126.728 6  -2289446.917 6  23054594.698    23054594.515
        12.000          12.000
                    627093.493 7    488643.635 6  20768318.722    20768318.370
        20.250          22.000
                  -6996850.198 6  -5452087.801 6  22418949.355    22418949.983
        13.500          13.000
 95  4 24 15 30 44.9990000  0  6G18G19G27G28G29G31
                  -2919847.786 7  -2275205.068 6  20036195.620    20036194.730
        23.750          17.250
                  -3886916.222 6  -3028765.246 6  20939893.073    20939893.397
        18.750          20.000
                  -6471322.492 5  -5042586.632 5  23176407.347    23176407.351
        10.500           9.750
                  -2947299.078 5  -2296594.199 5  23052848.980    23052849.065
        11.750          11.750
                    640965.033 7    499452.629 6  20770958.214    20770958.183
        20.000          22.250
                  -7038038.305 6  -5484182.416 6  22411111.425    22411111.937
        13.500          12.750
 95  4 24 15 30 59.9990000  0  6G18G19G27G28G29G31
                  -2929847.379 7  -2282996.955 6  20034292.800    20034291.800
        24.000          17.250
                  -3908430.545 6  -3045529.647 6  20935798.894    20935799.417
        18.750          20.250
                  -6512322.718 5  -5074534.846 5  23168605.159    23168605.425
        10.250           9.750
                  -2956301.524 5  -2303609.088 5  23051135.815    23051135.878
        11.500          11.750
                    654975.056 6    510369.533 6  20773624.058    20773624.210
        19.500          22.250
                  -7079099.744 6  -5516178.323 5  22403296.605    22403297.183
        12.250          11.750
 95  4 24 15 31 14.9990000  0  6G18G19G27G28G29G31
                  -2939694.919 7  -2290670.358 6  20032418.847    20032417.823
        24.000          17.250
                  -3929875.801 6  -3062240.226 6  20931718.136    20931718.405
        19.000          20.250
                  -6553276.084 5  -5106446.544 5  23160811.870    23160812.272
        10.000           9.500
                  -2965132.190 5  -2310490.127 5  23049455.425    23049455.440
        11.500          11.750
                    669124.158 6    521394.809 6  20776316.440    20776316.405
        19.500          22.000
                  -7120031.873 5  -5548073.469 5  22395506.956    22395507.429
        11.750          11.250
 95  4 24 15 31 29.9990000  0  6G18G19G27G28G29G31
                  -2949390.330 7  -2298225.223 6  20030573.964    20030573.167
        23.750          17.000
                  -3951252.169 6  -3078897.133 6  20927650.722    20927650.843
        19.000          20.250
                  -6594181.037 5  -5138320.521 5  23153027.847    23153028.335
         9.750           9.500
                  -2973790.891 5  -2317237.167 5  23047807.761    23047807.280
        11.500          11.250
                    683411.239 7    532527.600 6  20779035.628    20779035.151
        20.250          21.500
                  -7160835.675 6  -5579868.628 5  22387743.167    22387742.632
        12.500          11.250
 95  4 24 15 31 44.9990000  0  6G18G19G27G28G29G31
                  -2958934.234 7  -2305662.029 6  20028757.706    20028756.976
        23.500          17.000
                  -3972556.246 6  -3095497.709 6  20923596.542    20923596.741
        19.000          20.250
                  -6635037.110 5  -5170156.404 5  23145253.222    23145253.714
         9.500           9.500
                  -2982277.127 5  -2323849.809 5  23046193.136    23046192.577
        11.750          11.250
                    697838.679 7    543769.757 6  20781781.472    20781780.390
        21.250          21.250
                  -7201511.169 6  -5611563.800 6  22380003.745    22380003.210
        13.250          12.000
 95  4 24 15 31 59.9990000  0  6G18G19G27G28G29G31
                  -2968328.644 7  -2312982.347 6  20026970.065    20026969.116
        23.500          16.750
                  -3993786.329 6  -3112040.631 6  20919556.378    20919556.522
        18.500          19.750
                  -6675847.886 5  -5201956.985 5  23137487.214    23137487.937
         9.500           9.500
                  -2990592.974 6  -2330329.690 5  23044610.987    23044610.159
        12.250          11.000
                    712406.169 7    555121.038 6  20784553.940    20784552.476
        21.500          20.750
                  -7242062.264 6  -5643162.042 6  22372286.940    22372287.026
        13.000          12.500
 95  4 24 15 32 14.9990000  0  6G18G19G27G28G29G31
                  -2977569.645 7  -2320183.127 6  20025211.605    20025210.612
        23.750          17.000
                  -4014935.824 6  -3128520.757 6  20915531.917    20915532.007
        18.750          20.000
                  -6716612.093 5  -5233721.297 5  23129730.167    23129730.448
         9.500           9.250
                  -2998735.140 6  -2336674.217 5  23043061.526    23043060.394
        12.250          10.750
                    727118.732 7    566585.361 6  20787353.597    20787352.073
        21.500          20.750
                  -7282483.177 6  -5674658.848 6  22364594.620    22364595.171
        12.500          12.500
 95  4 24 15 32 29.9990000  0  6G18G19G27G28G29G31
                  -2986657.158 7  -2327264.305 6  20023482.214    20023481.397
        23.750          17.000
                  -4036001.500 6  -3144935.561 6  20911523.511    20911523.386
        19.000          20.000
                  -6757326.043 5  -5265446.436 5  23121982.769    23121983.105
         9.750           9.250
                  -3006704.215 6  -2342883.875 5  23041545.034    23041543.737
        12.000          10.750
                    741978.085 7    578164.073 6  20790180.698    20790179.687
        20.250          20.750
                  -7322772.675 6  -5706053.249 5  22356927.401    22356927.784
        12.250          11.750
 95  4 24 15 32 44.9990000  0  6G18G19G27G28G29G31
                  -2995588.983 7  -2334224.164 6  20021782.456    20021781.651
        23.750          17.000
                  -4056984.297 6  -3161285.788 6  20907530.722    20907530.675
        19.250          20.250
                  -6797987.702 5  -5297130.834 5  23114245.026    23114245.421
         9.750           9.250
                  -3014501.004 5  -2348959.278 5  23040060.847    23040060.460
        11.750          11.000
                    756986.516 6    589858.949 6  20793036.269    20793035.819
        19.250          21.000
                  -7362931.252 6  -5737345.630 5  22349285.886    22349285.265
        12.750          11.250
 95  4 24 15 32 59.9990000  0  6G18G19G27G28G29G31
                  -3004363.514 7  -2341061.461 6  20020113.011    20020112.183
        24.000          17.000
                  -4077887.153 6  -3177573.717 6  20903552.995    20903553.019
        19.500          20.250
                  -6838599.323 5  -5328776.238 5  23106517.073    23106517.300
         9.750           9.000
                  -3022128.170 5  -2354902.512 5  23038609.034    23038609.073
        11.000          11.000
                    772144.039 6    601670.011 6  20795920.519    20795920.202
        19.000          21.250
                  -7402957.819 6  -5768535.137 5  22341668.831    22341668.366
        12.750          11.250
 95  4 24 15 33 14.9990000  0  6G18G19G27G28G29G31
                  -3012978.513 7  -2347774.445 6  20018473.558    20018472.663
        24.000          17.000
                  -4098703.772 6  -3193794.453 6  20899591.534    20899591.483
        19.250          20.250
                  -6879157.974 5  -5360380.368 5  23098798.901    23098799.335
         9.500           9.000
                  -3029583.502 5  -2360711.858 5  23037190.456    23037190.183
        11.000          11.250
                    787453.550 6    613599.503 6  20798834.034    20798833.769
        19.500          21.500
                  -7442850.886 6  -5799620.618 6  22334077.386    22334077.983
        12.750          12.250
 95  4 24 15 33 29.9990000  0  6G18G19G27G28G29G31
                  -3021436.086 7  -2354364.760 6  20016864.026    20016863.300
        23.500          17.000
                  -4119433.493 6  -3209947.475 6  20895646.901    20895646.788
        19.000          19.750
                  -6919661.858 5  -5391941.821 5  23091091.370    23091091.745
         9.500           8.750
                  -3036868.645 5  -2366388.588 5  23035804.370    23035804.159
        11.000          11.500
                    802913.613 7    625646.305 6  20801776.284    20801775.577
        20.500          21.500
                  -7482614.302 6  -5830605.086 6  22326510.526    22326511.815
        12.750          12.750
 95  4 24 15 33 44.9990000  0  6G18G19G27G28G29G31
                  -3029736.652 7  -2360832.728 6  20015284.253    20015283.550
        23.250          16.750
                  -4140076.579 6  -3226032.992 6  20891718.683    20891718.468
        19.000          19.750
                  -6960108.618 5  -5423458.765 5  23083394.690    23083394.620
         9.250           8.750
                  -3043983.558 5  -2371932.668 5  23034450.605    23034450.362
        11.250          11.500
                    818526.433 7    637812.136 6  20804747.464    20804746.558
        21.250          21.500
                  -7522249.469 6  -5861489.631 6  22318968.073    22318969.519
        12.500          13.000
 95  4 24 15 33 59.9990000  0  6G18G19G27G28G29G31
                  -3037876.013 7  -2367175.087 6  20013735.605    20013734.628
        23.250          16.750
                  -4160632.690 6  -3242050.737 6  20887806.878    20887806.866
        19.250          20.000
                  -7000494.502 5  -5454928.270 5  23075709.573    23075709.288
         9.250           8.500
                  -3050926.369 5  -2377342.641 5  23033129.745    23033129.046
        11.500          11.500
                    834295.602 7    650099.792 6  20807748.495    20807747.296
        21.250          21.000
                  -7561753.696 6  -5892272.134 6  22311450.901    22311451.745
        12.750          12.750
 95  4 24 15 34 14.9990000  0  6G18G19G27G28G29G31
                  -3045854.438 7  -2373392.038 6  20012217.456    20012216.460
        23.500          16.750
                  -4181104.184 6  -3258002.544 6  20883911.081    20883911.249
        19.250          20.000
                  -7040818.277 5  -5486349.379 5  23068035.948    23068035.909
         9.000           8.500
                  -3057697.052 5  -2382618.491 5  23031841.136    23031840.663
        11.500          11.500
                    850219.234 7    662507.813 6  20810778.417    20810777.409
        20.750          20.750
                  -7601123.744 6  -5922950.088 6  22303958.972    22303959.429
        13.000          12.500
 95  4 24 15 34 29.9990000  0  6G18G19G27G28G29G31
                  -3053675.033 7  -2379486.008 6  20010729.183    20010728.358
        23.500          16.750
                  -4201492.720 6  -3273889.711 6  20880031.245    20880031.401
        19.250          20.250
                  -7081080.558 5  -5517722.570 5  23060373.870    23060374.272
         8.750           8.250
                  -3064298.573 5  -2387762.525 5  23030584.925    23030584.714
        11.500          11.750
                    866292.170 7    675032.174 6  20813836.808    20813835.831
        20.000          20.250
                  -7640361.539 6  -5953524.981 6  22296492.690    22296492.897
        13.250          12.250
 95  4 24 15 34 44.9990000  0  6G18G19G27G28G29G31
                  -3061334.339 7  -2385454.299 6  20009271.511    20009270.847
        23.500          16.750
                  -4221799.675 6  -3289713.304 6  20876167.097    20876167.144
        19.000          19.750
                  -7121278.922 5  -5549045.960 5  23052724.409    23052724.753
         8.750           8.250
                  -3070728.496 5  -2392772.844 5  23029361.136    23029361.198
        11.250          11.500
                    882513.477 6    687672.152 6  20816923.519    20816922.601
        19.500          20.000
                  -7679468.161 6  -5983997.658 6  22289050.964    22289051.030
        13.500          12.250
 95  4 24 15 34 59.9990000  0  6G18G19G27G28G29G31
                  -3068831.692 7  -2391296.389 6  20007845.003    20007844.331
        23.750          17.000
                  -4242026.987 6  -3305474.844 6  20872317.925    20872317.733
        19.000          19.750
                  -7161417.122 5  -5580322.461 5  23045086.300    23045086.753
         8.500           8.250
                  -3076987.283 5  -2397649.812 5  23028169.706    23028170.003
        11.000          11.500
                    898880.509 6    700425.682 6  20820038.105    20820037.546
        19.750          20.250
                  -7718447.156 6  -6014370.885 6  22281633.886    22281633.468
        14.250          12.250
 95  4 24 15 35 14.9990000  0  6G18G19G27G28G29G31
                  -3076167.834 7  -2397012.859 6  20006449.011    20006448.206
        24.000          17.250
                  -4262171.786 6  -3321172.084 6  20868484.698    20868484.440
        19.250          19.750
                  -7201493.306 5  -5611550.645 5  23037460.042    23037460.315
         8.500           8.250
                  -3083074.285 5  -2402392.923 5  23027011.347    23027011.515
        10.750          11.500
                    915390.521 7    713290.623 6  20823179.995    20823179.390
        20.250          20.750
                  -7757299.687 6  -6044645.568 6  22274240.659    22274239.835
        14.250          12.500
 95  4 24 15 35 29.9990000  0  6G18G19G27G28G29G31
                  -3083343.155 7  -2402604.016 6  20005083.558    20005082.796
        23.750          17.250
                  -4282232.146 6  -3336803.531 6  20864667.315    20864667.159
        19.250          20.000
                  -7241505.866 5  -5642729.254 5  23029845.815    23029846.198
         8.250           8.250
                  -3088987.695 5  -2407000.764 5  23025885.995    23025886.331
        10.750          11.250
                    932042.194 7    726265.948 6  20826348.933    20826348.378
        20.500          21.000
                  -7796025.011 6  -6074821.138 6  22266871.331    22266870.980
        13.750          12.500
 95  4 24 15 35 44.9990000  0  6G18G19G27G28G29G31
                  -3090357.250 7  -2408069.543 6  20003748.784    20003748.073
        23.750          17.250
                  -4302215.345 6  -3352374.849 6  20860864.690    20860864.526
        19.250          20.000
                  -7281456.639 5  -5673859.707 5  23022243.542    23022243.495
         8.250           8.250
                  -3094728.488 5  -2411474.104 5  23024793.690    23024793.761
        11.000          11.500
                    948834.113 7    739350.559 6  20829544.237    20829543.827
        20.750          21.500
                  -7834622.780 6  -6104897.309 6  22259526.011    22259526.062
        13.250          12.750
 95  4 24 15 35 59.9990000  0  6G18G19G27G28G29G31
                  -3097207.527 7  -2413407.421 6  20002445.308    20002444.522
        23.500          17.250
                  -4322121.186 6  -3367885.888 6  20857076.690    20857076.499
        19.250          20.000
                  -7321347.559 5  -5704943.526 5  23014652.612    23014652.573
         8.250           8.500
                  -3100295.858 5  -2415812.310 5  23023734.761    23023734.245
        11.500          11.250
                    965767.118 7    752545.107 6  20832766.230    20832766.062
        20.000          21.500
                  -7873090.192 6  -6134871.906 6  22252205.620    22252205.937
        13.000          12.500
 95  4 24 15 36 14.9990000  0  6G18G19G27G28G29G31
                  -3103895.635 7  -2418618.932 6  20001172.480    20001171.815
        23.500          17.000
                  -4341949.029 6  -3383336.150 6  20853303.714    20853303.468
        19.500          20.000
                  -7361180.503 5  -5735982.170 5  23007072.456    23007072.597
         8.250           8.500
                  -3105690.346 5  -2420015.801 5  23022708.222    23022708.019
        11.750          11.750
                    982837.333 6    765846.578 6  20836014.230    20836014.292
        19.500          21.250
                  -7911425.311 6  -6164743.410 6  22244910.800    22244910.925
        13.500          12.500
 95  4 24 15 36 29.9990000  0  6G18G19G27G28G29G31
                  -3110423.991 7  -2423705.958 6  19999929.901    19999929.558
        22.750          16.750
                  -4361698.615 6  -3398725.432 6  20849545.519    20849545.085
        19.750          19.750
                  -7400957.498 5  -5766977.216 5  22999503.190    22999503.550
         8.250           8.750
                  -3110913.161 5  -2424085.520 5  23021714.480    23021714.343
        11.750          11.750
                   1000041.115 6    779252.123 6  20839287.925    20839287.765
        19.250          20.750
                  -7949629.798 6  -6194513.123 6  22237640.870    22237640.858
        13.750          12.750
 95  4 24 15 36 44.9990000  0  6G18G19G27G28G29G31
                  -3116793.030 7  -2428668.847 6  19998717.933    19998717.491
        22.750          16.750
                  -4381373.119 6  -3414056.216 6  20845801.667    20845801.276
        19.750          20.000
                  -7440679.468 5  -5797929.380 5  22991944.409    22991944.874
         8.500           8.750
                  -3115963.760 6  -2428021.048 5  23020753.433    23020753.132
        12.000          11.750
                   1017381.487 6    792764.100 6  20842588.019    20842587.390
        19.500          20.250
                  -7987703.930 6  -6224181.261 6  22230395.198    22230395.694
        13.250          13.250
 95  4 24 15 36 59.9990000  0  6G18G19G27G28G29G31
                  -3123004.986 7  -2433509.332 6  19997535.745    19997535.062
        22.750          16.500
                  -4400978.072 6  -3429332.802 6  20842071.050    20842070.687
        19.500          20.000
                  -7480348.629 5  -5828840.395 5  22984395.409    22984395.999
         8.500           9.000
                  -3120842.544 5  -2431822.695 5  23019824.972    23019824.714
        11.500          11.750
                   1034862.193 7    806385.429 6  20845914.526    20845913.632
        20.000          20.000
                  -8025648.488 6  -6253748.430 6  22223173.901    22223175.339
        12.500          13.250
 95  4 24 15 37 14.9990000  0  6G18G19G27G28G29G31
                  -3129059.677 7  -2438227.273 6  19996383.839    19996382.890
        23.000          16.250
                  -4420510.360 6  -3444552.758 6  20838353.980    20838353.858
        19.500          20.250
                  -7519961.541 5  -5859707.585 5  22976857.706    22976857.956
         8.500           9.000
                  -3125548.540 5  -2435489.700 5  23018929.339    23018929.261
        11.500          11.750
                   1052486.548 7    820118.687 6  20849268.581    20849267.620
        20.000          20.000
                  -8063458.381 6  -6283210.677 6  22215978.722    22215980.347
        12.500          13.500
 95  4 24 15 37 29.9990000  0  6G18G19G27G28G29G31
                  -3134959.237 7  -2442824.337 6  19995261.206    19995260.230
        23.000          16.500
                  -4439971.266 6  -3459717.094 6  20834650.690    20834650.597
        19.500          20.250
                  -7559518.609 5  -5890531.266 5  22969330.105    22969330.155
         8.500           9.000
                  -3130081.587 5  -2439021.942 5  23018066.706    23018065.995
        11.500          11.500
                   1070253.908 7    833963.377 6  20852649.480    20852648.620
        20.000          20.500
                  -8101132.809 6  -6312567.361 6  22208810.105    22208810.933
        13.000          13.500
 95  4 24 15 37 44.9990000  0  6G18G19G27G28G29G31
                  -3140704.333 7  -2447301.034 6  19994168.011    19994167.269
        23.500          16.750
                  -4459363.377 6  -3474827.827 6  20830960.370    20830960.269
        19.500          20.000
                  -7599022.216 5  -5921313.283 5  22961812.722    22961813.065
         8.500           9.250
                  -3134441.188 5  -2442419.029 5  23017236.886    23017236.366
        11.500          11.250
                   1088165.860 7    847920.740 6  20856058.136    20856057.605
        20.250          21.000
                  -8138669.599 6  -6341816.792 6  22201667.690    22201667.976
        14.000          13.750
 95  4 24 15 37 59.9990000  0  6G18G19G27G28G29G31
                  -3146295.302 7  -2451657.629 6  19993104.144    19993103.577
        24.000          17.250
                  -4478684.500 6  -3489883.247 6  20827283.706    20827283.538
        19.500          20.000
                  -7638475.021 5  -5952055.716 5  22954304.925    22954305.374
         8.500           9.250
                  -3138627.983 5  -2445681.461 5  23016440.667    23016439.925
        11.750          11.500
                   1106223.673 7    861991.763 6  20859494.409    20859494.077
        20.000          21.500
                  -8176069.207 6  -6370959.325 6  22194550.776    22194551.483
        14.000          14.000
 95  4 24 15 38 14.9990000  0  6G18G19G27G28G29G31
                  -3151732.832 7  -2455894.667 6  19992069.480    19992068.894
        24.000          17.500
                  -4497930.688 6  -3504880.272 6  20823620.980    20823621.022
        19.250          20.000
                  -7677877.176 5  -5982758.680 5  22946806.956    22946807.710
         8.250           9.500
                  -3142642.016 6  -2448809.275 5  23015676.855    23015675.999
        12.250          11.500
                   1124426.996 6    876176.173 6  20862958.378    20862958.116
        19.750          21.500
                  -8213330.582 6  -6399994.145 6  22187460.167    22187461.062
        13.750          14.000
 95  4 24 15 38 29.9990000  0  6G18G19G27G28G29G31
                  -3157014.344 7  -2460010.128 6  19991064.284    19991063.761
        23.750          17.500
                  -4517101.328 6  -3519818.428 6  20819973.065    20819973.026
        19.250          20.250
                  -7717225.806 5  -6013419.929 5  22939319.105    22939320.038
         8.250           9.750
                  -3146480.797 6  -2451800.524 5  23014946.542    23014945.374
        12.500          11.750
                   1142778.028 6    890475.675 6  20866450.120    20866449.800
        19.500          21.250
                  -8250451.471 6  -6428919.498 6  22180395.933    22180396.780
        13.500          13.750
 95  4 24 15 38 44.9990000  0  6G18G19G27G28G29G31
                  -3162138.245 7  -2464002.774 6  19990089.292    19990088.792
        23.250          17.500
                  -4536195.683 6  -3534697.138 6  20816339.573    20816339.526
        19.250          20.000
                  -7756520.907 5  -6044039.471 5  22931841.362    22931842.558
         8.250          10.000
                  -3150143.928 6  -2454654.902 5  23014249.581    23014248.663
        12.250          11.750
                   1161280.059 6    904892.845 6  20869970.940    20869970.362
        19.250          20.500
                  -8287432.244 6  -6457735.672 6  22173358.792    22173359.214
        13.250          13.000
 95  4 24 15 38 59.9990000  0  6G18G19G27G28G29G31
                  -3167103.640 7  -2467871.908 6  19989144.128    19989143.792
        23.000          17.500
                  -4555214.486 6  -3549516.980 6  20812720.605    20812720.417
        19.500          20.250
                  -7795765.185 5  -6074619.405 5  22924373.378    22924374.386
         8.250          10.000
                  -3153633.569 6  -2457374.098 6  23013585.355    23013584.843
        12.500          12.250
                   1179929.418 6    919424.810 6  20873519.730    20873519.015
        19.500          20.250
                  -8324274.172 6  -6486443.656 6  22166348.230    22166348.319
        14.000          13.000
 95  4 24 15 39 14.9990000  0  6G18G19G27G28G29G31
                  -3171903.573 7  -2471612.112 6  19988230.651    19988230.448
        22.500          17.250
                  -4574150.539 6  -3564272.342 6  20809117.019    20809116.878
        19.500          20.000
                  -7834954.745 5  -6105156.712 5  22916915.855    22916916.730
         8.500          10.000
                  -3156947.683 6  -2459956.520 6  23012954.628    23012954.069
        12.000          12.000
                   1198723.317 6    934069.401 6  20877096.448    20877095.667
        19.750          20.250
                  -8360974.472 6  -6515041.270 6  22159364.589    22159364.597
        14.500          13.250
 95  4 24 15 39 29.9990000  0  6G18G19G27G28G29G31
                  -3176535.198 7  -2475221.167 6  19987349.175    19987348.897
        22.250          16.750
                  -4592999.878 6  -3578960.133 6  20805530.269    20805529.886
        19.500          20.000
                  -7874090.896 5  -6135652.396 5  22909468.745    22909469.210
         8.500          10.000
                  -3160086.336 6  -2462402.221 6  23012357.362    23012356.780
        12.000          12.000
                   1217658.051 7    948823.732 6  20880699.597    20880698.851
        20.250          20.500
                  -8397532.172 6  -6543527.769 6  22152407.909    22152407.968
        14.500          13.250
 95  4 24 15 39 44.9990000  0  6G18G19G27G28G29G31
                  -3181001.601 7  -2478701.481 6  19986499.386    19986498.901
        22.500          16.750
                  -4611765.092 6  -3593582.375 6  20801959.409    20801958.972
        19.500          20.000
                  -7913179.255 5  -6166110.844 5  22902030.542    22902030.999
         8.750          10.000
                  -3163052.432 5  -2464713.463 6  23011792.612    23011792.472
        11.500          12.000
                   1236728.818 7    963684.067 6  20884328.675    20884328.226
        20.250          21.250
                  -8433953.623 6  -6571908.106 6  22145476.940    22145477.409
        14.500          13.500
 95  4 24 15 39 59.9990000  0  6G18G19G27G28G29G31
                  -3185300.170 7  -2482051.016 6  19985681.558    19985680.929
        23.000          16.500
                  -4630442.697 6  -3608136.351 6  20798405.190    20798404.718
        19.500          20.250
                  -7952217.509 5  -6196530.248 5  22894601.605    22894602.343
         9.000          10.000
                  -3165844.243 5  -2466888.898 5  23011261.222    23011260.952
        11.500          11.750
                   1255940.319 6    978654.064 6  20887984.323    20887984.366
        19.750          21.500
                  -8470234.985 6  -6600179.286 6  22138572.722    22138573.124
        14.250          13.500
 95  4 24 15 40 14.9990000  0  6G18G19G27G28G29G31
                  -3189430.168 7  -2485269.203 6  19984895.831    19984895.030
        23.500          16.500
                  -4649031.803 6  -3622621.362 6  20794868.042    20794867.671
        19.500          20.250
                  -7991201.735 5  -6226907.548 5  22887183.347    22887183.999
         9.250          10.000
                  -3168461.832 5  -2468928.575 5  23010763.206    23010762.698
        11.500          11.500
                   1275292.944 6    993734.034 6  20891666.855    20891667.077
        19.250          21.750
                  -8506373.973 6  -6628339.528 6  22131695.761    22131695.800
        14.250          13.500
 95  4 24 15 40 29.9990000  0  6G18G19G27G28G29G31
                  -3193394.034 7  -2488357.931 6  19984141.526    19984140.792
        23.750          16.750
                  -4667537.740 6  -3637041.566 6  20791346.370    20791346.222
        19.250          20.250
                  -8030133.472 5  -6257243.960 5  22879775.019    22879775.640
         9.500          10.250
                  -3170908.032 5  -2470834.702 5  23010297.394    23010297.390
        11.250          11.250
                   1294783.272 6   1008921.305 6  20895375.753    20895375.894
        19.250          21.500
                  -8542373.115 6  -6656390.792 6  22124845.315    22124845.440
        14.000          13.250
 95  4 24 15 40 44.9990000  0  6G18G19G27G28G29G31
                  -3197188.339 7  -2491314.536 6  19983419.558    19983418.890
        24.000          17.250
                  -4685957.320 6  -3651394.481 6  20787841.081    20787841.019
        19.500          20.250
                  -8069008.984 5  -6287536.556 5  22872377.315    22872377.659
         9.500          10.250
                  -3173179.227 5  -2472604.460 5  23009865.401    23009865.183
        11.500          11.250
                   1314416.696 6   1024220.075 6  20899112.105    20899111.761
        19.750          21.250
                  -8578228.663 6  -6684330.160 6  22118022.198    22118022.308
        14.000          13.000
 95  4 24 15 40 59.9990000  0  6G18G19G27G28G29G31
                  -3200815.623 7  -2494140.991 6  19982729.362    19982728.659
        23.750          17.500
                  -4704293.151 6  -3665682.137 6  20784351.815    20784351.659
        19.500          20.250
                  -8107830.754 5  -6317787.271 5  22864989.683    22864989.921
         9.500          10.250
                  -3175276.926 5  -2474239.024 5  23009466.448    23009465.843
        11.750          11.000
                   1334190.116 7   1039627.930 6  20902875.269    20902874.401
        20.250          20.750
                  -8613941.288 6  -6712158.160 6  22111226.230    22111226.487
        14.000          13.250
 95  4 24 15 41 14.9990000  0  6G18G19G27G28G29G31
                  -3204279.071 7  -2496839.782 6  19982070.167    19982069.659
        23.500          17.750
                  -4722547.326 6  -3679906.166 6  20780878.105    20780877.886
        19.250          20.250
                  -8146596.795 5  -6347994.564 5  22857612.901    22857613.167
         9.750          10.500
                  -3177200.435 5  -2475737.856 5  23009100.440    23009099.866
        11.750          11.250
                   1354105.119 7   1055146.106 6  20906665.003    20906663.675
        20.750          20.250
                  -8649511.124 6  -6739874.895 6  22104457.503    22104458.011
        14.000          13.750
 95  4 24 15 41 29.9990000  0  6G18G19G27G28G29G31
                  -3207583.864 7  -2499414.939 6  19981440.917    19981440.679
        22.500          17.750
                  -4740720.699 6  -3694067.232 6  20777419.737    20777419.612
        19.000          20.000
                  -8185307.026 5  -6378158.365 5  22850246.417    22850246.819
         9.750          10.250
                  -3178948.779 5  -2477100.193 5  23008767.698    23008767.507
        11.500          11.250
                   1374167.367 7   1070779.014 6  20910482.761    20910481.507
        20.500          20.000
                  -8684937.241 6  -6767479.641 6  22097716.042    22097716.644
        13.750          13.750
 95  4 24 15 41 44.9990000  0  6G18G19G27G28G29G31
                  -3210734.894 7  -2501870.278 6  19980841.409    19980841.179
        22.500          17.750
                  -4758813.762 6  -3708165.717 6  20773976.800    20773976.901
        19.250          20.500
                  -8223961.786 5  -6408278.938 5  22842890.667    22842891.046
        10.000          10.250
                  -3180521.258 5  -2478325.502 5  23008468.230    23008468.050
        11.500          11.250
                   1394380.619 7   1086529.593 6  20914328.925    20914328.198
        20.000          20.750
                  -8720219.487 6  -6794972.283 6  22091002.034    22091002.765
        14.000          14.250
 95  4 24 15 41 59.9990000  0  6G18G19G27G28G29G31
                  -3213734.078 7  -2504207.298 6  19980270.558    19980270.374
        22.250          17.250
                  -4776830.247 6  -3722204.532 6  20770548.386    20770548.460
        19.500          20.500
                  -8262562.891 5  -6438357.708 5  22835544.956    22835545.706
         9.750          10.500
                  -3181920.698 5  -2479415.976 5  23008201.800    23008201.913
        11.250          11.250
                   1414746.528 6   1102399.130 6  20918204.019    20918203.882
        19.250          20.750
                  -8755356.953 6  -6822352.116 6  22084315.292    22084316.155
        13.750          14.000
 95  4 24 15 42 14.9990000  0  6G18G19G27G28G29G31
                  -3216578.478 7  -2506423.712 6  19979729.378    19979728.901
        22.500          17.000
                  -4794769.915 6  -3736183.487 6  20767134.550    20767134.526
        19.500          20.250
                  -8301106.315 5  -6468391.529 5  22828210.487    22828211.062
        10.000          10.250
                  -3183146.216 5  -2480370.930 5  23007968.675    23007968.909
        11.250          11.500
                   1435268.347 6   1118390.163 6  20922108.925    20922109.175
        18.750          21.000
                  -8790347.736 6  -6849617.639 6  22077656.956    22077657.456
        13.750          13.500
 95  4 24 15 42 29.9990000  0  6G18G19G27G28G29G31
                  -3219265.050 7  -2508517.144 6  19979218.034    19979217.433
        22.750          16.500
                  -4812630.745 6  -3750101.018 6  20763735.745    20763735.733
        19.500          20.500
                  -8339591.274 5  -6498379.797 5  22820887.050    22820887.718
         9.750          10.250
                  -3184195.672 5  -2481188.692 5  23007769.011    23007769.233
        11.250          11.500
                   1455945.529 6   1134502.250 6  20926043.956    20926043.901
        19.250          20.750
                  -8825193.982 6  -6876770.542 6  22071025.792    22071026.054
        14.000          13.500
 95  4 24 15 42 44.9990000  0  6G18G19G27G28G29G31
                  -3221792.712 7  -2510486.758 6  19978737.456    19978736.538
        23.500          16.250
                  -4830412.000 6  -3763956.534 6  20760351.972    20760352.042
        19.250          20.500
                  -8378020.461 5  -6528324.602 5  22813574.448    22813574.890
         9.750          10.250
                  -3185069.476 5  -2481869.579 5  23007602.901    23007602.897
        11.500          11.500
                   1476778.151 7   1150735.460 6  20930008.644    20930008.085
        20.250          20.500
                  -8859898.459 6  -6903812.970 6  22064421.808    22064422.073
        13.750          13.500
 95  4 24 15 42 59.9990000  0  6G18G19G27G28G29G31
                  -3224164.646 7  -2512335.025 6  19978286.331    19978285.108
        24.000          16.000
                  -4848115.663 6  -3777751.592 6  20756983.128    20756983.218
        19.000          20.750
                  -8416395.949 5  -6558227.573 5  22806271.690    22806272.167
         9.750          10.000
                  -3185769.158 5  -2482414.784 5  23007469.753    23007469.628
        11.250          11.250
                   1497764.360 7   1167088.342 6  20934002.347    20934001.253
        20.500          20.000
                  -8894462.022 6  -6930745.596 6  22057844.519    22057844.823
        14.000          13.500
 95  4 24 15 43 14.9990000  0  6G18G19G27G28G29G31
                  -3226381.403 7  -2514062.381 6  19977864.628    19977863.515
        24.000          16.250
                  -4865739.689 6  -3791484.592 6  20753629.636    20753629.616
        19.250          20.750
                  -8454718.312 5  -6588089.139 5  22798979.167    22798979.659
         9.750           9.750
                  -3186295.127 5  -2482824.628 5  23007369.370    23007369.593
        11.250          11.250
                   1518902.219 7   1183559.392 6  20938024.745    20938023.687
        20.250          19.750
                  -8928886.402 6  -6957569.770 6  22051294.058    22051293.980
        14.000          13.500
 95  4 24 15 43 29.9990000  0  6G18G19G27G28G29G31
                  -3228439.985 7  -2515666.478 6  19977472.722    19977471.870
        23.750          16.750
                  -4883279.185 6  -3805151.728 6  20750291.925    20750291.991
        19.250          20.750
                  -8492985.186 5  -6617907.467 5  22791697.292    22791697.499
         9.750           9.500
                  -3186645.585 5  -2483097.707 5  23007302.847    23007302.640
        11.250          11.000
                   1540192.738 6   1200149.398 6  20942076.034    20942075.159
        19.500          19.750
                  -8963169.414 6  -6984283.789 6  22044770.269    22044770.050
        14.250          13.500
 95  4 24 15 43 44.9990000  0  6G18G19G27G28G29G31
                  -3230337.425 7  -2517145.003 6  19977111.378    19977110.929
        23.500          17.250
                  -4900734.574 6  -3818753.322 6  20746970.230    20746970.233
        19.250          20.500
                  -8531200.096 5  -6647685.312 5  22784425.128    22784425.331
         9.500           9.750
                  -3186821.502 5  -2483234.776 5  23007269.487    23007269.210
        11.500          11.000
                   1561633.598 6   1216856.557 6  20946155.901    20946155.394
        19.250          20.000
                  -8997309.628 6  -7010886.525 6  22038273.550    22038273.222
        14.250          13.500
 95  4 24 15 43 59.9990000  0  6G18G19G27G28G29G31
                  -3232069.406 7  -2518494.597 6  19976781.659    19976781.437
        23.000          17.500
                  -4918106.644 6  -3832289.993 6  20743664.448    20743664.312
        19.250          20.250
                  -8569361.949 5  -6677421.804 5  22777163.019    22777163.515
         9.500          10.000
                  -3186822.574 5  -2483235.605 5  23007269.386    23007269.026
        11.500          11.000
                   1583223.330 6   1233679.726 6  20950264.456    20950264.003
        19.500          20.250
                  -9031307.842 6  -7037378.613 6  22031803.909    22031803.546
        14.250          13.500
 95  4 24 15 44 14.9990000  0  6G18G19G27G28G29G31
                  -3233635.957 7  -2519715.285 6  19976483.511    19976483.429
        22.750          18.000
                  -4935398.620 6  -3845764.258 6  20740373.886    20740373.624
        19.500          20.250
                  -8607469.989 5  -6707116.361 5  22769911.331    22769911.491
         9.750          10.000
                  -3186649.085 5  -2483100.417 5  23007302.190    23007302.042
        11.250          11.000
                   1604959.510 6   1250617.010 6  20954400.909    20954400.421
        19.750          20.250
                  -9065166.203 6  -7063761.734 6  22025360.683    22025360.788
        14.250          13.750
 95  4 24 15 44 29.9990000  0  6G18G19G27G28G29G31
                  -3235041.922 7  -2520810.837 6  19976215.948    19976215.772
        22.500          18.000
                  -4952612.167 6  -3859177.409 6  20737098.331    20737098.112
        19.500          20.250
                  -8645525.019 5  -6736769.618 5  22762669.995    22762669.952
        10.000           9.750
                  -3186301.986 5  -2482829.952 5  23007368.167    23007368.214
        11.000          11.250
                   1626835.456 7   1267663.197 6  20958563.847    20958563.179
        20.250          20.250
                  -9098886.284 6  -7090037.102 6  22018944.073    22018944.257
        14.250          14.000
 95  4 24 15 44 44.9990000  0  6G18G19G27G28G29G31
                  -3236285.976 7  -2521780.222 6  19975979.237    19975979.038
        22.750          17.500
                  -4969746.250 6  -3872528.637 6  20733837.823    20733837.847
        19.250          20.500
                  -8683526.415 5  -6766381.090 5  22755438.792    22755438.526
        10.250          10.000
                  -3185779.275 5  -2482422.650 5  23007467.706    23007467.823
        11.000          11.500
                   1648849.585 7   1284817.058 6  20962752.956    20962752.253
        20.250          20.000
                  -9132462.243 6  -7116200.168 6  22012555.019    22012555.265
        14.750          14.500
 95  4 24 15 44 59.9990000  0  6G18G19G27G28G29G31
                  -3237369.954 7  -2522624.880 6  19975773.105    19975772.581
        23.000          17.000
                  -4986801.045 6  -3885818.074 6  20730592.433    20730592.464
        19.250          20.500
                  -8721472.305 5  -6795949.301 5  22748217.597    22748217.612
        10.000          10.000
                  -3185080.957 5  -2481878.512 5  23007600.815    23007600.886
        11.500          11.500
                   1671001.571 7   1302078.340 6  20966968.175    20966967.323
        20.000          19.750
                  -9165888.530 6  -7142246.603 6  22006194.558    22006194.456
        15.250          14.500
 95  4 24 15 45 14.9990000  0  6G18G19G27G28G29G31
                  -3238295.427 7  -2523346.031 6  19975597.128    19975596.292
        23.500          16.500
                  -5003777.187 6  -3899046.234 6  20727361.933    20727361.788
        19.750          20.250
                  -8759362.687 5  -6825474.264 5  22741007.276    22741007.132
        10.250          10.000
                  -3184207.645 5  -2481198.011 5  23007767.019    23007767.155
        11.750          11.750
                   1693290.716 6   1319446.498 6  20971209.620    20971208.956
        19.750          19.750
                  -9199166.721 6  -7168177.638 6  21999861.839    21999861.784
        15.500          14.500
 95  4 24 15 45 29.9990000  0  6G18G19G27G28G29G31
                  -3239058.142 7  -2523940.360 6  19975452.214    19975451.128
        23.500          15.750
                  -5020672.224 6  -3912211.196 6  20724146.901    20724146.718
        19.500          20.250
                  -8797192.870 5  -6854952.316 5  22733808.472    22733808.296
        10.250          10.250
                  -3183157.377 5  -2480379.623 5  23007966.831    23007966.714
        11.750          11.500
                   1715720.020 6   1336923.875 6  20975477.894    20975477.175
        19.500          19.750
                  -9232294.789 6  -7193991.696 6  21993557.487    21993557.620
        15.000          14.250
 95  4 24 15 45 44.9990000  0  7G 2G18G19G27G28G29G31
                     -7685.66615                                  21993559.460
         7.000
                  -3239658.992 7  -2524408.560 6  19975337.886    19975336.499
        23.500          15.750
                  -5037491.448 6  -3925317.081 6  20720946.159    20720946.257
        19.250          20.250
                  -8834964.033 5  -6884384.372 5  22726620.433    22726620.737
        10.250          10.250
                  -3181931.692 5  -2479424.546 5  23008200.112    23008199.964
        11.750          11.250
                   1738288.148 6   1354509.427 6  20979772.440    20979771.714
        19.500          19.750
                  -9265270.885 6  -7219687.339 6  21987282.105    21987282.515
        14.500          14.250
 95  4 24 15 45 59.9990000  0  7G 2G18G19G27G28G29G31
                    -36128.116 5    -46086.316 5  24141664.198    24141666.413
         7.500           7.000
                  -3240098.172 7  -2524750.784 6  19975254.237    19975252.878
        23.500          15.750
                  -5054235.069 6  -3938364.051 6  20717760.151    20717760.249
        19.250          20.500
                  -8872675.036 5  -6913769.558 5  22719444.331    22719444.870
        10.500          10.500
                  -3180530.403 5  -2478332.632 5  23008466.714    23008466.452
        11.750          11.000
                   1760996.356 6   1372204.130 6  20984093.659    20984093.093
        19.500          19.750
                  -9298097.258 6  -7245266.320 6  21981035.339    21981035.651
        14.250          14.000
 95  4 24 15 46 14.9990000  0  7G 2G18G19G27G28G29G31
                    -85324.904 5    -84421.450 5  24132301.409    24132304.616
         7.500           6.750
                  -3240378.266 7  -2524969.042 6  19975200.862    19975199.761
        23.000          16.250
                  -5070903.529 6  -3951352.456 6  20714588.472    20714588.230
        19.750          20.500
                  -8910325.155 5  -6943107.296 5  22712279.800    22712280.190
        10.500          10.750
                  -3178955.853 5  -2477105.705 5  23008766.339    23008765.702
        11.500          10.500
                   1783839.836 6   1390004.242 6  20988440.620    20988439.917
        19.500          19.500
                  -9330775.870 6  -7270730.151 6  21974817.019    21974817.089
        14.500          14.000
 95  4 24 15 46 29.9990000  0  7G 2G18G19G27G28G29G31
                   -134435.259 4   -122689.231 5  24122954.855    24122958.308
         6.750           6.750
                  -3240499.781 7  -2525063.731 6  19975177.644    19975177.046
        22.750          16.750
                  -5087494.984 6  -3964280.859 6  20711431.151    20711430.769
        19.750          20.250
                  -8947915.471 5  -6972398.435 5  22705126.683    22705127.214
        10.750          11.000
                  -3177208.136 5  -2475743.852 5  23009098.956    23009097.937
        11.250          10.250
                   1806816.954 6   1407908.491 6  20992813.120    20992812.065
        19.500          19.000
                  -9363303.486 6  -7296076.326 6  21968627.339    21968627.288
        15.250          14.000
 95  4 24 15 46 44.9990000  0  7G 2G18G19G27G28G29G31
                   -183458.975 4   -160889.502 5  24113625.972    24113628.847
         6.500           6.500
                  -3240459.513 7  -2525032.347 6  19975185.105    19975184.894
        22.750          17.500
                  -5104008.027 6  -3977148.162 6  20708288.722    20708288.366
        19.750          20.000
                  -8985446.778 5  -7001643.595 5  22697984.597    22697984.909
        10.750          11.250
                  -3175287.897 5  -2474247.559 5  23009463.964    23009463.417
        11.000          10.000
                   1829927.730 6   1425916.878 6  20997210.956    20997209.858
        19.750          19.000
                  -9395679.678 6  -7321304.503 6  21962466.300    21962466.136
        15.250          14.250
 95  4 24 15 46 59.9990000  0  7G 2G18G19G27G28G29G31
                   -232398.366 4   -199024.052 5  24104314.214    24104315.769
         7.000           6.250
                  -3240253.124 7  -2524871.522 6  19975224.276    19975224.269
        22.500          17.750
                  -5120437.771 6  -3989950.557 6  20705162.261    20705161.983
        19.500          20.250
                  -9022918.447 5  -7030842.281 5  22690853.956    22690854.444
        10.750          11.250
                  -3173192.243 5  -2472614.585 5  23009862.730    23009862.054
        10.750          10.000
                   1853179.140 6   1444034.851 6  21001635.714    21001634.366
        19.750          18.750
                  -9427903.542 6  -7346413.980 6  21956334.003    21956334.245
        15.000          14.250
 95  4 24 15 47 14.9990000  0  7G 2G18G19G27G28G29G31
                   -281256.535 4   -237095.310 5  24095017.940    24095018.675
         7.000           6.250
                  -3239882.457 7  -2524582.684 6  19975295.042    19975294.757
        23.000          18.000
                  -5136785.008 6  -4002688.656 6  20702051.597    20702051.440
        19.750          20.500
                  -9060333.057 5  -7059996.508 5  22683734.261    22683734.647
        11.000          11.250
                  -3170922.210 5  -2470845.721 5  23010294.862    23010294.034
        11.000          10.250
                   1876574.070 6   1462264.657 6  21006087.378    21006086.460
        19.750          19.250
                  -9459980.037 6  -7371408.624 6  21950230.167    21950230.210
        14.750          14.250
 95  4 24 15 47 29.9990000  0  7G 2G18G19G27G28G29G31
                   -330033.412 4   -275103.215 5  24085735.948    24085736.823
         6.750           6.000
                  -3239347.460 7  -2524165.801 6  19975396.933    19975396.538
        22.750          17.750
                  -5153052.028 6  -4015364.254 6  20698956.065    20698955.792
        19.750          20.250
                  -9097691.449 5  -7089106.932 5  22676625.222    22676625.409
        11.000          11.250
                  -3168477.539 5  -2468940.777 5  23010760.269    23010759.573
        11.500          10.500
                   1900110.533 6   1480604.754 6  21010566.308    21010565.491
        19.250          19.500
                  -9491909.411 6  -7396288.637 6  21944154.058    21944154.097
        14.750          14.250
 95  4 24 15 47 44.9990000  0  7G 2G18G19G27G28G29G31
                   -378729.952 4   -313048.541 5  24076467.925    24076470.355
         6.250           5.750
                  -3238649.471 7  -2523621.909 6  19975529.683    19975529.159
        23.000          17.500
                  -5169240.738 7  -4027978.827 6  20695875.237    20695875.065
        20.000          20.250
                  -9134996.417 5  -7118175.725 5  22669526.386    22669526.538
        11.250          11.250
                  -3165858.990 6  -2466900.347 5  23011259.042    23011258.272
        12.250          11.000
                   1923786.559 6   1499053.605 6  21015071.440    21015071.085
        18.750          19.750
                  -9523688.945 6  -7421051.892 6  21938106.495    21938106.749
        14.750          14.250
 95  4 24 15 47 59.9990000  0  7G 2G18G19G27G28G29G31
                   -427346.881 3   -350931.853 5  24067215.355    24067218.843
         6.000           5.750
                  -3237791.476 7  -2522953.340 6  19975693.073    19975692.421
        22.750          16.750
                  -5185352.313 7  -4040533.300 6  20692809.261    20692808.921
        20.000          20.000
                  -9172250.688 5  -7147205.013 5  22662437.034    22662437.343
        11.250          11.250
                  -3163067.221 6  -2464724.944 5  23011790.300    23011789.597
        12.500          11.250
                   1947600.374 6   1517609.827 6  21019603.050    21019602.812
        18.750          19.750
                  -9555321.060 6  -7445700.271 6  21932087.144    21932087.304
        15.000          14.000
 95  4 24 15 48 14.9990000  0  7G 2G18G19G27G28G29G31
                   -475885.189 3   -388753.886 5  24057979.034    24057981.687
         6.000           5.750
                  -3236772.151 7  -2522159.063 6  19975886.862    19975885.948
        22.500          16.250
                  -5201383.779 7  -4053025.345 6  20689758.714    20689758.241
        20.000          20.000
                  -9209454.236 5  -7176194.778 5  22655357.769    22655357.823
        11.250          11.250
                  -3160101.912 6  -2462414.312 5  23012354.589    23012353.815
        12.500          11.500
                   1971554.878 6   1536275.673 6  21024161.261    21024160.804
        18.750          19.000
                  -9586807.294 6  -7470234.978 6  21926095.776    21926095.722
        15.250          14.000
 95  4 24 15 48 29.9990000  0  7G 2G18G19G27G28G29G31
                   -524344.344 4   -426514.250 5  24048758.722    24048760.280
         6.750           6.000
                  -3235590.077 7  -2521237.972 6  19976111.847    19976110.796
        22.500          15.750
                  -5217334.628 7  -4065454.576 6  20686723.448    20686723.120
        20.000          20.250
                  -9246607.862 5  -7205145.647 5  22648287.378    22648287.827
        11.000          11.250
                  -3156961.964 6  -2459967.604 5  23012952.089    23012951.343
        12.250          11.500
                   1995649.867 6   1555050.983 6  21028746.612    21028745.851
        18.750          18.750
                  -9618144.064 6  -7494653.220 6  21920132.730    21920132.651
        15.500          14.250
 95  4 24 15 48 44.9990000  0  7G 2G18G19G27G28G29G31
                   -572726.151 4   -464214.323 5  24039552.308    24039553.847
         6.500           6.750
                  -3234244.567 7  -2520189.526 6  19976367.972    19976366.995
        22.500          16.000
                  -5233204.974 7  -4077821.072 6  20683703.230    20683703.034
        20.000          20.500
                  -9283712.953 5  -7234058.691 5  22641226.355    22641227.128
        11.000          11.250
                  -3153646.797 5  -2457384.357 5  23013582.667    23013582.171
        11.750          11.500
                   2019890.585 6   1573939.845 6  21033359.495    21033358.624
        19.000          18.500
                  -9649331.687 6  -7518955.239 6  21914197.831    21914197.862
        15.750          14.500
 95  4 24 15 48 59.9990000  0  7G 2G18G19G27G28G29G31
                   -621033.439 4   -501856.322 5  24030359.323    24030361.862
         6.500           7.500
                  -3232737.639 7  -2519015.298 6  19976654.612    19976653.913
        22.500          16.500
                  -5248997.183 7  -4090126.687 6  20680697.987    20680697.835
        20.000          20.250
                  -9320772.436 5  -7262936.198 5  22634174.081    22634174.917
        11.000          11.250
                  -3150158.368 5  -2454666.100 5  23014246.308    23014245.940
        11.250          11.250
                   2044276.833 6   1592942.105 6  21037999.987    21037999.343
        19.000          18.750
                  -9680371.973 6  -7543142.448 6  21908291.151    21908291.120
        15.750          14.750
 95  4 24 15 49 14.9990000  0  7G 2G18G19G27G28G29G31
                   -669262.605 4   -539437.450 5  24021180.847    24021184.421
         6.250           8.000
                  -3231068.879 7  -2517714.963 6  19976972.190    19976971.730
        22.750          17.000
                  -5264712.499 7  -4102372.381 6  20677707.542    20677707.167
        20.000          20.000
                  -9357783.454 5  -7291775.935 5  22627131.073    22627131.901
        11.000          11.250
                  -3146495.035 5  -2451811.557 5  23014943.144    23014942.894
        10.750          10.750
                   2068811.109 6   1612059.721 6  21042668.730    21042668.347
        18.750          19.250
                  -9711261.844 6  -7567212.458 6  21902412.620    21902413.132
        15.000          15.000
 95  4 24 15 49 29.9990000  0  7G 2G18G19G27G28G29G31
                   -717406.373 4   -576952.033 5  24012019.409    24012022.425
         6.250           7.750
                  -3229234.847 7  -2516285.846 6  19977321.323    19977320.917
        22.750          17.250
                  -5280349.473 7  -4114557.035 6  20674732.026    20674731.507
        20.250          19.750
                  -9394741.285 5  -7320574.229 5  22620098.159    22620098.894
        11.000          11.250
                  -3142653.953 5  -2448818.509 5  23015673.753    23015673.804
        10.250          10.500
                   2093493.968 6   1631293.118 6  21047365.847    21047365.569
        18.750          19.750
                  -9741997.902 6  -7591162.623 6  21896563.245    21896564.288
        14.000          15.250
 95  4 24 15 49 44.9990000  0  7G 2G18G19G27G28G29G31
                   -765466.879 4   -614401.733 5  24002873.784    24002875.983
         6.500           7.750
                  -3227235.334 7  -2514727.779 6  19977701.847    19977701.476
        22.750          17.500
                  -5295908.596 7  -4126681.024 6  20671771.292    20671770.815
        20.250          19.750
                  -9431647.751 5  -7349332.497 5  22613075.089    22613075.565
        11.250          11.000
                  -3138637.561 5  -2445688.852 5  23016437.964    23016438.097
        10.500          10.250
                   2118322.713 6   1650640.190 6  21052090.597    21052090.769
        19.000          20.250
                  -9772579.895 6  -7614992.739 6  21890743.831    21890744.663
        14.250          15.000
 95  4 24 15 49 59.9990000  0  7G 2G18G19G27G28G29G31
                   -813445.511 4   -651787.627 5  23993744.065    23993745.710
         7.000           7.750
                  -3225069.127 7  -2513039.824 6  19978113.901    19978113.534
        22.750          17.750
                  -5311389.653 7  -4138744.179 6  20668825.222    20668824.948
        20.000          20.250
                  -9468502.989 5  -7378050.855 5  22606062.042    22606062.296
        11.500          11.000
                  -3134447.531 5  -2442423.887 5  23017235.917    23017235.175
        11.250          10.000
                   2143297.983 6   1670101.438 6  21056843.300    21056843.366
        19.000          20.500
                  -9803009.926 6  -7638704.438 6  21884953.534    21884953.519
        15.250          14.750
 95  4 24 15 50 14.9990000  0  7G 2G18G19G27G28G29G31
                   -861345.902 4   -689112.566 5  23984629.058    23984630.866
         7.250           7.750
                  -3222734.630 7  -2511220.729 6  19978558.026    19978557.683
        22.500          17.750
                  -5326791.796 7  -4150745.843 6  20665894.355    20665894.019
        20.000          20.250
                  -9505306.958 5  -7406729.262 5  22599058.558    22599058.456
        11.500          11.250
                  -3130085.372 5  -2439024.790 5  23018066.300    23018065.175
        11.750          10.000
                   2168419.314 6   1689676.501 6  21061623.628    21061623.534
        18.750          19.750
                  -9833287.863 6  -7662297.611 6  21879192.222    21879191.546
        16.000          14.250
 95  4 24 15 50 29.9990000  0  7G 2G18G19G27G28G29G31
                   -909166.748 5   -726375.535 5  23975529.308    23975531.741
         7.500           8.250
                  -3220229.607 7  -2509268.767 6  19979034.847    19979034.597
        22.250          17.500
                  -5342114.052 7  -4162685.258 6  20662978.745    20662978.202
        20.250          20.000
                  -9542058.981 5  -7435367.191 5  22592064.730    22592064.765
        11.750          11.250
                  -3125549.419 6  -2435490.269 5  23018929.612    23018928.468
        12.000          10.000
                   2193686.986 6   1709365.590 6  21066431.792    21066431.315
        18.500          19.000
                  -9863409.171 6  -7685768.727 6  21873460.401    21873459.800
        16.000          14.250
 95  4 24 15 50 44.9990000  0  7G 2G18G19G27G28G29G31
                   -956908.671 5   -763577.011 5  23966444.651    23966447.026
         7.750           8.250
                  -3217555.110 7  -2507184.744 6  19979543.737    19979543.386
        22.250          17.250
                  -5357357.458 7  -4174563.233 6  20660078.065    20660077.394
        20.250          20.000
                  -9578758.938 5  -7463964.546 5  22585080.800    22585081.097
        11.750          11.500
                  -3120838.941 6  -2431819.752 5  23019825.847    23019825.050
        12.000          10.500
                   2219098.621 6   1729166.858 6  21071267.550    21071266.659
        18.500          18.250
                  -9893371.529 6  -7709115.993 6  21867758.464    21867758.101
        15.250          14.250
 95  4 24 15 50 59.9990000  0  7G 2G18G19G27G28G29G31
                  -1004572.458 5   -800717.602 5  23957374.651    23957376.667
         8.000           8.500
                  -3214714.114 7  -2504970.981 6  19980084.339    19980083.839
        22.250          16.750
                  -5372524.680 7  -4186381.846 6  20657191.612    20657191.230
        20.250          20.250
                  -9615406.754 6  -7492521.268 5  22578107.065    22578107.245
        12.000          11.750
                  -3115955.834 5  -2428014.730 5  23020754.784    23020754.495
        11.500          11.000
                   2244652.633 6   1749079.064 6  21076130.433    21076129.128
        18.750          18.000
                  -9923177.553 6  -7732341.448 6  21862085.862    21862086.230
        14.250          14.500
 95  4 24 15 51 14.9990000  0  7G 2G18G19G27G28G29G31
                  -1052154.477 5   -837794.465 5  23948319.651    23948321.136
         7.750           8.250
                  -3211707.586 7  -2502628.230 6  19980656.558    19980655.839
        22.250          16.750
                  -5387614.993 7  -4198140.526 6  20654320.003    20654319.827
        20.250          20.250
                  -9651998.796 5  -7521034.535 6  22571143.667    22571144.062
        11.750          12.000
                  -3110898.567 5  -2424074.000 5  23021716.972    23021717.335
        11.250          11.500
                   2270346.996 6   1769100.642 6  21081020.034    21081018.706
        19.250          18.250
                  -9952825.596 6  -7755443.811 6  21856444.058    21856444.612
        14.250          15.000
 95  4 24 15 51 29.9990000  0  7G 2G18G19G27G28G29G31
                  -1099650.830 5   -874804.570 5  23939281.269    23939282.573
         7.750           8.250
                  -3208537.002 7  -2500157.645 6  19981260.112    19981259.308
        22.500          17.000
                  -5402625.196 7  -4209836.782 6  20651463.792    20651463.355
        20.250          20.250
                  -9688533.557 5  -7549503.166 6  22564191.550    22564191.835
        11.500          12.250
                  -3105667.204 5  -2419997.621 5  23022712.198    23022712.987
        10.750          11.750
                   2296179.955 6   1789230.205 6  21085936.222    21085935.046
        19.250          18.750
                  -9982317.271 6  -7778424.324 6  21850832.495    21850832.718
        14.750          15.250
 95  4 24 15 51 44.9990000  0  7G 2G18G19G27G28G29G31
                  -1147063.880 5   -911749.764 5  23930258.769    23930259.980
         8.000           8.500
                  -3205203.625 7  -2497560.212 6  19981894.394    19981893.722
        23.000          17.000
                  -5417555.620 7  -4221470.876 6  20648622.745    20648622.159
        20.500          20.000
                  -9725013.286 5  -7577928.911 6  22557249.769    22557250.108
        11.250          12.500
                  -3100263.246 5  -2415786.753 5  23023740.628    23023741.233
        10.500          11.750
                   2322148.157 6   1809465.160 6  21090877.737    21090877.116
        19.250          19.750
                 -10011653.199 6  -7801283.470 6  21845250.448    21845250.237
        16.000          15.000
 95  4 24 15 51 59.9990000  0  7G 2G18G19G27G28G29G31
                  -1194391.109 5   -948628.082 5  23921252.581    23921254.487
         8.000           8.750
                  -3201706.741 7  -2494835.371 6  19982559.894    19982559.335
        23.250          17.250
                  -5432405.427 7  -4233042.151 6  20645796.769    20645796.413
        20.000          20.000
                  -9761435.775 5  -7606310.055 6  22550318.784    22550319.163
        11.250          12.500
                  -3094685.037 5  -2411440.111 5  23024802.159    23024802.456
        10.750          11.250
                   2348253.182 6   1829806.735 6  21095844.855    21095844.866
        18.500          20.000
                 -10040831.503 6  -7824019.787 6  21839697.987    21839697.647
        16.000          15.000
 95  4 24 15 52 14.9990000  0  7G 2G18G19G27G28G29G31
                  -1241631.841 5   -985439.005 5  23912262.769    23912265.460
         8.000           9.250
                  -3198048.048 7  -2491984.442 6  19983256.042    19983255.503
        23.000          17.500
                  -5447173.718 7  -4244549.909 6  20642986.378    20642986.343
        20.250          20.250
                  -9797799.224 5  -7634645.190 6  22543398.808    22543399.347
        11.000          12.750
                  -3088932.003 5  -2406957.229 5  23025897.136    23025896.952
        11.000          10.750
                   2374495.072 6   1850254.963 6  21100838.440    21100838.308
        18.250          19.750
                 -10069852.109 6  -7846633.228 6  21834175.206    21834175.167
        15.500          14.750
 95  4 24 15 52 29.9990000  0  7G 2G18G19G27G28G29G31
                  -1288785.560 5  -1022182.133 5  23903289.753    23903292.870
         8.000           9.000
                  -3194232.741 7  -2489011.471 6  19983981.909    19983981.573
        22.500          17.250
                  -5461861.677 7  -4255995.065 6  20640191.409    20640191.331
        20.250          20.250
                  -9834106.705 5  -7662936.713 6  22536489.597    22536490.062
        10.500          12.250
                  -3083005.462 5  -2402339.146 5  23027025.011    23027024.452
        11.250          10.000
                   2400872.641 6   1870808.917 6  21105858.065    21105857.913
        18.250          19.500
                 -10098717.443 6  -7869125.673 6  21828681.690    21828682.331
        14.500          14.250
 95  4 24 15 52 44.9990000  0  7G 2G18G19G27G28G29G31
                  -1335850.276 5  -1058855.903 5  23894334.034    23894336.503
         8.250           9.000
                  -3190264.267 7  -2485919.156 6  19984736.894    19984736.702
        22.250          17.500
                  -5476471.111 7  -4267379.036 6  20637411.339    20637411.038
        20.250          20.500
                  -9870358.866 5  -7691185.133 6  22529590.948    22529591.253
        10.500          12.250
                  -3076905.368 5  -2397585.817 5  23028186.144    23028185.140
        11.750          10.000
                   2427385.252 6   1891468.091 6  21110903.636    21110903.026
        19.000          19.500
                 -10127428.059 6  -7891497.569 6  21823218.448    21823218.765
        14.250          14.750
 95  4 24 15 52 59.9990000  0  7G 2G18G19G27G28G29G31
                  -1382824.331 5  -1095459.026 5  23885395.144    23885396.917
         7.750           8.250
                  -3186142.085 7  -2482707.070 6  19985521.355    19985521.038
        21.750          17.250
                  -5491000.722 7  -4278700.807 6  20634646.425    20634645.933
        20.250          20.500
                  -9906553.603 5  -7719388.807 6  22522703.487    22522703.511
        10.500          12.000
                  -3070632.488 6  -2392697.845 5  23029379.972    23029378.569
        12.000           9.750
                   2454033.452 6   1912232.916 6  21115974.722    21115973.948
        19.250          19.500
                 -10155982.857 6  -7913748.050 6  21817784.769    21817785.210
        14.750          15.250
 95  4 24 15 53 14.9990000  0  7G 2G18G19G27G28G29G31
                  -1429705.186 5  -1131989.532 5  23876473.644    23876475.370
         7.500           7.750
                  -3181864.555 7  -2479373.938 6  19986335.464    19986335.132
        21.750          17.250
                  -5505452.487 7  -4289961.918 6  20631896.300    20631895.956
        20.250          20.500
                  -9942691.561 5  -7747548.239 6  22515826.542    22515826.835
        10.750          12.000
                  -3064187.188 5  -2387675.514 5  23030606.292    23030605.331
        11.750           9.750
                   2480817.277 6   1933103.422 6  21121071.526    21121070.843
        19.250          19.500
                 -10184380.289 6  -7935875.898 6  21812380.940    21812381.409
        15.250          15.500
 95  4 24 15 53 29.9990000  0  7G 2G18G19G27G28G29G31
                  -1476493.988 4  -1168448.300 5  23867569.464    23867571.460
         7.000           7.250
                  -3177429.618 7  -2475918.132 6  19987179.417    19987178.870
        22.000          17.250
                  -5519824.751 7  -4301161.080 6  20629161.495    20629161.355
        20.250          20.500
                  -9978774.723 5  -7775664.971 6  22508960.245    22508960.495
        10.750          12.000
                  -3057569.324 5  -2382518.723 5  23031865.308    23031864.964
        11.250          10.250
                   2507737.338 6   1954080.086 6  21126193.886    21126193.655
        18.750          19.500
                 -10212618.615 6  -7957879.763 6  21807007.761    21807008.265
        15.750          16.000
 95  4 24 15 53 44.9990000  0  7G 2G18G19G27G28G29G31
                  -1523194.803 4  -1204838.505 5  23858682.347    23858684.843
         7.000           7.250
                  -3172834.027 7  -2472337.152 6  19988054.190    19988053.394
        22.750          17.500
                  -5534120.897 7  -4312300.928 6  20626441.026    20626441.054
        20.250          20.750
                 -10014807.101 5  -7803742.134 5  22502103.511    22502103.956
        11.000          11.750
                  -3050779.921 5  -2377228.274 5  23033157.058    23033156.901
        10.750          10.500
                   2534793.303 6   1975162.651 6  21131342.175    21131342.300
        18.250          19.500
                 -10240696.396 6  -7979758.535 6  21801664.292    21801664.839
        15.500          16.250
 95  4 24 15 53 59.9990000  0  7G 2G18G19G27G28G29G31
                  -1569811.213 4  -1241162.949 5  23849812.526    23849814.300
         7.250           7.500
                  -3168075.432 7  -2468629.160 6  19988959.776    19988959.030
        22.750          17.750
                  -5548342.257 7  -4323382.503 6  20623734.784    20623734.632
        20.250          20.750
                 -10050788.599 5  -7831779.651 5  22495256.698    22495256.815
        11.250          11.750
                  -3043817.813 5  -2371803.258 5  23034481.815    23034481.968
        10.500          11.000
                   2561987.020 6   1996352.554 6  21136516.925    21136516.937
        18.000          19.500
                 -10268612.640 6  -8001511.430 6  21796352.011    21796352.737
        15.250          16.500
 95  4 24 15 54 14.9990000  0  7G 2G18G19G27G28G29G31
                  -1616343.320 4  -1277421.700 5  23840957.847    23840959.796
         7.250           7.500
                  -3163153.675 7  -2464794.029 6  19989896.308    19989895.730
        23.000          18.000
                  -5562488.371 7  -4334405.444 6  20621042.933    20621042.507
        20.250          20.500
                 -10086719.560 5  -7859777.787 5  22488419.370    22488419.468
        11.500          11.750
                  -3036682.847 5  -2366243.546 5  23035839.597    23035839.921
        10.500          11.500
                   2589319.248 6   2017650.390 6  21141718.370    21141718.054
        18.250          19.250
                 -10296367.163 6  -8023138.318 6  21791070.612    21791071.218
        15.000          16.500
 95  4 24 15 54 29.9990000  0  7G 2G18G19G27G28G29G31
                  -1662792.118 4  -1313615.535 5  23832118.651    23832120.980
         7.250           7.500
                  -3158068.468 7  -2460831.529 6  19990863.745    19990863.362
        23.000          18.000
                  -5576558.181 7  -4345368.924 6  20618365.519    20618365.155
        20.250          20.250
                 -10122600.943 5  -7887737.292 5  22481591.230    22481591.433
        11.500          11.500
                  -3029375.382 5  -2360549.421 5  23037230.323    23037230.605
        10.750          11.750
                   2616788.428 6   2039054.936 6  21146945.808    21146945.515
        18.500          19.250
                 -10323959.103 6  -8044638.513 6  21785819.940    21785820.483
        15.000          16.000
 95  4 24 15 54 44.9990000  0  7G 2G18G19G27G28G29G31
                  -1709156.951 4  -1349743.934 5  23823295.190    23823297.675
         7.000           7.500
                  -3152817.591 7  -2456739.938 6  19991862.940    19991862.698
        22.500          18.000
                  -5590555.710 7  -4356276.085 6  20615701.831    20615701.694
        20.000          20.750
                 -10158434.432 5  -7915659.484 5  22474772.245    22474772.483
        11.750          11.250
                  -3021896.167 5  -2354721.468 5  23038653.940    23038654.026
        11.000          11.750
                   2644392.591 6   2060564.666 6  21152198.526    21152198.163
        18.500          19.250
                 -10351388.631 6  -8066012.152 6  21780600.378    21780600.480
        15.250          15.500
 95  4 24 15 54 59.9990000  0  7G 2G18G19G27G28G29G31
                  -1755437.430 4  -1385806.605 5  23814487.909    23814489.858
         6.500           7.000
                  -3147397.873 7  -2452516.781 6  19992894.183    19992893.882
        22.250          17.750
                  -5604480.656 7  -4367126.687 6  20613051.901    20613052.069
        20.000          21.000
                 -10194219.412 5  -7943543.873 5  22467962.550    22467962.659
        11.750          11.000
                  -3014245.144 5  -2348759.639 5  23040109.667    23040109.831
        11.250          11.500
                   2672130.658 6   2082178.740 6  21157476.862    21157476.495
        18.500          19.250
                 -10378655.920 6  -8087259.372 6  21775411.730    21775411.468
        15.750          15.000
 95  4 24 15 55 14.9990000  0  7G 2G18G19G27G28G29G31
                  -1801633.166 4  -1421803.248 5  23805697.261    23805698.999
         6.750           6.750
                  -3141807.089 7  -2448160.323 6  19993957.972    19993957.702
        21.750          17.250
                  -5618332.911 7  -4377920.645 6  20610415.995    20610415.925
        20.000          20.750
                 -10229955.758 5  -7971390.365 5  22461162.011    22461161.874
        11.500          10.750
                  -3006422.900 5  -2342664.388 5  23041598.417    23041598.241
        11.500          10.750
                   2700003.541 6   2103897.864 6  21162780.933    21162780.624
        18.250          18.750
                 -10405764.700 6  -8108383.075 6  21770253.167    21770252.683
        15.750          14.500
 95  4 24 15 55 29.9990000  0  7G 2G18G19G27G28G29G31
                  -1847745.217 4  -1457734.672 5  23796923.019    23796924.343
         7.000           6.750
                  -3136044.898 7  -2443670.301 6  19995054.550    19995054.105
        21.500          17.250
                  -5632109.589 7  -4388655.714 6  20607794.198    20607794.132
        20.000          20.750
                 -10265643.521 5  -7999199.002 5  22454370.972    22454370.823
        11.250          10.750
                  -2998428.778 5  -2336435.201 5  23043119.839    23043118.976
        11.750          10.250
                   2728013.499 6   2125723.800 6  21168111.222    21168110.452
        18.500          18.500
                 -10432721.451 6  -8129388.313 6  21765123.339    21765123.015
        15.750          15.000
 95  4 24 15 55 44.9990000  0  7G 2G18G19G27G28G29G31
                  -1893775.966 5  -1493602.744 5  23788163.573    23788165.128
         7.500           6.500
                  -3130113.956 7  -2439048.787 6  19996183.308    19996182.683
        22.000          17.250
                  -5645810.685 7  -4399331.886 6  20605187.151    20605186.991
        20.000          21.000
                 -10301283.454 5  -8026970.366 5  22447588.784    22447588.663
        11.250          10.750
                  -2990264.947 5  -2330073.770 5  23044673.480    23044672.296
        11.500           9.750
                   2756157.681 6   2147654.326 6  21173466.878    21173465.722
        18.500          17.750
                 -10459530.028 6  -8150278.094 6  21760021.987    21760021.624
        15.750          15.250
 95  4 24 15 55 59.9990000  0  7G 2G18G19G27G28G29G31
                  -1939723.487 5  -1529405.988 5  23779420.206    23779421.917
         7.500           6.750
                  -3124015.843 7  -2434297.017 6  19997343.855    19997343.226
        22.250          17.250
                  -5659435.186 7  -4409948.377 6  20602594.464    20602594.370
        20.000          21.000
                 -10336871.856 5  -8054701.583 5  22440816.620    22440816.745
        11.250          11.000
                  -2981930.834 5  -2323579.640 5  23046259.198    23046257.995
        11.500           9.250
                   2784437.393 6   2169690.458 6  21178848.355    21178847.136
        18.500          17.750
                 -10486191.388 6  -8171053.169 6  21754948.136    21754948.409
        15.250          16.000
 95  4 24 15 56 14.9990000  0  7G 2G18G19G27G28G29G31
                  -1985582.762 5  -1565140.465 5  23770693.050    23770695.323
         7.500           7.250
                  -3117753.434 7  -2429417.219 6  19998535.831    19998535.210
        22.750          17.750
                  -5672979.952 7  -4420502.730 6  20600016.987    20600016.745
        20.000          21.000
                 -10372406.508 5  -8082390.906 5  22434054.581    22434054.741
        11.250          11.250
                  -2973426.286 5  -2316952.706 5  23047877.339    23047876.194
        11.000           9.250
                   2812855.724 6   2191834.605 6  21184255.706    21184254.851
        17.750          17.750
                 -10512706.108 6  -8191713.983 6  21749902.776    21749902.968
        15.250          16.250
 95  4 24 15 56 29.9990000  0  7G 2G18G19G27G28G29G31
                  -2031354.317 5  -1600806.590 5  23761983.089    23761985.058
         7.750           7.500
                  -3111330.644 7  -2424412.448 6  19999758.144    19999757.530
        22.750          18.000
                  -5686445.663 6  -4430995.485 6  20597454.401    20597454.284
        19.750          21.000
                 -10407888.033 5  -8110038.834 5  22427302.776    22427303.030
        11.250          11.500
                  -2964753.415 5  -2310194.619 5  23049527.315    23049526.890
        10.250           9.500
                   2841409.842 6   2214084.567 6  21189689.253    21189688.651
        17.500          17.750
                 -10539073.026 6  -8212259.623 6  21744885.362    21744885.370
        15.500          15.750
 95  4 24 15 56 44.9990000  0  7G 2G18G19G27G28G29G31
                  -2077037.096 5  -1636403.517 5  23753290.394    23753291.616
         8.000           7.500
                  -3104748.961 7  -2419283.866 6  20001010.472    20001010.085
        22.750          18.500
                  -5699834.594 6  -4441428.413 6  20594906.456    20594906.503
        19.750          21.000
                 -10443317.318 5  -8137646.060 5  22420560.636    22420561.144
        11.000          11.750
                  -2955912.363 5  -2303305.493 5  23051209.683    23051209.358
        10.250          10.000
                   2870102.511 6   2236442.489 6  21195149.620    21195149.175
        18.250          18.250
                 -10565292.950 6  -8232690.716 6  21739895.948    21739895.737
        16.000          15.500
 95  4 24 15 56 59.9990000  0  7G 2G18G19G27G28G29G31
                  -2122631.418 5  -1671931.520 5  23744614.237    23744615.226
         8.250           7.750
                  -3098007.081 7  -2414030.450 6  20002293.284    20002293.144
        22.500          18.750
                  -5713146.251 6  -4451801.129 6  20592373.230    20592373.280
        19.750          20.750
                 -10478692.078 5  -8165210.795 6  22413829.081    22413829.487
        11.000          12.000
                  -2946901.263 5  -2296283.863 5  23052924.401    23052924.413
        10.250          10.500
                   2898937.168 6   2258911.045 6  21200637.206    21200636.491
        19.000          18.750
                 -10591363.559 6  -8253005.455 6  21734935.042    21734934.366
        16.250          14.750
 95  4 24 15 57 14.9990000  0  7G 2G18G19G27G28G29G31
                  -2168140.940 5  -1707393.436 5  23735953.753    23735954.976
         8.250           8.000
                  -3091108.432 7  -2408654.877 6  20003605.862    20003605.878
        22.250          18.750
                  -5726380.885 6  -4462113.825 6  20589854.901    20589854.886
        19.750          21.000
                 -10514012.689 5  -8192733.328 6  22407107.651    22407108.276
        11.000          12.250
                  -2937722.200 5  -2289131.352 5  23054671.386    23054671.136
        10.750          11.000
                   2927910.365 6   2281487.556 6  21206150.722    21206150.194
        19.250          19.000
                 -10617285.887 6  -8273204.644 6  21730002.245    21730001.331
        16.250          14.500
 95  4 24 15 57 29.9990000  0  7G 2G18G19G27G28G29G31
                  -2213566.725 5  -1742790.116 5  23727309.167    23727311.233
         8.000           8.250
                  -3084052.915 7  -2403157.070 6  20004948.355    20004948.343
        21.750          18.500
                  -5739539.955 6  -4472367.640 6  20587350.800    20587350.847
        19.500          21.000
                 -10549278.481 5  -8220213.150 6  22400396.722    22400397.397
        11.000          12.500
                  -2928375.170 5  -2281847.958 5  23056450.464    23056450.147
        11.250          11.250
                   2957022.453 6   2304172.294 6  21211690.315    21211689.862
        18.750          18.500
                 -10643057.790 6  -8293286.621 6  21725097.698    21725096.964
        15.500          14.500
 95  4 24 15 57 44.9990000  0  7G 2G18G19G27G28G29G31
                  -2258909.731 5  -1778122.299 5  23718680.612    23718682.679
         8.500           8.500
                  -3076843.535 7  -2397539.375 6  20006320.120    20006319.862
        21.750          17.750
                  -5752625.893 6  -4482564.475 6  20584860.667    20584860.702
        19.750          21.000
                 -10584489.973 5  -8247650.661 6  22393696.089    22393696.702
        11.250          12.750
                  -2918860.091 5  -2274433.616 5  23058261.206    23058261.034
        11.500          11.250
                   2986272.320 6   2326964.397 6  21217255.628    21217255.554
        17.750          18.000
                 -10668671.781 6  -8313245.560 6  21720223.065    21720223.046
        15.000          15.000
 95  4 24 15 57 59.9990000  0  7G 2G18G19G27G28G29G31
                  -2304168.295 5  -1813388.684 5  23710068.636    23710070.522
         9.000           8.750
                  -3069480.591 7  -2391802.016 6  20007721.605    20007721.007
        21.750          17.500
                  -5765641.910 6  -4492706.815 6  20582383.675    20582383.769
        19.750          21.000
                 -10619645.912 5  -8275044.881 6  22387006.206    22387006.757
        11.500          12.750
                  -2909176.243 5  -2266887.764 5  23060104.019    23060103.632
        11.750          11.250
                   3015659.529 6   2349863.520 6  21222847.987    21222847.733
        17.750          17.500
                 -10694121.944 6  -8333076.847 6  21715379.855    21715380.312
        15.000          15.750
 95  4 24 15 58 14.9990000  0  7G 2G18G19G27G28G29G31
                  -2349343.737 5  -1848590.296 5  23701472.378    23701473.855
         9.000           8.750
                  -3061967.032 7  -2385947.300 6  20009151.378    20009150.761
        21.750          17.500
                  -5778590.064 6  -4502796.279 6  20579919.730    20579919.862
        19.500          21.000
                 -10654749.671 5  -8302398.440 6  22380326.159    22380326.843
        11.500          13.000
                  -2899325.244 5  -2259211.662 5  23061978.659    23061978.222
        11.750          10.750
                   3045182.104 6   2372868.121 6  21228466.261    21228465.589
        18.000          17.500
                 -10719409.321 6  -8352781.293 6  21710568.065    21710568.425
        15.750          16.250
 95  4 24 15 58 29.9990000  0  7G 2G18G19G27G28G29G31
                  -2394436.921 5  -1883727.810 5  23692891.222    23692892.737
         8.750           8.750
                  -3054300.481 7  -2379973.369 6  20010610.081    20010609.460
        21.750          17.250
                  -5791470.047 6  -4512832.623 6  20577468.667    20577468.683
        19.500          21.000
                 -10689801.390 5  -8329711.454 6  22373656.112    22373656.753
        11.750          13.000
                  -2889305.263 5  -2251403.880 5  23063885.167    23063884.792
        11.500          10.250
                   3074838.192 6   2395976.749 6  21234110.081    21234108.999
        18.750          17.500
                 -10744529.583 6  -8372355.510 6  21705788.151    21705788.081
        16.250          16.000
 95  4 24 15 58 44.9990000  0  7G 2G18G19G27G28G29G31
                  -2439449.339 5  -1918802.389 5  23684325.253    23684326.835
         8.500           8.750
                  -3046476.532 7  -2373876.789 6  20012099.144    20012098.589
        21.750          17.750
                  -5804281.880 6  -4522815.865 6  20575030.769    20575030.765
        19.250          21.000
                 -10724801.102 6  -8356983.945 6  22366995.995    22366996.433
        12.000          13.000
                  -2879115.560 5  -2243463.854 5  23065824.105    23065823.476
        11.000           9.750
                   3104626.221 6   2419188.188 6  21239778.800    21239777.605
        19.250          17.750
                 -10769483.403 6  -8391800.030 6  21701039.534    21701039.417
        16.250          15.500
 95  4 24 15 58 59.9990000  0  7G 2G18G19G27G28G29G31
                  -2484382.706 5  -1953815.367 5  23675774.222    23675776.437
         8.000           8.750
                  -3038492.560 7  -2367655.516 6  20013618.394    20013618.085
        22.000          18.250
                  -5817024.266 6  -4532744.990 6  20572606.050    20572605.905
        19.500          21.250
                 -10759750.170 6  -8384216.972 6  22360345.511    22360345.819
        12.500          13.000
                  -2868756.890 5  -2235392.164 5  23067795.112    23067794.257
        10.750           9.500
                   3134545.422 6   2442501.843 6  21245471.847    21245471.007
        18.750          17.750
                 -10794272.957 6  -8411116.544 6  21696321.987    21696321.960
        15.750          15.250
 95  4 24 15 59 14.9990000  0  7G 2G18G19G27G28G29G31
                  -2529237.074 5  -1988766.786 5  23667238.675    23667241.046
         8.000           9.000
                  -3030347.315 7  -2361308.570 6  20015168.456    20015168.280
        22.250          18.750
                  -5829691.931 6  -4542615.893 6  20570195.300    20570195.437
        19.500          21.250
                 -10794646.710 6  -8411409.072 6  22353704.956    22353705.136
        12.500          13.000
                  -2858228.715 5  -2227188.394 5  23069798.487    23069797.585
        10.500           9.250
                   3164592.669 6   2465915.278 6  21251189.378    21251189.081
        18.000          18.000
                 -10818897.373 6  -8430304.379 6  21691635.862    21691636.026
        15.000          14.750
 95  4 24 15 59 29.9990000  0  7G 2G18G19G27G28G29G31
                  -2574009.883 5  -2023654.653 5  23658719.214    23658721.546
         8.250           9.500
                  -3022040.888 7  -2354836.029 6  20016749.175    20016749.077
        22.000          19.000
                  -5842281.862 6  -4552426.222 6  20567799.683    20567799.702
        19.500          21.000
                 -10829491.055 6  -8438560.498 6  22347074.378    22347074.483
        12.500          12.750
                  -2847531.044 5  -2218852.548 5  23071834.292    23071833.620
        10.750           9.250
                   3194770.758 6   2489430.671 6  21256931.909    21256931.616
        17.750          17.750
                 -10843356.154 6  -8449363.157 6  21686981.370    21686981.651
        15.000          14.750
 95  4 24 15 59 44.9990000  0  7G 2G18G19G27G28G29G31
                  -2618701.924 5  -2058479.580 5  23650215.003    23650216.890
         8.500           9.500
                  -3013574.824 7  -2348239.093 6  20018360.042    20018359.948
        22.000          19.000
                  -5854792.120 6  -4562174.471 6  20565418.933    20565418.925
        19.500          21.250
                 -10864283.692 6  -8465671.632 6  22340453.370    22340453.765
        12.250          13.000
                  -2836663.322 5  -2210384.195 5  23073902.722    23073902.062
        11.250          10.000
                   3225082.851 6   2513050.480 6  21262700.394    21262699.577
        18.000          17.500
                 -10867648.867 6  -8468292.529 6  21682358.831    21682359.030
        15.250          15.250
 95  4 24 15 59 59.9990000  0  7G 2G18G19G27G28G29G31
                  -2663314.419 5  -2093242.521 5  23641725.511    23641727.233
         8.500           9.500
                  -3004951.893 7  -2341519.926 6  20020000.839    20020000.909
        21.500          19.000
                  -5867219.665 6  -4571858.266 6  20563054.253    20563054.280
        19.500          21.000
                 -10899026.132 6  -8492743.649 6  22333842.136    22333842.433
        12.000          12.750
                  -2825626.688 5  -2201784.215 5  23076003.011    23076002.546
        11.750          10.750
                   3255525.339 6   2536771.890 6  21268493.472    21268492.511
        18.250          17.250
                 -10891778.401 6  -8487094.751 6  21677767.519    21677767.694
        16.250          15.750
 95  4 24 16  0 14.9990000  0  7G 2G18G19G27G28G29G31
                  -2707844.738 5  -2127941.437 5  23633251.167    23633252.897
         8.000           9.250
                  -2996168.323 7  -2334675.586 6  20021672.136    20021672.292
        21.000          18.750
                  -5879560.170 6  -4581474.242 6  20560705.870    20560705.815
        19.750          21.250
                 -10933715.615 6  -8519774.402 6  22327240.917    22327241.284
        12.000          12.750
                  -2814419.423 5  -2193051.279 5  23078135.550    23078135.394
        11.750          11.250
                   3286099.447 6   2560595.859 6  21274311.503    21274310.585
        18.250          17.250
                 -10915746.744 6  -8505771.366 6  21673206.542    21673206.476
        17.000          16.250
 95  4 24 16  0 29.9990000  0  7G 2G18G19G27G28G29G31
                  -2752298.383 5  -2162580.607 5  23624791.409    23624793.554
         7.750           8.750
                  -2987224.331 7  -2327706.247 6  20023374.159    20023374.159
        20.500          18.250
                  -5891814.761 6  -4591023.270 6  20558373.940    20558373.772
        19.750          21.000
                 -10968355.830 5  -8546766.757 6  22320649.042    22320649.358
        11.750          12.500
                  -2803043.646 5  -2184187.038 6  23080300.175    23080300.261
        11.750          12.000
                   3316804.024 6   2584521.496 6  21280154.222    21280153.452
        17.750          17.250
                 -10939554.112 6  -8524322.551 6  21668676.300    21668676.272
        16.750          16.250
 95  4 24 16  0 44.9990000  0  7G 2G18G19G27G28G29G31
                  -2796673.298 5  -2197158.428 5  23616346.956    23616349.030
         7.500           8.750
                  -2978115.668 7  -2320608.591 6  20025107.378    20025107.147
        20.500          17.750
                  -5903981.436 6  -4600503.790 6  20556058.769    20556058.390
        19.750          20.750
                 -11002942.741 5  -8573717.587 6  22314067.222    22314067.620
        11.750          12.500
                  -2791497.809 5  -2175190.288 6  23082497.253    23082497.370
        11.500          12.000
                   3347643.400 6   2608552.173 6  21286022.558    21286022.019
        17.500          17.250
                 -10963199.881 6  -8542747.805 6  21664176.261    21664176.550
        16.000          16.000
 95  4 24 16  0 59.9990000  0  7G 2G18G19G27G28G29G31
                  -2840967.390 5  -2231673.271 5  23607918.284    23607920.198
         7.750           8.750
                  -2968843.077 7  -2313383.201 6  20026872.190    20026871.640
        21.000          17.750
                  -5916060.724 6  -4609916.215 6  20553760.065    20553759.831
        19.750          20.750
                 -11037476.103 5  -8600626.682 6  22307495.659    22307495.956
        11.750          12.250
                  -2779783.385 5  -2166062.171 6  23084726.558    23084726.522
        11.500          12.000
                   3378618.012 6   2632688.229 6  21291917.065    21291916.480
        17.750          17.500
                 -10986687.641 6  -8561049.945 6  21659706.425    21659706.675
        15.250          15.750
 95  4 24 16  1 14.9990000  0  7G 2G18G19G27G28G29G31
                  -2885181.895 5  -2266126.091 5  23599505.503    23599506.694
         8.000           8.750
                  -2959412.446 7  -2306034.664 6  20028666.940    20028666.214
        21.500          17.500
                  -5928054.902 6  -4619262.327 6  20551477.628    20551477.487
        19.500          21.250
                 -11071956.436 5  -8627494.465 6  22300934.433    22300934.507
        11.750          12.250
                  -2767901.003 5  -2156803.178 5  23086987.714    23086987.593
        11.250          11.750
                   3409728.322 6   2656930.016 6  21297837.331    21297836.694
        18.000          17.500
                 -11010016.692 6  -8579228.418 6  21655267.112    21655267.194
        15.000          15.500
 95  4 24 16  1 29.9990000  0  7G 2G18G19G27G28G29G31
                  -2929312.046 5  -2300513.185 5  23591107.847    23591108.530
         8.250           8.500
                  -2949823.574 7  -2298562.824 6  20030491.706    20030490.952
        22.000          17.750
                  -5939967.417 6  -4628544.798 6  20549210.831    20549210.878
        19.500          21.250
                 -11106381.756 6  -8654319.376 6  22294383.495    22294383.636
        12.000          12.250
                  -2755849.085 5  -2147412.082 5  23089281.136    23089281.089
        10.750          11.250
                   3440975.497 6   2681278.451 6  21303783.487    21303782.980
        18.000          18.000
                 -11033183.317 6  -8597280.320 6  21650858.964    21650858.784
        15.500          15.000
 95  4 24 16  1 44.9990000  0  7G 2G18G19G27G28G29G31
                  -2973357.326 5  -2334834.150 5  23582726.042    23582726.737
         8.250           8.500
                  -2940074.725 7  -2290966.326 6  20032346.722    20032346.292
        21.500          18.250
                  -5951801.872 6  -4637766.447 6  20546958.878    20546958.741
        19.500          21.000
                 -11140751.290 6  -8681100.821 6  22287843.222    22287843.312
        12.000          12.500
                  -2743627.308 5  -2137888.626 5  23091606.761    23091606.550
        10.500          11.000
                   3472360.131 6   2705734.002 6  21309755.589    21309755.601
        17.500          18.250
                 -11056186.650 6  -8615204.976 6  21646481.980    21646481.358
        16.500          15.000
 95  4 24 16  1 59.9990000  0  7G 2G18G19G27G28G29G31
                  -3017317.810 5  -2369089.040 5  23574360.331    23574361.245
         8.250           8.250
                  -2930164.921 7  -2283244.406 6  20034232.378    20034232.147
        21.000          18.250
                  -5963562.629 6  -4646930.672 6  20544720.776    20544720.597
        19.500          21.000
                 -11175066.968 6  -8707840.295 6  22281313.222    22281313.386
        12.250          12.500
                  -2731237.260 5  -2128234.052 5  23093964.331    23093964.089
        10.500          10.500
                   3503878.174 6   2730293.505 6  21315753.284    21315753.472
        17.500          18.500
                 -11079028.848 6  -8633004.075 6  21642135.355    21642134.745
        17.250          15.500
 95  4 24 16  2 14.9990000  0  7G 2G18G19G27G28G29G31
                  -3061191.038 5  -2403275.938 5  23566011.323    23566012.312
         8.250           8.250
                  -2920090.769 7  -2275394.421 6  20036149.315    20036149.542
        20.500          18.750
                  -5975255.017 6  -4656041.618 6  20542495.839    20542495.554
        19.500          21.000
                 -11209330.360 6  -8734539.032 6  22274793.042    22274793.265
        12.250          12.750
                  -2718680.347 5  -2118449.449 5  23096354.136    23096353.292
        10.750          10.000
                   3535529.216 6   2754956.651 6  21321776.526    21321776.468
        18.000          18.750
                 -11101712.477 6  -8650679.615 6  21637818.800    21637818.046
        17.250          15.500
 95  4 24 16  2 29.9990000  0  7G 2G18G19G27G28G29G31
                  -3104976.373 5  -2437394.351 5  23557679.245    23557680.546
         8.250           8.000
                  -2909850.583 6  -2267415.050 6  20038097.612    20038097.921
        19.750          18.500
                  -5986881.800 6  -4665101.444 6  20540283.315    20540283.272
        19.500          21.250
                 -11243542.082 6  -8761197.506 6  22268282.870    22268283.030
        12.500          13.000
                  -2705956.624 5  -2108534.851 5  23098775.417    23098774.339
        11.250           9.500
                   3567315.807 6   2779725.421 6  21327825.698    21327825.472
        18.250          18.750
                 -11124236.413 6  -8668230.721 6  21633532.526    21633531.987
        17.000          15.750
 95  4 24 16  2 44.9990000  0  7G 2G18G19G27G28G29G31
                  -3148673.662 5  -2471444.153 5  23549364.097    23549365.132
         8.250           8.000
                  -2899444.159 7  -2259306.142 6  20040077.901    20040078.343
        20.000          18.750
                  -5998442.279 6  -4674109.604 6  20538083.456    20538083.343
        19.750          21.250
                 -11277702.527 6  -8787816.019 6  22261782.214    22261782.624
        12.500          13.250
                  -2693066.066 5  -2098490.240 5  23101228.456    23101227.222
        11.500          10.000
                   3599238.337 6   2804600.108 6  21333900.386    21333899.831
        18.500          18.500
                 -11146601.113 6  -8685657.750 6  21629276.464    21629276.062
        16.250          15.750
 95  4 24 16  2 59.9990000  0  7G 2G18G19G27G28G29G31
                  -3192279.498 5  -2505422.690 5  23541066.230    23541067.319
         8.500           8.000
                  -2888873.381 7  -2251069.172 6  20042089.667    20042090.058
        20.500          18.750
                  -6009935.784 6  -4683065.582 6  20535896.292    20535896.202
        19.500          21.000
                 -11311812.071 6  -8814394.871 6  22255291.519    22255291.796
        12.750          13.500
                  -2680009.975 5  -2088316.649 5  23103712.800    23103711.925
        11.250          10.500
                   3631294.040 6   2829578.569 6  21340000.058    21339999.913
        17.750          18.500
                 -11168808.789 6  -8702962.428 6  21625050.097    21625050.089
        15.500          15.750
 95  4 24 16  3 14.9990000  0  7G 2G18G19G27G28G29G31
                  -3235795.792 5  -2539331.467 5  23532785.151    23532786.522
         9.000           8.000
                  -2878141.590 7  -2242706.740 6  20044132.034    20044132.081
        21.250          18.500
                  -6021362.670 6  -4691969.644 6  20533721.737    20533721.667
        19.500          21.000
                 -11345872.499 6  -8840935.452 6  22248810.097    22248810.355
        12.750          13.500
                  -2666788.601 5  -2078014.275 5  23106228.534    23106228.417
        10.750          11.250
                   3663481.756 6   2854659.895 6  21346124.636    21346124.726
        17.250          18.000
                 -11190857.388 6  -8720143.145 6  21620854.378    21620854.296
        15.500          15.500
 95  4 24 16  3 29.9990000  0  7G 2G18G19G27G28G29G31
                  -3279220.180 5  -2573168.629 5  23524521.800    23524523.085
         9.000           8.000
                  -2867245.538 7  -2234216.318 6  20046205.675    20046205.347
        21.250          17.750
                  -6032720.465 6  -4700819.871 6  20531560.480    20531560.319
        19.250          20.750
                 -11379883.410 6  -8867437.449 6  22242338.034    22242338.155
        12.750          13.000
                  -2653400.390 5  -2067581.901 5  23108776.198    23108776.366
        10.000          11.750
                   3695801.936 6   2879844.448 6  21352274.878    21352274.647
        17.000          17.500
                 -11212741.367 6  -8737195.595 6  21616690.112    21616689.886
        15.500          15.250
 95  4 24 16  3 44.9990000  0  7G 2G18G19G27G28G29G31
                  -3322555.292 5  -2606936.219 5  23516275.276    23516276.800
         9.500           8.000
                  -2856184.238 7  -2225597.128 6  20048310.542    20048310.065
        21.500          17.750
                  -6044008.867 6  -4709616.024 6  20529412.675    20529412.515
        19.750          21.000
                 -11413848.495 6  -8893903.732 6  22235874.651    22235874.952
        12.750          13.250
                  -2639848.240 5  -2057021.798 6  23111354.683    23111355.390
        10.000          12.250
                   3728249.800 6   2905128.486 6  21358450.120    21358449.495
        17.500          17.750
                 -11234465.583 6  -8754123.542 6  21612556.190    21612555.843
        16.000          15.250
 95  4 24 16  3 59.9990000  0  7G 2G18G19G27G28G29G31
                  -3365804.187 5  -2640636.634 5  23508045.425    23508046.874
         9.750           8.250
                  -2844959.257 7  -2216850.395 6  20050446.519    20050446.097
        21.000          17.500
                  -6055225.652 6  -4718356.376 6  20527277.909    20527277.815
        19.500          21.000
                 -11447769.126 6  -8920335.382 6  22229419.605    22229420.112
        12.500          13.250
                  -2626132.633 5  -2046334.326 6  23113964.839    23113965.296
         9.750          12.000
                   3760824.944 6   2930511.706 6  21364649.042    21364648.413
        17.750          17.750
                 -11256032.485 6  -8770928.908 6  21608452.222    21608451.792
        16.500          15.250
 95  4 24 16  4 14.9990000  0  7G 2G18G19G27G28G29G31
                  -3408967.401 5  -2674270.275 5  23499831.753    23499833.253
         9.500           8.250
                  -2833572.133 7  -2207977.312 6  20052613.417    20052613.026
        20.750          17.500
                  -6066369.942 6  -4727040.231 6  20525157.198    20525157.132
        19.500          21.000
                 -11481646.844 6  -8946733.591 6  22222972.886    22222973.265
        12.500          13.000
                  -2612254.258 5  -2035520.019 5  23116605.847    23116606.085
        10.000          11.500
                   3793524.867 6   2955992.149 6  21370871.745    21370870.909
        17.750          17.500
                 -11277441.768 6  -8787611.449 6  21604378.284    21604377.683
        16.750          15.500
 95  4 24 16  4 29.9990000  0  7G 2G18G19G27G28G29G31
                  -3452046.214 5  -2707838.151 5  23491633.808    23491635.616
         9.250           8.250
                  -2822025.655 7  -2198980.062 6  20054810.589    20054810.065
        20.500          17.250
                  -6077436.972 6  -4735663.889 6  20523051.409    20523051.085
        19.500          20.750
                 -11515479.481 6  -8973096.673 6  22216534.776    22216535.062
        12.500          12.750
                  -2598212.463 5  -2024578.373 5  23119278.050    23119277.827
        10.250          10.750
                   3826348.292 6   2981568.845 6  21377117.401    21377116.909
        17.500          17.500
                 -11298689.683 6  -8804168.252 6  21600335.011    21600334.394
        16.500          15.500
 95  4 24 16  4 44.9990000  0  7G 2G18G19G27G28G29G31
                  -3495043.586 5  -2741342.568 5  23483451.175    23483453.640
         9.000           8.250
                  -2810323.559 7  -2189861.548 6  20057037.534    20057037.015
        20.500          17.500
                  -6088426.832 6  -4744227.414 6  20520960.105    20520959.823
        19.750          21.000
                 -11549266.963 6  -8999424.572 6  22210105.214    22210105.558
        12.750          12.750
                  -2584007.871 5  -2013509.863 5  23121981.605    23121980.776
        10.750          10.000
                   3859292.953 6   3007240.003 6  21383386.464    21383386.308
        17.000          17.750
                 -11319772.717 6  -8820596.581 6  21596322.855    21596322.499
        16.000          15.750
 95  4 24 16  4 59.9990000  0  7G 2G18G19G27G28G29G31
                  -3537960.527 5  -2774784.321 5  23475284.347    23475286.999
         9.250           8.500
                  -2798466.564 7  -2180622.332 6  20059293.730    20059293.366
        20.750          18.000
                  -6099340.087 6  -4752731.246 6  20518883.300    20518883.128
        19.500          20.750
                 -11583007.788 6  -9025716.115 6  22203684.487    22203684.663
        12.750          12.750
                  -2569641.146 5  -2002315.013 5  23124715.706    23124714.507
        11.250           9.500
                   3892356.318 6   3033003.655 6  21389678.440    21389677.886
        17.250          17.750
                 -11340691.122 6  -8836896.628 6  21592341.675    21592341.741
        15.250          16.000
 95  4 24 16  5 14.9990000  0  7G 2G18G19G27G28G29G31
                  -3580795.821 5  -2808162.451 5  23467133.394    23467135.788
         9.500           8.750
                  -2786455.225 7  -2171262.850 6  20061579.464    20061579.046
        21.000          18.250
                  -6110177.602 6  -4761176.059 6  20516820.948    20516820.722
        19.500          20.750
                 -11616700.115 6  -9051969.866 6  22197273.128    22197273.292
        12.750          12.750
                  -2555111.314 6  -1990993.057 5  23127480.995    23127479.339
        12.000           9.000
                   3925540.049 6   3058861.096 6  21395993.487    21395992.722
        17.750          17.750
                 -11361443.238 6  -8853067.103 6  21588392.636    21588392.628
        15.250          16.250
 95  4 24 16  5 29.9990000  0  7G 2G18G19G27G28G29G31
                  -3623548.456 5  -2841476.170 5  23458998.237    23458999.905
         9.500           8.750
                  -2774288.338 7  -2161782.162 6  20063894.808    20063894.507
        21.000          18.500
                  -6120941.181 6  -4769563.261 6  20514772.870    20514772.522
        19.500          20.500
                 -11650341.922 6  -9078184.249 6  22190871.308    22190871.136
        12.500          12.750
                  -2540417.067 6  -1979542.983 5  23130277.276    23130275.796
        12.250           9.000
                   3958843.930 6   3084812.162 6  21402331.292    21402330.210
        18.000          17.500
                 -11382027.470 6  -8869106.756 6  21584475.534    21584475.651
        15.250          16.000
 95  4 24 16  5 44.9990000  0  7G 2G18G19G27G28G29G31
                  -3666216.020 5  -2874723.600 5  23450879.073    23450880.386
         9.750           8.750
                  -2761962.764 7  -2152177.818 6  20066240.253    20066239.976
        21.250          18.750
                  -6131629.304 6  -4777891.670 6  20512738.831    20512738.577
        19.500          20.750
                 -11683931.530 6  -9104357.959 6  22184479.237    22184479.276
        12.500          12.750
                  -2525557.015 6  -1967963.710 5  23133104.886    23133103.487
        12.000           9.250
                   3992268.123 6   3110856.976 6  21408691.214    21408690.222
        17.500          17.000
                 -11402444.191 6  -8885015.878 6  21580590.526    21580590.456
        15.500          16.000
 95  4 24 16  5 59.9990000  0  7G 2G18G19G27G28G29G31
                  -3708800.575 5  -2907906.342 5  23442775.167    23442776.456
         9.250           8.750
                  -2749481.471 7  -2142452.133 6  20068615.644    20068615.433
        21.250          18.750
                  -6142242.092 6  -4786161.371 6  20510719.175    20510719.062
        19.500          20.750
                 -11717468.035 6  -9130490.288 6  22178097.417    22178097.405
        12.500          13.000
                  -2510531.651 5  -1956255.626 5  23135964.019    23135962.659
        11.750           9.250
                   4025814.358 6   3136996.883 6  21415074.847    21415074.089
        17.000          16.750
                 -11422695.241 6  -8900795.907 6  21576737.237    21576736.683
        16.000          15.500
 95  4 24 16  6 14.9990000  0  7G 2G18G19G27G28G29G31
                  -3751300.548 5  -2941023.175 5  23434687.534    23434688.956
         9.000           9.000
                  -2736845.123 7  -2132605.630 6  20071020.261    20071019.815
        21.500          18.250
                  -6152782.551 6  -4794374.712 6  20508713.620    20508713.257
        19.750          20.750
                 -11750951.248 6  -9156581.093 6  22171725.628    22171725.886
        12.500          13.000
                  -2495341.848 5  -1944419.415 5  23138854.058    23138853.347
        11.000           9.500
                   4059485.460 6   3163234.094 6  21421481.995    21421481.519
        17.000          16.750
                 -11442778.315 6  -8916445.042 6  21572915.823    21572915.058
        16.250          15.250
 95  4 24 16  6 29.9990000  0  7G 2G18G19G27G28G29G31
                  -3793714.362 5  -2974072.866 5  23426616.589    23426618.218
         9.000           9.500
                  -2724052.736 7  -2122637.536 6  20073454.526    20073453.933
        21.250          17.750
                  -6163249.392 6  -4802530.688 6  20506721.855    20506721.468
        19.500          20.500
                 -11784379.677 6  -9182629.209 6  22165364.636    22165364.815
        12.750          13.000
                  -2479987.477 5  -1932454.975 5  23141775.737    23141775.206
        11.000          10.000
                   4093283.518 6   3189570.232 6  21427913.675    21427913.405
        17.000          17.000
                 -11462691.064 6  -8931961.454 6  21569126.409    21569125.714
        16.250          15.500
 95  4 24 16  6 44.9990000  0  7G 2G18G19G27G28G29G31
                  -3836040.310 5  -3007054.090 5  23418562.565    23418564.046
         9.250           9.750
                  -2711101.855 7  -2112545.945 6  20075918.948    20075918.269
        21.000          17.250
                  -6173641.487 6  -4810628.420 6  20504744.136    20504743.843
        19.750          20.500
                 -11817749.926 6  -9208631.989 6  22159014.581    22159014.831
        13.000          13.250
                  -2464466.622 5  -1920360.815 5  23144729.206    23144728.812
        11.000          10.250
                   4127213.663 6   3216009.296 6  21434370.511    21434370.319
        17.250          17.250
                 -11482432.296 6  -8947344.220 6  21565369.628    21565369.136
        16.250          15.750
 95  4 24 16  6 59.9990000  0  7G 2G18G19G27G28G29G31
                  -3878279.786 5  -3039967.941 5  23410524.558    23410526.280
         9.500           9.750
                  -2697992.278 7  -2102330.701 6  20078413.503    20078412.855
        20.750          17.250
                  -6183961.528 6  -4818670.007 6  20502780.370    20502780.050
        19.750          20.500
                 -11851063.592 6  -9234590.685 6  22152675.300    22152675.292
        13.000          13.250
                  -2448780.608 5  -1908137.957 5  23147714.292    23147713.999
        11.250          10.750
                   4161277.228 6   3242552.333 6  21440852.683    21440852.765
        17.000          17.500
                 -11502007.488 6  -8962597.607 6  21561644.589    21561644.433
        16.000          16.250
 95  4 24 16  7 14.9990000  0  7G 2G18G19G27G28G29G31
                  -3920428.416 5  -3072811.007 5  23402503.651    23402505.355
         9.500           9.500
                  -2684721.236 7  -2091989.634 6  20080938.722    20080938.308
        20.500          17.500
                  -6194202.483 6  -4826649.970 6  20500831.651    20500831.269
        19.750          20.750
                 -11884319.202 6  -9260504.138 6  22146346.855    22146347.175
        13.000          13.500
                  -2432926.230 5  -1895783.909 5  23150731.386    23150731.187
        11.750          10.750
                   4195476.717 6   3269201.279 6  21447360.433    21447360.409
        16.750          17.000
                 -11521414.849 6  -8977720.222 6  21557951.464    21557951.464
        16.000          16.750
 95  4 24 16  7 29.9990000  0  7G 2G18G19G27G28G29G31
                  -3962485.807 5  -3105582.979 5  23394500.300    23394501.874
         9.500           9.250
                  -2671291.867 7  -2081525.192 6  20083494.292    20083493.991
        20.500          18.000
                  -6204364.412 6  -4834568.349 6  20498897.769    20498897.628
        19.750          20.500
                 -11917520.770 6  -9286375.473 6  22140028.862    22140029.253
        13.000          13.500
                  -2416905.164 6  -1883299.974 5  23153780.136    23153780.151
        12.000          10.750
                   4229809.294 6   3295953.941 6  21453893.636    21453893.546
        16.500          16.500
                 -11540655.258 6  -8992712.747 6  21554290.120    21554290.210
        16.000          17.000
 95  4 24 16  7 44.9990000  0  7G 2G18G19G27G28G29G31
                  -4004452.005 5  -3138283.890 5  23386514.753    23386515.546
         9.500           9.250
                  -2657700.185 7  -2070934.274 6  20086080.917    20086080.690
        20.750          18.250
                  -6214444.077 6  -4842422.635 6  20496979.667    20496979.421
        19.500          20.250
                 -11950667.003 6  -9312203.694 6  22133721.151    22133721.562
        12.750          13.250
                  -2400716.065 6  -1870685.103 5  23156860.886    23156860.882
        12.000          10.500
                   4264275.553 6   3322810.760 6  21460452.245    21460452.054
        16.500          16.250
                 -11559726.620 6  -9007573.547 6  21550661.042    21550661.085
        16.250          16.750
 95  4 24 16  7 59.9990000  0  7G 2G18G19G27G28G29G31
                  -4046329.507 5  -3170915.671 5  23378545.925    23378546.913
         9.500           9.500
                  -2643947.711 7  -2060218.065 6  20088698.261    20088697.905
        21.500          19.000
                  -6224442.816 6  -4850213.857 6  20495077.065    20495076.663
        19.750          20.500
                 -11983760.886 6  -9337991.126 6  22127423.534    22127423.663
        12.750          13.000
                  -2384361.104 6  -1857940.987 5  23159973.308    23159973.026
        12.250          10.250
                   4298876.188 6   3349772.277 6  21467036.628    21467036.065
        16.750          16.250
                 -11578630.545 6  -9022303.872 6  21547063.862    21547063.733
        16.750          16.750
 95  4 24 16  8 14.9990000  0  7G 2G18G19G27G28G29G31
                  -4088118.689 5  -3203478.642 5  23370593.175    23370594.694
         9.250           9.750
                  -2630035.394 7  -2049377.307 6  20091345.722    20091345.253
        22.000          19.000
                  -6234363.838 6  -4857944.520 6  20493189.183    20493188.800
        19.750          20.500
                 -12016804.278 6  -9363739.217 6  22121135.620    22121135.737
        13.000          13.000
                  -2367841.397 6  -1845068.489 5  23163116.894    23163116.405
        12.000           9.500
                   4333611.907 6   3376839.052 6  21473646.659    21473645.866
        16.750          16.000
                 -11597365.154 6  -9036902.264 6  21543498.761    21543498.433
        16.750          16.500
 95  4 24 16  8 29.9990000  0  7G 2G18G19G27G28G29G31
                  -4129815.977 5  -3235970.006 5  23362657.722    23362659.909
         9.000           9.750
                  -2615959.381 7  -2038408.986 6  20094024.144    20094023.483
        21.750          18.750
                  -6244205.263 6  -4865613.157 6  20491316.472    20491316.108
        19.750          20.500
                 -12049795.956 6  -9389447.009 6  22114857.589    22114857.730
        13.000          13.250
                  -2351154.303 5  -1832065.555 5  23166292.058    23166291.327
        11.500           9.000
                   4368482.915 6   3404011.255 6  21480282.495    21480282.210
        16.500          16.000
                 -11615926.889 6  -9051365.936 6  21539966.495    21539966.054
        16.500          15.750
 95  4 24 16  8 44.9990000  0  7G 2G18G19G27G28G29G31
                  -4171426.558 5  -3268393.813 5  23354739.589    23354741.315
         9.250           9.500
                  -2601723.111 7  -2027315.791 6  20096733.019    20096732.437
        21.250          18.500
                  -6253970.998 7  -4873222.820 6  20489458.019    20489457.558
        20.000          20.500
                 -12082739.629 6  -9415117.400 6  22108588.683    22108588.753
        13.250          13.250
                  -2334302.921 5  -1818934.604 5  23169498.542    23169497.804
        11.000           8.750
                   4403483.843 6   3431284.695 6  21486943.050    21486942.608
        16.750          16.250
                 -11634318.951 6  -9065697.402 6  21536466.550    21536465.882
        16.250          15.500
 95  4 24 16  8 59.9990000  0  7G 2G18G19G27G28G29G31
                  -4212950.141 5  -3300749.824 5  23346838.605    23346839.659
         9.750           9.250
                  -2587326.661 7  -2016097.778 6  20099472.269    20099471.769
        20.250          18.000
                  -6263663.190 7  -4880775.175 6  20487613.667    20487613.401
        20.000          20.750
                 -12115636.162 6  -9440751.053 6  22102328.667    22102329.007
        13.000          13.500
                  -2317286.725 5  -1805675.231 5  23172736.573    23172735.812
        11.000           9.000
                   4438613.642 6   3458658.558 6  21493628.315    21493627.644
        17.000          16.250
                 -11652540.643 6  -9079896.114 6  21532999.026    21532998.417
        16.000          15.500
 95  4 24 16  9 14.9990000  0  7G 2G18G19G27G28G29G31
                  -4254385.249 5  -3333036.892 5  23338954.105    23338954.948
        10.000           9.250
                  -2572769.915 7  -2004754.862 6  20102242.206    20102241.687
        20.000          17.750
                  -6273280.784 7  -4888269.402 6  20485783.581    20485783.343
        20.000          20.750
                 -12148486.195 6  -9466348.473 6  22096077.386    22096077.644
        13.000          13.250
                  -2300106.336 5  -1792287.923 5  23176006.089    23176005.358
        11.250           9.250
                   4473869.111 6   3486130.345 6  21500337.269    21500336.429
        17.000          16.000
                 -11670589.854 6  -9093960.424 6  21529564.355    21529563.655
        16.000          15.750
 95  4 24 16  9 29.9990000  0  7G 2G18G19G27G28G29G31
                  -4295729.187 5  -3365252.921 5  23331086.331    23331087.937
        10.000           9.250
                  -2558051.587 7  -1993286.040 6  20105043.159    20105042.464
        20.250          17.500
                  -6282825.382 7  -4895706.752 6  20483967.323    20483967.108
        20.000          20.750
                 -12181289.096 6  -9491909.167 6  22089835.128    22089835.347
        12.750          13.250
                  -2282761.072 5  -1778772.141 5  23179307.214    23179306.323
        11.750          10.000
                   4509251.123 6   3513700.728 6  21507069.730    21507069.065
        16.500          15.500
                 -11688464.047 6  -9107888.364 6  21526162.995    21526162.522
        16.000          16.000
 95  4 24 16  9 44.9990000  0  7G 2G18G19G27G28G29G31
                  -4336983.590 5  -3397399.188 5  23323235.245    23323237.663
         9.500           9.500
                  -2543168.113 7  -1981688.530 6  20107875.675    20107874.788
        21.250          18.000
                  -6292298.040 7  -4903088.041 6  20482164.605    20482164.323
        20.000          20.750
                 -12214042.485 6  -9517431.274 6  22083602.261    22083602.538
        12.750          13.250
                  -2265249.974 6  -1765127.136 5  23182639.636    23182638.753
        12.250          10.750
                   4544761.795 6   3541371.372 6  21513826.870    21513825.925
        16.250          15.250
                 -11706163.322 6  -9121680.004 6  21522795.003    21522794.651
        16.250          16.500
 95  4 24 16  9 59.9990000  0  7G 2G18G19G27G28G29G31
                  -4378150.695 5  -3429477.439 5  23315401.089    23315403.901
         9.250           9.500
                  -2528120.368 7  -1969963.021 6  20110739.464    20110738.452
        22.000          18.250
                  -6301698.252 7  -4910412.880 6  20480375.940    20480375.577
        20.000          20.750
                 -12246746.718 6  -9542915.085 6  22077378.886    22077379.128
        12.750          13.500
                  -2247573.400 6  -1751353.187 5  23186003.136    23186002.718
        12.000          11.000
                   4580403.657 6   3569144.245 6  21520609.144    21520608.675
        15.750          15.250
                 -11723688.119 6  -9135335.683 6  21519460.120    21519459.812
        16.500          16.250
 95  4 24 16 10 14.9990000  0  7G 2G18G19G27G28G29G31
                  -4419230.419 5  -3461487.592 5  23307584.355    23307586.464
         9.750           9.500
                  -2512911.644 7  -1958112.075 6  20113633.847    20113633.065
        22.000          18.500
                  -6311026.613 6  -4917681.727 6  20478600.972    20478600.511
        19.750          20.750
                 -12279402.858 6  -9568361.417 6  22071164.933    22071164.827
        13.000          13.500
                  -2229732.250 5  -1737451.005 5  23189398.011    23189397.948
        11.750          11.250
                   4616173.746 6   3597017.030 6  21527416.144    21527415.827
        16.000          15.750
                 -11741038.729 6  -9148855.631 6  21516158.511    21516158.128
        16.750          16.250
 95  4 24 16 10 29.9990000  0  7G 2G18G19G27G28G29G31
                  -4460224.112 5  -3493430.700 5  23299783.980    23299785.198
        10.000           9.000
                  -2497541.966 7  -1946135.708 6  20116558.347    20116557.897
        21.000          18.500
                  -6320281.244 6  -4924893.126 6  20476839.581    20476839.218
        19.750          20.500
                 -12312009.752 6  -9593769.373 6  22064960.128    22064960.011
        13.250          13.500
                  -2211726.791 5  -1723420.791 5  23192824.136    23192824.394
        11.500          11.250
                   4652069.544 6   3624987.770 6  21534247.495    21534247.062
        16.500          15.750
                 -11758213.527 6  -9162238.587 6  21512889.917    21512889.835
        16.250          15.750
 95  4 24 16 10 44.9990000  0  7G 2G18G19G27G28G29G31
                  -4501134.709 5  -3525309.061 5  23291998.792    23292000.011
        10.250           9.250
                  -2482014.016 7  -1934036.010 6  20119512.909    20119512.687
        20.500          19.000
                  -6329460.865 6  -4932046.073 6  20475092.808    20475092.507
        19.750          20.750
                 -12344567.110 6  -9619138.732 6  22058764.714    22058764.507
        13.500          13.500
                  -2193558.565 5  -1709263.752 5  23196281.425    23196281.671
        11.500          11.500
                   4688087.111 6   3653053.392 6  21541101.519    21541101.058
        16.750          16.250
                 -11775215.738 6  -9175487.059 6  21509654.519    21509654.261
        16.250          15.750
 95  4 24 16 10 59.9990000  0  7G 2G18G19G27G28G29G31
                  -4541959.694 5  -3557120.710 5  23284229.800    23284231.409
        10.250           9.500
                  -2466327.072 7  -1921812.408 6  20122497.925    20122497.792
        20.000          18.750
                  -6338563.345 7  -4939138.913 6  20473360.769    20473360.444
        20.000          20.750
                 -12377072.291 6  -9644467.439 6  22052579.097    22052578.874
        13.750          13.500
                  -2175226.297 5  -1694978.880 5  23199770.190    23199770.105
        11.500          11.000
                   4724226.339 6   3681213.821 6  21547978.362    21547978.140
        16.500          16.000
                 -11792046.696 6  -9188602.088 6  21506451.683    21506451.519
        15.750          15.750
 95  4 24 16 11 14.9990000  0  7G 2G18G19G27G28G29G31
                  -4582698.378 5  -3588865.125 5  23276477.495    23276479.269
        10.250           9.750
                  -2450482.539 7  -1909466.016 6  20125513.073    20125512.671
        20.250          18.750
                  -6347586.921 7  -4946170.270 6  20471643.690    20471643.526
        20.000          21.000
                 -12409525.142 6  -9669755.364 6  22046403.565    22046403.394
        13.750          13.500
                  -2156730.822 5  -1680566.834 5  23203289.808    23203289.444
        11.000          10.750
                   4760485.929 6   3709468.041 6  21554877.964    21554877.784
        16.000          15.750
                 -11808709.617 6  -9201586.181 6  21503280.901    21503280.687
        15.750          15.750
 95  4 24 16 11 29.9990000  0  7G 2G18G19G27G28G29G31
                  -4623349.972 5  -3620541.669 5  23268742.073    23268743.597
        10.250           9.750
                  -2434479.954 7  -1896996.468 6  20128558.605    20128557.675
        21.000          18.250
                  -6356529.627 6  -4953138.610 6  20469941.761    20469941.608
        19.750          21.000
                 -12441926.391 6  -9695003.082 6  22040237.581    22040237.620
        13.500          13.250
                  -2138072.738 5  -1666028.081 5  23206840.151    23206839.542
        10.750          10.250
                   4796865.773 6   3737815.972 6  21561800.651    21561800.577
        15.750          15.500
                 -11825206.125 6  -9214440.596 6  21500142.019    21500141.851
        16.000          16.000
 95  4 24 16 11 44.9990000  0  7G 2G18G19G27G28G29G31
                  -4663916.375 5  -3652151.830 5  23261022.659    23261023.886
        10.250           9.500
                  -2418322.082 7  -1884405.923 6  20131633.440    20131632.546
        21.500          18.250
                  -6365392.289 6  -4960044.577 6  20468255.261    20468255.015
        19.750          21.000
                 -12474278.886 6  -9720212.807 6  22034081.003    22034081.069
        13.500          13.250
                  -2119252.992 5  -1651363.354 5  23210421.480    23210420.780
        10.500          10.000
                   4833364.243 6   3766256.333 6  21568746.456    21568746.245
        16.250          15.750
                 -11841538.169 6  -9227166.861 6  21497033.925    21497033.905
        16.500          16.250
 95  4 24 16 11 59.9990000  0  7G 2G18G19G27G28G29G31
                  -4704394.835 5  -3683693.468 5  23253319.370    23253320.999
        10.000           9.500
                  -2402006.618 7  -1871692.579 6  20134738.136    20134737.312
        21.250          18.250
                  -6374172.370 6  -4966886.201 6  20466584.464    20466584.163
        19.750          20.750
                 -12506579.151 6  -9745381.837 6  22027934.323    22027934.433
        13.250          13.250
                  -2100269.991 5  -1636571.408 5  23214033.855    23214033.198
        10.750          10.000
                   4869982.687 6   3794790.174 6  21575714.987    21575714.651
        16.250          15.750
                 -11857702.177 6  -9239762.179 6  21493958.003    21493957.944
        16.750          16.750
 95  4 24 16 12 14.9990000  0  7G 2G18G19G27G28G29G31
                  -4744779.788 5  -3715162.252 5  23245634.183    23245636.050
        10.000           9.500
                  -2385533.846 7  -1858856.663 6  20137872.550    20137871.960
        20.750          18.250
                  -6382869.678 6  -4973663.319 6  20464929.362    20464929.210
        19.750          21.000
                 -12538824.332 6  -9770507.940 6  22021798.589    22021798.315
        13.500          13.250
                  -2081122.409 5  -1621651.215 5  23217677.659    23217677.210
        11.000          10.250
                   4906721.391 6   3823417.725 6  21582706.237    21582705.659
        16.250          15.750
                 -11873694.025 6  -9252223.352 6  21490914.894    21490914.687
        17.000          16.750
 95  4 24 16 12 29.9990000  0  7G 2G18G19G27G28G29G31
                  -4785072.914 5  -3746559.481 5  23237966.964    23237968.409
        10.250           9.750
                  -2368902.701 6  -1845897.335 6  20141037.073    20141036.882
        19.750          18.500
                  -6391489.389 6  -4980379.971 6  20463289.065    20463289.007
        19.750          20.750
                 -12571015.618 6  -9795592.053 6  22015672.769    22015672.636
        13.500          13.250
                  -2061812.293 5  -1606604.378 5  23221352.276    23221351.991
        11.250          10.750
                   4943578.373 6   3852137.442 6  21589720.190    21589719.483
        16.500          15.500
                 -11889515.245 6  -9264551.570 6  21487904.261    21487903.749
        17.000          16.500
 95  4 24 16 12 44.9990000  0  7G 2G18G19G27G28G29G31
                  -4825275.660 5  -3777886.272 5  23230317.105    23230318.366
        10.750          10.000
                  -2352112.969 6  -1832814.428 6  20144232.136    20144232.183
        19.750          18.750
                  -6400032.132 6  -4987036.653 6  20461663.589    20461663.366
        19.750          21.000
                 -12603154.886 6  -9820635.632 6  22009556.823    22009556.784
        13.500          13.500
                  -2042341.805 5  -1591432.575 5  23225057.355    23225057.472
        11.250          11.000
                   4980555.187 6   3880950.525 6  21596756.456    21596755.644
        16.500          15.500
                 -11905168.811 6  -9276749.149 6  21484925.386    21484925.163
        16.750          16.750
 95  4 24 16 12 59.9990000  0  7G 2G18G19G27G28G29G31
                  -4865382.537 5  -3809138.363 5  23222685.237    23222686.202
        10.750          10.250
                  -2335160.160 7  -1819604.449 6  20147458.362    20147458.167
        20.250          19.000
                  -6408493.640 6  -4993630.034 6  20460053.276    20460053.167
        19.500          20.750
                 -12635237.991 6  -9845635.443 6  22003451.605    22003451.741
        13.500          13.750
                  -2022707.009 5  -1576132.746 5  23228793.550    23228793.679
        11.000          11.250
                   5017658.054 6   3909861.837 6  21603816.550    21603815.765
        15.750          15.000
                 -11920653.266 6  -9288814.960 6  21481979.097    21481978.847
        16.500          16.500
 95  4 24 16 13 14.9990000  0  7G 2G18G19G27G28G29G31
                  -4905393.294 5  -3840315.538 5  23215070.714    23215072.007
        10.000          10.000
                  -2318044.339 7  -1806267.449 6  20150715.433    20150715.187
        20.500          19.000
                  -6416875.299 6  -5000161.194 6  20458458.206    20458458.237
        19.500          20.750
                 -12667266.041 6  -9870592.356 6  21997356.745    21997356.913
        13.750          13.750
                  -2002909.007 5  -1560705.743 5  23232560.878    23232560.987
        10.500          11.000
                   5054889.822 6   3938873.591 6  21610901.050    21610900.605
        15.250          14.750
                 -11935967.277 6  -9300747.953 6  21479064.730    21479064.581
        16.750          16.250
 95  4 24 16 13 29.9990000  0  7G 2G18G19G27G28G29G31
                  -4945311.454 5  -3871420.572 5  23207473.745    23207475.624
         9.500          10.000
                  -2300765.255 7  -1792803.234 6  20154003.831    20154003.448
        21.000          19.000
                  -6425177.450 6  -5006630.404 6  20456878.612    20456878.565
        19.500          21.000
                 -12699240.114 6  -9895507.210 6  21991272.565    21991272.655
        14.000          14.000
                  -1982948.900 5  -1545152.426 5  23236359.112    23236359.132
        10.500          11.000
                   5092250.866 6   3967986.082 6  21618010.870    21618010.687
        15.500          15.250
                 -11951107.249 6  -9312545.330 6  21476183.878    21476183.585
        17.000          16.750
 95  4 24 16 13 44.9990000  0  7G 2G18G19G27G28G29G31
                  -4985137.896 5  -3902454.139 5  23199895.230    23199897.116
         9.750          10.250
                  -2283325.371 7  -1779213.723 6  20157322.409    20157321.952
        20.750          19.250
                  -6433402.220 6  -5013039.311 6  20455313.503    20455313.140
        19.750          20.750
                 -12731161.215 6  -9920380.787 6  21985198.167    21985198.241
        14.500          14.250
                  -1962828.050 5  -1529473.859 5  23240187.995    23240187.858
        10.250          10.500
                   5129739.911 6   3997198.316 6  21625144.980    21625144.776
        15.750          15.500
                 -11966071.640 6  -9324205.892 6  21473336.308    21473335.995
        17.250          16.500
 95  4 24 16 13 59.9990000  0  7G 2G18G19G27G28G29G31
                  -5024871.523 5  -3933415.387 5  23192334.808    23192336.585
        10.250          10.500
                  -2265720.474 7  -1765495.629 6  20160672.292    20160672.022
        20.250          19.000
                  -6441546.724 6  -5019385.676 6  20453763.675    20453763.269
        19.750          20.750
                 -12763022.877 6  -9945208.043 6  21979135.042    21979135.073
        14.250          14.500
                  -1942543.059 5  -1513667.386 5  23244048.417    23244047.827
        10.500          10.250
                   5167360.804 6   4026513.286 6  21632304.464    21632303.901
        16.250          15.500
                 -11980854.669 6  -9335725.126 6  21470523.167    21470522.925
        17.250          16.750
 95  4 24 16 14 14.9990000  0  7G 2G18G19G27G28G29G31
                  -5064512.946 5  -3964304.790 5  23184791.628    23184793.378
        10.500          10.750
                  -2247949.756 6  -1751648.323 6  20164053.776    20164053.655
        19.750          18.750
                  -6449611.700 6  -5025670.069 6  20452228.894    20452228.671
        19.750          20.750
                 -12794826.261 6  -9969989.898 6  21973082.862    21973083.132
        14.000          14.500
                  -1922095.302 5  -1497734.082 5  23247939.823    23247938.823
        10.750          10.000
                   5205115.368 6   4055932.410 6  21639489.394    21639488.155
        17.000          15.250
                 -11995457.258 6  -9347103.765 6  21467744.331    21467744.183
        17.000          16.750
 95  4 24 16 14 29.9990000  0  7G 2G18G19G27G28G29G31
                  -5104064.176 5  -3995123.918 5  23177265.089    23177266.972
        10.250          10.750
                  -2230013.493 6  -1737672.017 6  20167466.925    20167466.745
        19.750          18.750
                  -6457595.822 6  -5031891.460 6  20450709.565    20450709.519
        19.750          21.000
                 -12826573.331 6  -9994727.861 6  21967041.612    21967041.952
        13.750          14.500
                  -1901484.257 5  -1481673.540 5  23251862.081    23251861.120
        11.000          10.000
                   5243004.229 6   4085456.180 6  21646699.190    21646697.937
        16.750          15.000
                 -12009880.493 6  -9358342.651 6  21464999.628    21464999.440
        17.000          16.750
 95  4 24 16 14 44.9990000  0  7G 2G18G19G27G28G29G31
                  -5143526.414 5  -4025873.701 5  23169755.097    23169756.882
        10.000          10.500
                  -2211911.383 7  -1723566.482 6  20170911.815    20170911.464
        20.000          18.750
                  -6465499.332 6  -5038050.036 6  20449205.511    20449205.308
        19.750          21.000
                 -12858266.320 6 -10019423.687 6  21961010.706    21961010.890
        13.750          14.250
                  -1880710.763 5  -1465486.405 5  23255815.112    23255814.101
        11.000           9.500
                   5281027.583 6   4115084.751 6  21653934.159    21653933.562
        16.000          15.000
                 -12024126.430 6  -9369443.376 6  21462288.792    21462288.491
        17.000          16.750
 95  4 24 16 14 59.9990000  0  7G 2G18G19G27G28G29G31
                  -5182898.608 5  -4056553.315 5  23162262.683    23162263.980
        10.000          10.000
                  -2193647.216 7  -1709334.671 6  20174387.464    20174386.983
        20.500          18.750
                  -6473323.776 6  -5044147.006 6  20447716.542    20447716.202
        19.750          20.750
                 -12889905.939 6 -10044077.930 6  21954989.870    21954990.163
        13.750          14.250
                  -1859775.925 5  -1449173.552 5  23259798.659    23259797.843
        11.000           9.000
                   5319183.104 6   4144816.317 6  21661194.425    21661194.222
        15.250          15.000
                 -12038197.118 6  -9380407.550 6  21459611.190    21459610.870
        17.000          16.500
 95  4 24 16 15 14.9990000  0  7G 2G18G19G27G28G29G31
                  -5222177.801 5  -4087160.442 5  23154788.573    23154789.124
        10.250          10.000
                  -2175222.951 7  -1694978.105 6  20177893.534    20177893.124
        20.500          19.000
                  -6481071.116 7  -5050183.891 6  20446242.519    20446242.116
        20.000          20.750
                 -12921487.908 6 -10068687.247 6  21948980.144    21948980.140
        14.000          14.000
                  -1838677.419 5  -1432733.156 5  23263813.644    23263812.601
        11.000           9.000
                   5357470.389 6   4174650.552 6  21668480.464    21668480.413
        15.250          15.000
                 -12052087.629 6  -9391231.311 6  21456968.065    21456967.847
        17.000          17.000
 95  4 24 16 15 29.9990000  0  7G 2G18G19G27G28G29G31
                  -5261365.828 5  -4117696.532 5  23147331.526    23147332.222
        10.500          10.250
                  -2156640.918 7  -1680498.601 6  20181429.589    20181429.296
        20.250          19.250
                  -6488743.723 6  -5056162.543 6  20444782.323    20444782.218
        19.750          20.750
                 -12953013.575 6 -10093252.695 6  21942981.050    21942980.866
        14.000          14.000
                  -1817416.671 5  -1416166.340 5  23267859.183    23267858.413
        11.000           8.500
                   5395884.693 6   4204583.768 6  21675791.206    21675790.757
        16.000          15.250
                 -12065797.967 6  -9401914.691 6  21454358.714    21454358.526
        17.000          17.000
 95  4 24 16 15 44.9990000  0  7G 2G18G19G27G28G29G31
                  -5300460.306 5  -4148159.736 5  23139891.933    23139893.534
        10.750          11.000
                  -2137901.116 6  -1665896.163 6  20184995.386    20184995.249
        19.750          19.250
                  -6496341.548 6  -5062082.922 6  20443336.331    20443336.487
        19.750          20.750
                 -12984481.701 6 -10117773.308 6  21936993.019    21936992.659
        14.500          14.250
                  -1795992.316 5  -1399472.042 5  23271936.050    23271935.397
        10.500           8.750
                   5434426.143 6   4234616.058 6  21683126.081    21683125.304
        16.750          15.500
                 -12079328.135 6  -9412457.677 6  21451784.253    21451784.007
        17.000          17.250
 95  4 24 16 15 59.9990000  0  7G 2G18G19G27G28G29G31
                  -5339460.448 5  -4178549.448 5  23132470.495    23132472.675
        10.750          11.250
                  -2119004.033 6  -1651171.166 6  20188591.292    20188591.108
        19.500          18.750
                  -6503868.489 6  -5067948.071 6  20441904.065    20441903.929
        19.500          20.500
                 -13015893.548 6 -10142250.067 6  21931015.472    21931015.261
        14.500          14.500
                  -1774406.163 5  -1382651.668 5  23276043.565    23276043.315
        10.000           9.000
                   5473093.157 6   4264746.184 6  21690483.815    21690483.269
        16.250          15.250
                 -12092680.608 6  -9422862.196 6  21449243.214    21449243.058
        16.750          17.250
 95  4 24 16 16 14.9990000  0  7G 2G18G19G27G28G29G31
                  -5378368.442 5  -4208867.360 5  23125066.651    23125068.659
        11.250          11.000
                  -2099949.228 6  -1636323.271 6  20192217.425    20192217.198
        19.750          19.000
                  -6511324.818 6  -5073758.201 6  20440485.198    20440485.105
        19.750          20.750
                 -13047249.652 6 -10166683.387 6  21925048.558    21925048.694
        14.750          15.000
                  -1752658.739 5  -1365705.642 5  23280181.956    23280181.925
        10.000           9.750
                   5511884.761 6   4294973.390 6  21697864.855    21697864.776
        15.500          15.000
                 -12105857.661 6  -9433130.031 6  21446735.683    21446735.675
        16.750          17.250
 95  4 24 16 16 29.9990000  0  7G 2G18G19G27G28G29G31
                  -5417183.327 5  -4239112.718 5  23117680.722    23117681.940
        11.250          10.500
                  -2080740.700 6  -1621355.590 6  20195872.706    20195872.245
        19.750          18.500
                  -6518711.253 6  -5079513.862 6  20439079.620    20439079.405
        19.750          20.500
                 -13078549.818 6 -10191073.117 6  21919092.151    21919092.460
        14.750          15.250
                  -1730749.788 5  -1348633.761 5  23284351.308    23284351.315
        10.000          10.000
                   5550798.019 6   4325295.395 6  21705269.323    21705269.112
        14.750          14.500
                 -12118860.389 6  -9443262.028 6  21444261.159    21444261.378
        16.500          17.000
 95  4 24 16 16 44.9990000  0  7G 2G18G19G27G28G29G31
                  -5455905.005 5  -4269285.434 5  23110312.136    23110312.839
        11.250          10.000
                  -2061378.131 7  -1606267.883 6  20199557.386    20199556.733
        20.000          18.500
                  -6526027.398 6  -5085214.751 6  20437687.292    20437687.159
        19.750          20.750
                 -13109792.658 6 -10215418.174 6  21913146.776    21913147.226
        14.500          15.250
                  -1708679.405 5  -1331436.085 5  23288551.417    23288551.187
        10.000          10.250
                   5589829.968 6   4355709.881 6  21712697.081    21712696.495
        14.750          14.500
                 -12131690.117 6  -9453259.222 6  21441819.917    21441819.905
        17.000          16.750
 95  4 24 16 16 59.9990000  0  7G 2G18G19G27G28G29G31
                  -5494532.015 5  -4299384.380 5  23102961.308    23102961.944
        11.000           9.750
                  -2041864.883 6  -1591062.764 6  20203270.550    20203270.069
        19.750          18.500
                  -6533273.805 6  -5090861.299 6  20436308.644    20436308.390
        19.750          20.500
                 -13140976.373 6 -10239717.165 6  21907212.761    21907213.003
        14.250          15.000
                  -1686449.028 5  -1314113.740 5  23292781.956    23292781.362
        10.250          10.250
                   5628976.664 6   4386213.789 6  21720147.136    21720146.323
        15.500          14.750
                 -12144345.296 6  -9463120.395 6  21439411.917    21439411.538
        17.250          16.250
 95  4 24 16 17 14.9990000  0  7G 2G18G19G27G28G29G31
                  -5533065.554 5  -4329410.494 5  23095628.214    23095629.116
        10.750           9.750
                  -2022202.109 7  -1575741.126 6  20207012.409    20207012.077
        20.000          18.750
                  -6540444.956 6  -5096449.210 6  20434943.784    20434943.569
        19.750          20.500
                 -13172099.406 6 -10263968.867 6  21901290.151    21901290.210
        14.250          14.750
                  -1664058.094 5  -1296666.272 5  23297042.526    23297042.073
         9.750          10.000
                   5668237.879 6   4416806.928 6  21727618.245    21727617.995
        15.750          15.000
                 -12156822.998 6  -9472843.274 6  21437037.581    21437037.003
        17.500          16.000
 95  4 24 16 17 29.9990000  0  7G 2G18G19G27G28G29G31
                  -5571505.661 5  -4359363.806 5  23088313.190    23088314.507
        10.750          10.250
                  -2002385.782 7  -1560299.836 6  20210783.261    20210783.026
        20.000          19.250
                  -6547537.200 6  -5101975.633 6  20433594.308    20433594.144
        19.750          20.500
                 -13203162.851 6 -10288174.143 6  21895379.128    21895379.069
        14.250          14.750
                  -1641505.380 5  -1279092.747 5  23301333.972    23301333.534
         9.750           9.750
                   5707614.946 6   4447490.349 6  21735111.073    21735111.257
        15.250          15.000
                 -12169121.363 6  -9482426.406 6  21434697.206    21434696.702
        17.500          16.000
 95  4 24 16 17 44.9990000  0  7G 2G18G19G27G28G29G31
                  -5609852.451 5  -4389244.400 5  23081016.440    23081017.983
        11.000          10.750
                  -1982412.902 7  -1544736.557 6  20214583.995    20214583.948
        20.250          19.500
                  -6554548.979 7  -5107439.357 6  20432260.050    20432259.851
        20.000          20.500
                 -13234169.686 6 -10312335.305 6  21889478.597    21889478.632
        14.250          14.750
                  -1618791.560 5  -1261393.681 5  23305656.128    23305655.585
         9.500           9.250
                   5747107.648 6   4478263.878 6  21742626.167    21742626.390
        15.250          14.750
                 -12181242.242 6  -9491871.242 6  21432390.487    21432390.237
        17.250          16.750
 95  4 24 16 17 59.9990000  0  7G 2G18G19G27G28G29G31
                  -5648103.398 5  -4419050.315 5  23073737.823    23073739.405
        11.500          11.000
                  -1962281.989 7  -1529050.136 6  20218414.940    20218414.937
        20.250          19.500
                  -6561479.756 6  -5112839.960 6  20430941.120    20430940.987
        19.750          20.500
                 -13265120.166 6 -10336452.551 6  21883589.105    21883589.093
        14.750          14.750
                  -1595915.347 5  -1243568.071 5  23310009.120    23310008.722
         9.750           9.000
                   5786718.467 6   4509129.437 6  21750163.995    21750163.608
        15.250          14.250
                 -12193183.819 6  -9501176.365 6  21430118.105    21430117.995
        17.000          17.250
 95  4 24 16 18 14.9990000  0  7G 2G18G19G27G28G29G31
                  -5686261.969 5  -4448784.248 5  23066476.425    23066478.128
        11.250          11.000
                  -1941995.105 6  -1513242.178 6  20222275.159    20222275.190
        19.750          19.500
                  -6568328.818 6  -5118176.892 6  20429637.745    20429637.425
        19.750          20.500
                 -13296018.445 6 -10360529.129 6  21877709.519    21877709.276
        14.750          14.750
                  -1572878.884 5  -1225617.594 5  23314393.245    23314392.296
        10.000           8.750
                   5826444.558 6   4540084.816 6  21757723.933    21757722.659
        15.500          13.750
                 -12204949.239 6  -9510344.228 6  21427879.214    21427879.370
        16.750          17.750
 95  4 24 16 18 29.9990000  0  7G 2G18G19G27G28G29G31
                  -5724326.780 5  -4478445.116 5  23059232.737    23059234.378
        11.000          10.750
                  -1921553.698 6  -1497313.820 6  20226165.034    20226165.093
        19.500          19.000
                  -6575093.367 6  -5123447.971 6  20428350.683    20428350.378
        19.750          20.250
                 -13326863.926 6 -10384564.565 6  21871839.573    21871839.327
        14.750          14.750
                  -1549681.013 5  -1207541.331 5  23318807.683    23318807.003
        10.000           9.000
                   5866288.703 6   4571132.183 6  21765306.331    21765305.097
        15.500          13.750
                 -12216538.327 6  -9519374.688 6  21425673.831    21425674.163
        17.000          18.000
 95  4 24 16 18 44.9990000  0  7G 2G18G19G27G28G29G31
                  -5762295.330 5  -4508030.988 5  23052007.269    23052008.722
        10.750          10.250
                  -1900956.849 6  -1481264.335 6  20230084.550    20230084.308
        19.500          18.500
                  -6581774.167 6  -5128653.788 6  20427079.284    20427079.089
        19.500          20.250
                 -13357660.769 6 -10408562.095 6  21865979.105    21865979.097
        14.500          15.000
                  -1526323.213 5  -1189340.454 5  23323252.386    23323252.151
         9.500           9.000
                   5906253.364 6   4602273.457 6  21772910.581    21772910.347
        14.750          14.000
                 -12227948.795 6  -9528265.962 6  21423502.573    21423502.733
        17.000          17.750
 95  4 24 16 18 59.9990000  0  7G 2G18G19G27G28G29G31
                  -5800167.940 5  -4537542.099 5  23044800.097    23044801.448
        10.500          10.000
                  -1880204.075 7  -1465093.352 6  20234033.745    20234033.308
        20.000          18.500
                  -6588371.386 6  -5133794.479 6  20425823.784    20425823.718
        19.750          20.500
                 -13388410.458 6 -10432522.885 6  21860127.597    21860127.819
        14.500          15.250
                  -1502806.352 5  -1171015.641 5  23327727.190    23327727.394
         9.500           9.750
                   5946341.838 6   4633511.214 6  21780539.144    21780539.444
        14.750          14.500
                 -12239178.569 6  -9537016.436 6  21421365.784    21421365.757
        17.500          17.500
 95  4 24 16 19 14.9990000  0  7G 2G18G19G27G28G29G31
                  -5837943.532 5  -4566977.610 5  23037611.628    23037612.753
        10.500          10.000
                  -1859292.777 7  -1448798.847 6  20238013.206    20238012.601
        20.750          18.750
                  -6594883.808 6  -5138869.096 6  20424584.597    20424584.374
        19.750          20.500
                 -13419110.351 6 -10456444.866 6  21854285.542    21854285.788
        14.250          15.250
                  -1479128.004 5  -1152564.993 5  23332233.097    23332233.667
         9.250          10.250
                   5986556.739 6   4664847.496 6  21788192.230    21788192.151
        15.500          14.500
                 -12250223.620 6  -9545622.968 6  21419264.097    21419264.022
        17.500          17.000
 95  4 24 16 19 29.9990000  0  7G 2G18G19G27G28G29G31
                  -5875624.702 5  -4596339.547 5  23030441.206    23030442.288
        10.750          10.250
                  -1838218.805 7  -1432377.582 6  20242023.448    20242022.952
        20.750          19.000
                  -6601313.426 6  -5143879.182 6  20423360.964    20423360.944
        19.500          20.500
                 -13449763.064 6 -10480330.087 6  21848452.558    21848452.546
        14.250          15.000
                  -1455288.777 5  -1133988.994 5  23336769.769    23336770.319
         9.500          10.500
                   6026900.989 6   4696284.562 6  21795870.050    21795869.714
        15.750          14.500
                 -12261087.097 6  -9554088.013 6  21417196.612    21417196.405
        17.000          16.250
 95  4 24 16 19 44.9990000  0  7G 2G18G19G27G28G29G31
                  -5913211.222 5  -4625627.722 5  23023289.347    23023290.042
        11.500          10.500
                  -1816980.526 7  -1415828.279 6  20246065.081    20246064.565
        20.500          19.250
                  -6607663.345 6  -5148827.171 6  20422152.612    20422152.472
        19.500          20.500
                 -13480367.662 6 -10504177.819 6  21842628.706    21842628.472
        14.500          14.750
                  -1431288.950 5  -1115287.847 5  23341337.050    23341337.030
        10.000          10.750
                   6067373.376 6   4727821.467 6  21803572.097    21803570.980
        16.250          14.500
                 -12271770.132 6  -9562412.450 6  21415163.683    21415163.089
        17.000          16.000
 95  4 24 16 19 59.9990000  0  7G 2G18G19G27G28G29G31
                  -5950702.319 5  -4654841.538 5  23016155.065    23016156.132
        11.500          11.000
                  -1795578.158 7  -1399151.111 6  20250137.675    20250137.472
        20.000          19.500
                  -6613932.460 6  -5153712.196 6  20420959.714    20420959.519
        19.500          20.500
                 -13510921.801 6 -10527986.235 6  21836814.519    21836814.366
        14.500          14.750
                  -1407128.459 5  -1096461.507 5  23345934.964    23345934.608
        10.500          11.000
                   6107974.351 6   4759458.574 6  21811297.870    21811296.776
        15.750          14.000
                 -12282272.133 6  -9570595.822 6  21413165.323    21413164.605
        17.000          15.750
 95  4 24 16 20 14.9990000  0  7G 2G18G19G27G28G29G31
                  -5988099.846 5  -4683982.443 5  23009038.472    23009040.077
        11.250          11.500
                  -1774011.448 6  -1382345.878 6  20254241.206    20254241.276
        19.750          19.500
                  -6620117.936 6  -5158532.042 6  20419782.565    20419782.323
        19.500          20.250
                 -13541423.371 6 -10551753.683 6  21831010.120    21831010.015
        14.500          14.750
                  -1382806.925 5  -1077509.676 5  23350563.120    23350562.897
        10.500          11.250
                   6148706.241 6   4791197.700 6  21819048.167    21819047.944
        15.250          14.000
                 -12292593.130 6  -9578638.151 6  21411201.136    21411200.585
        17.000          16.000
 95  4 24 16 20 29.9990000  0  7G 2G18G19G27G28G29G31
                  -6025406.517 5  -4713052.556 5  23001938.847    23001941.140
        10.750          11.500
                  -1752278.340 6  -1365410.992 6  20258377.097    20258376.909
        19.750          19.250
                  -6626218.533 6  -5163285.754 6  20418621.651    20418621.429
        19.500          20.250
                 -13571869.266 6 -10575477.753 6  21825216.378    21825216.605
        14.500          15.000
                  -1358324.694 5  -1058432.627 5  23355221.855    23355221.550
        10.250          11.250
                   6189568.508 6   4823038.417 6  21826823.855    21826824.073
        15.000          14.250
                 -12302731.961 6  -9586538.539 6  21409271.636    21409271.405
        17.250          16.250
 95  4 24 16 20 44.9990000  0  7G 2G18G19G27G28G29G31
                  -6062621.477 5  -4742051.215 5  22994856.612    22994859.065
        10.500          11.250
                  -1730378.411 7  -1348346.117 6  20262544.698    20262544.284
        20.250          19.000
                  -6632235.622 6  -5167974.395 6  20417476.776    20417476.444
        19.500          20.250
                 -13602256.599 6 -10599156.187 6  21819433.995    21819433.999
        14.500          15.000
                  -1333682.018 5  -1039230.556 5  23359910.800    23359910.917
         9.750          11.000
                   6230560.513 6   4854980.235 6  21834624.386    21834624.605
        15.000          14.000
                 -12312685.655 6  -9594294.664 6  21407377.745    21407377.558
        17.750          17.000
 95  4 24 16 20 59.9990000  0  7G 2G18G19G27G28G29G31
                  -6099748.112 5  -4770981.052 5  22987791.761    22987793.444
        10.750          10.750
                  -1708309.584 7  -1331149.637 6  20266744.487    20266743.851
        20.500          19.000
                  -6638170.709 6  -5172599.135 6  20416347.542    20416347.210
        19.500          20.250
                 -13632585.456 6 -10622789.056 6  21813662.636    21813662.558
        14.750          15.000
                  -1308879.910 5  -1019904.253 5  23364630.206    23364630.386
         9.500          10.500
                   6271677.395 6   4887019.354 6  21842448.948    21842448.624
        14.750          13.750
                 -12322455.222 6  -9601907.309 6  21405518.698    21405518.589
        17.750          17.250
 95  4 24 16 21 14.9990000  0  7G 2G18G19G27G28G29G31
                  -6136788.634 5  -4799843.784 5  22980743.769    22980744.190
        11.500          10.250
                  -1686072.050 7  -1313821.703 6  20270976.097    20270975.397
        20.750          18.750
                  -6644024.524 6  -5177160.550 6  20415233.401    20415233.144
        19.500          20.250
                 -13662853.363 6 -10646374.436 6  21807903.003    21807902.827
        14.750          15.250
                  -1283918.731 5  -1000453.991 5  23369380.237    23369380.300
         9.500          10.000
                   6312913.520 6   4919151.387 6  21850295.769    21850295.319
        14.750          13.750
                 -12332043.877 6  -9609378.987 6  21403693.847    21403693.933
        17.500          17.500
 95  4 24 16 21 29.9990000  0  7G 2G18G19G27G28G29G31
                  -6173741.643 6  -4828638.311 5  22973712.347    22973712.390
        12.000          10.250
                  -1663665.843 7  -1296362.328 6  20275239.730    20275239.300
        20.250          19.000
                  -6649797.338 6  -5181658.849 6  20414134.776    20414134.519
        19.250          20.000
                 -13693061.167 6 -10669912.974 6  21802154.370    21802154.569
        14.750          15.250
                  -1258798.632 5   -980879.902 5  23374160.644    23374160.730
         9.750           9.750
                   6354268.233 6   4951375.820 6  21858165.151    21858164.976
        14.250          13.750
                 -12341455.682 6  -9616712.863 6  21401902.987    21401903.042
        17.250          17.250
 95  4 24 16 21 44.9990000  0  7G 2G18G19G27G28G29G31
                  -6210607.186 6  -4857364.678 5  22966696.987    22966697.530
        12.000          10.750
                  -1641094.150 7  -1278774.002 6  20279534.800    20279534.733
        20.250          19.250
                  -6655489.603 6  -5186094.378 6  20413051.417    20413051.175
        19.250          20.250
                 -13723211.482 6 -10693406.719 6  21796416.940    21796417.296
        14.500          15.500
                  -1233521.358 5   -961183.332 5  23378970.894    23378970.776
         9.500           9.500
                   6395738.511 6   4983690.297 6  21866056.597    21866056.905
        14.250          14.250
                 -12350692.475 6  -9623910.367 6  21400145.253    21400145.292
        17.000          17.250
 95  4 24 16 21 59.9990000  0  7G 2G18G19G27G28G29G31
                  -6247381.694 5  -4886020.117 5  22959698.511    22959700.050
        11.500          11.250
                  -1618357.869 7  -1261057.420 6  20283861.448    20283861.503
        20.000          19.500
                  -6661099.708 6  -5190465.887 6  20411984.112    20411983.874
        19.500          20.000
                 -13753302.652 6 -10716854.374 6  21790690.581    21790691.089
        14.750          15.500
                  -1208085.611 5   -941363.276 5  23383811.058    23383811.296
         9.500           9.500
                   6437325.345 6   5016095.604 6  21873970.245    21873970.866
        14.250          14.500
                 -12359752.543 6  -9630970.164 6  21398421.315    21398420.925
        17.000          16.750
 95  4 24 16 22 14.9990000  0  7G 2G18G19G27G28G29G31
                  -6284064.775 5  -4914604.322 5  22952717.347    22952719.608
        11.000          11.500
                  -1595459.199 7  -1243214.305 6  20288219.019    20288219.026
        20.000          19.750
                  -6666628.162 6  -5194773.776 6  20410931.972    20410931.827
        19.500          20.250
                 -13783335.146 6 -10740256.307 6  21784975.667    21784975.815
        14.500          15.250
                  -1182491.096 5   -921419.513 5  23388681.565    23388681.835
         9.250           9.750
                   6479031.455 6   5048593.848 6  21881906.753    21881907.417
        14.000          14.750
                 -12368635.189 6  -9637891.706 6  21396730.855    21396730.515
        17.000          16.500
 95  4 24 16 22 29.9990000  0  7G 2G18G19G27G28G29G31
                  -6320654.561 5  -4943115.834 5  22945754.558    22945756.706
        11.000          11.250
                  -1572398.700 7  -1225245.090 6  20292607.331    20292607.327
        20.000          19.750
                  -6672073.925 6  -5199017.225 6  20409895.589    20409895.671
        19.250          20.250
                 -13813308.171 6 -10763611.905 6  21779272.198    21779271.980
        14.500          15.000
                  -1156736.649 5   -901351.130 5  23393582.542    23393582.511
         9.250           9.500
                   6520858.029 6   5081185.976 6  21889865.808    21889866.667
        13.750          14.250
                 -12377337.564 6  -9644672.775 6  21395075.097    21395074.585
        17.250          16.250
 95  4 24 16 22 44.9990000  0  7G 2G18G19G27G28G29G31
                  -6357148.166 5  -4971552.397 5  22938810.480    22938811.683
        11.500          11.000
                  -1549177.071 7  -1207150.320 6  20297026.237    20297026.093
        20.000          19.500
                  -6677439.082 6  -5203197.870 6  20408874.862    20408874.710
        19.250          20.000
                 -13843223.327 6 -10786922.409 6  21773579.558    21773579.272
        14.500          14.750
                  -1130823.439 5   -881159.031 5  23398513.878    23398513.210
         9.750           9.500
                   6562801.774 6   5113869.404 6  21897847.612    21897848.230
        13.750          14.000
                 -12385858.789 6  -9651312.687 6  21393453.581    21393452.940
        18.000          16.250
 95  4 24 16 22 59.9990000  0  7G 2G18G19G27G28G29G31
                  -6393542.003 6  -4999911.209 5  22931885.339    22931885.862
        12.000          10.750
                  -1525795.747 7  -1188931.115 6  20301475.511    20301475.272
        20.000          19.750
                  -6682723.608 6  -5207315.683 6  20407869.081    20407868.698
        19.500          20.000
                 -13873082.732 6 -10810189.475 6  21767897.683    21767897.284
        14.750          15.000
                  -1104751.499 5   -860843.252 5  23403475.214    23403474.495
        10.250           9.500
                   6604862.367 6   5146643.876 6  21905851.519    21905852.030
        13.750          14.000
                 -12394200.376 6  -9657812.611 6  21391866.269    21391865.577
        18.250          16.500
 95  4 24 16 23 14.9990000  0  7G 2G18G19G27G28G29G31
                  -6429833.743 5  -5028190.461 5  22924978.972    22924979.776
        11.750          10.750
                  -1502254.224 7  -1170587.075 6  20305955.519    20305955.183
        20.000          19.500
                  -6687928.373 6  -5211371.339 6  20406878.651    20406878.472
        19.250          20.000
                 -13902885.767 6 -10833412.610 6  21762226.175    21762226.019
        14.750          15.250
                  -1078521.641 5   -840404.410 5  23408466.675    23408465.905
        10.750           9.750
                   6647039.082 6   5179508.832 6  21913877.972    21913877.706
        14.250          13.500
                 -12402363.542 6  -9664173.516 6  21390312.722    21390312.206
        17.750          16.750
 95  4 24 16 23 29.9990000  0  7G 2G18G19G27G28G29G31
                  -6466020.689 5  -5056388.069 5  22918092.347    22918093.901
        11.500          11.250
                  -1478556.576 7  -1152121.381 6  20310465.003    20310464.624
        20.000          19.250
                  -6693053.057 6  -5215364.599 6  20405903.495    20405903.292
        19.500          20.000
                 -13932632.542 6 -10856591.908 6  21756565.526    21756565.577
        14.750          15.250
                  -1052134.274 5   -819842.841 5  23413488.269    23413487.339
        11.000           9.750
                   6689334.298 6   5212466.118 6  21921927.190    21921925.601
        15.000          13.000
                 -12410348.273 6  -9670395.378 6  21388793.073    21388792.960
        17.250          16.750
 95  4 24 16 23 44.9990000  0  7G 2G18G19G27G28G29G31
                  -6502102.076 5  -5084503.424 5  22911226.394    22911227.835
        11.250          11.250
                  -1454703.158 7  -1133534.310 6  20315004.120    20315003.687
        20.250          19.250
                  -6698096.738 6  -5219294.741 6  20404943.753    20404943.417
        19.500          20.000
                 -13962322.349 6 -10879726.814 6  21750915.698    21750916.058
        14.750          15.500
                  -1025588.857 5   -799158.119 5  23418539.612    23418539.058
        11.000           9.750
                   6731752.035 6   5245518.874 6  21929999.105    21929997.687
        15.250          13.250
                 -12418150.530 6  -9676475.062 6  21387308.378    21387308.222
        16.750          17.000
 95  4 24 16 23 59.9990000  0  7G 2G18G19G27G28G29G31
                  -6538080.490 5  -5112538.541 5  22904380.105    22904381.499
        11.500          11.250
                  -1430694.389 7  -1114826.191 6  20319572.808    20319572.394
        20.000          19.250
                  -6703059.177 6  -5223161.576 6  20403999.526    20403999.144
        19.750          20.000
                 -13991955.030 6 -10902817.207 6  21745276.612    21745276.960
        14.750          15.500
                   -998885.546 5   -778350.359 5  23423620.761    23423620.694
        10.500          10.000
                   6774292.019 6   5278666.891 6  21938093.714    21938094.026
        14.500          14.250
                 -12425766.519 6  -9682409.598 6  21385858.769    21385858.937
        16.500          17.250
